[[[{"header":{"parameterUnit":"kt","parameterCategory":2,"dx":1,"dy":1,"la1":29.587661999999998,"la2":31.0,"lo1":-88.76705300000003,"lo2":-86.6583820000003,"nx":115,"ny":88,"refTime":"2022-10-30T00:00:00:Z","depth":0,"parameterNumber":1,"parameterNumberName":"U-component_of_WINDS"},"data":[0.9068,0.9068,0.8497,0.7648,0.6815,0.6302,0.545,0.4298,0.2947,0.298,0.2385,-0.1511,-0.4561,-0.4818,-0.481,-0.5051,-0.5259,-0.4922,-0.4046,-0.4032,-0.8527,-1.1138,-1.4121,-1.8352,-2.0463,-2.5536,-3.1548,-3.6593,-4.0755,-4.7912,-5.4755,-6.0408,-6.4006,-6.8352,-7.2768,-7.9348,-8.5739,-9.1538,-9.8466,-10.5404,-10.8903,-11.1975,-11.5707,-11.8791,-12.1286,-12.673,-13.1724,-13.424,-13.9429,-14.4719,-14.8459,-14.9394,-14.9336,-14.9432,-15.1065,-15.2886,-15.2877,-15.5419,-15.8068,-16.0567,-16.2853,-16.4774,-16.6744,-16.8409,-16.9183,-16.9091,-16.8917,-16.82,-16.8773,-16.8439,-16.7266,-16.6811,-16.6721,-16.8003,-16.8375,-16.8211,-16.8558,-16.8588,-16.7777,-16.7756,-16.851,-16.9306,-16.9034,-16.6635,-16.4379,-16.2552,-16.0199,-15.938,-16.0125,-15.9731,-15.9369,-15.9556,-15.9624,-15.9327,-15.896,-15.896,-15.896,-15.8842,-15.847,-15.727,-15.6304,-15.5913,-15.5122,-15.3912,-15.3708,-15.3643,-15.3439,-15.3027,-15.1435,-14.9439,-14.7835,-14.63,-14.35,-14.1614,-14.0967,0.9068,0.9068,0.9068,0.8219,0.6807,0.6819,0.5713,0.4328,0.293,0.3261,0.359,0.0606,-0.2135,-0.3947,-0.4524,-0.4762,-0.4701,-0.4643,-0.4913,-0.5178,-0.7396,-1.0283,-1.3267,-1.6623,-1.9966,-2.4321,-2.8906,-3.2196,-3.6171,-4.2926,-5.0309,-5.7231,-6.2059,-6.6202,-7.2905,-7.9544,-8.5296,-9.0467,-9.7285,-10.3899,-10.7319,-10.9907,-11.4894,-11.8623,-12.1636,-12.4815,-12.966,-13.354,-13.6859,-14.1506,-14.5739,-14.7864,-14.8982,-14.9894,-15.188,-15.322,-15.3304,-15.5319,-15.8243,-15.961,-16.1388,-16.3671,-16.5643,-16.7418,-16.8898,-16.9243,-16.9478,-16.9739,-17.0858,-17.0752,-16.9201,-16.8304,-16.83,-16.8672,-16.8514,-16.8345,-16.9437,-17.0362,-16.8915,-16.7465,-16.8885,-17.0727,-16.9411,-16.71,-16.5165,-16.4033,-16.2539,-16.1675,-16.0688,-16.0409,-16.0173,-16.0331,-16.0097,-15.9509,-15.896,-15.896,-15.896,-15.8842,-15.8216,-15.7078,-15.5847,-15.5056,-15.4253,-15.3233,-15.3027,-15.3027,-15.282,-15.234,-15.0305,-14.8057,-14.6938,-14.574,-14.3106,-14.1688,-14.133,0.9068,0.9068,0.9068,0.8497,0.7365,0.7087,0.6255,0.5163,0.4088,0.3544,0.2972,0.0901,-0.0605,-0.181,-0.388,-0.4712,-0.4661,-0.4632,-0.4916,-0.5756,-0.7715,-1.0289,-1.326,-1.6632,-1.9597,-2.1238,-2.4604,-2.8953,-3.3645,-3.9668,-4.7464,-5.6488,-6.1591,-6.625,-7.2842,-7.8753,-8.4258,-8.8681,-9.7025,-10.1884,-10.4671,-10.9747,-11.5051,-11.8572,-12.2188,-12.6013,-12.9831,-13.2652,-13.6189,-14.0544,-14.4111,-14.6919,-14.9109,-15.0567,-15.2572,-15.3792,-15.4559,-15.5133,-15.7742,-15.9459,-16.0411,-16.3649,-16.6137,-16.7608,-16.8933,-17.0701,-17.0887,-17.0762,-17.1846,-17.1929,-17.0533,-16.9421,-16.9266,-16.9484,-16.9472,-16.9595,-17.0449,-17.1087,-17.0096,-16.9177,-17.0255,-17.1698,-16.9934,-16.764,-16.6135,-16.4748,-16.1924,-16.0409,-16.1059,-16.1101,-16.1093,-16.099,-16.0562,-15.9985,-15.9144,-15.896,-15.8775,-15.8403,-15.8028,-15.7078,-15.6109,-15.4656,-15.3643,-15.3027,-15.2612,-15.2612,-15.1985,-15.1287,-14.9657,-14.7612,-14.6259,-14.5235,-14.3362,-14.193,-14.1629,0.9068,0.9068,0.9068,0.8785,0.7931,0.737,0.652,0.5968,0.5244,0.3828,0.2361,0.1495,0.0904,-0.0603,-0.3282,-0.4717,-0.4659,-0.464,-0.5205,-0.6332,-0.7982,-1.0834,-1.4425,-1.6557,-1.8414,-1.947,-2.0896,-2.4221,-2.995,-3.7707,-4.6227,-5.5709,-6.1344,-6.6126,-7.2381,-7.7879,-8.3001,-8.7121,-9.4722,-9.985,-10.4084,-10.9907,-11.5363,-11.913,-12.1793,-12.5926,-13.0794,-13.335,-13.6711,-14.0563,-14.3607,-14.6438,-14.9109,-15.1523,-15.3264,-15.4457,-15.4774,-15.618,-15.7872,-15.8486,-15.9921,-16.2985,-16.5625,-16.7603,-16.9629,-17.1673,-17.2548,-17.2285,-17.2179,-17.201,-17.1556,-17.069,-17.0078,-17.0443,-17.065,-17.1139,-17.1619,-17.1441,-17.1277,-17.1628,-17.2347,-17.1744,-17.0359,-16.862,-16.7084,-16.4751,-16.2146,-16.1139,-16.198,-16.2303,-16.2449,-16.1471,-16.0982,-16.0343,-15.9327,-15.896,-15.8775,-15.8403,-15.7906,-15.7078,-15.6304,-15.5122,-15.3708,-15.3027,-15.2612,-15.2612,-15.2195,-15.0861,-14.9221,-14.7612,-14.6092,-14.4538,-14.3008,-14.1868,-14.1868,0.8497,0.9068,0.9068,0.8502,0.7931,0.7931,0.7082,0.5687,0.6117,0.4712,0.2957,0.362,0.2433,-0.091,-0.3303,-0.4749,-0.4696,-0.4651,-0.5214,-0.6061,-0.7978,-1.0815,-1.3771,-1.6157,-1.83,-1.9307,-2.0372,-2.176,-2.6694,-3.4894,-4.4895,-5.4035,-6.0174,-6.5934,-7.1484,-7.6723,-8.1785,-8.6321,-9.2462,-9.8968,-10.4303,-10.9677,-11.4835,-11.9657,-12.2363,-12.5319,-13.1662,-13.5767,-13.8427,-14.1867,-14.5092,-14.7525,-14.9206,-15.0637,-15.3385,-15.4626,-15.5032,-15.6762,-15.8222,-15.7878,-15.9567,-16.2062,-16.4187,-16.6678,-16.97,-17.2208,-17.3307,-17.3347,-17.4375,-17.4413,-17.3456,-17.2472,-17.1424,-17.1252,-17.1509,-17.19,-17.2162,-17.1997,-17.1979,-17.2568,-17.297,-17.1862,-17.0464,-16.9463,-16.8002,-16.6079,-16.4196,-16.3656,-16.3892,-16.3892,-16.3193,-16.2019,-16.1572,-16.0874,-15.9872,-15.9144,-15.8775,-15.8283,-15.7973,-15.7211,-15.6241,-15.4987,-15.3912,-15.3027,-15.2195,-15.2404,-15.171,-14.9937,-14.812,-14.6774,-14.5173,-14.3895,-14.3008,-14.2109,-14.1868,0.737,0.7653,0.7653,0.7936,0.7931,0.7931,0.7365,0.6551,0.6703,0.5889,0.4132,0.4199,0.2123,-0.274,-0.4223,-0.477,-0.4714,-0.4677,-0.5211,-0.6034,-0.7103,-1.0525,-1.3691,-1.634,-1.8175,-2.003,-2.0735,-2.0549,-2.3734,-3.2527,-4.3591,-5.2297,-6.0564,-6.5574,-7.0549,-7.592,-8.0606,-8.5652,-9.1165,-9.7466,-10.3648,-10.971,-11.374,-11.7943,-12.1136,-12.5359,-13.0863,-13.4297,-13.816,-14.267,-14.4945,-14.728,-14.8878,-14.9444,-15.1562,-15.5081,-15.5793,-15.7883,-15.9396,-15.847,-16.0611,-16.3694,-16.6348,-16.7634,-17.0053,-17.205,-17.3151,-17.4345,-17.5724,-17.6586,-17.5461,-17.4389,-17.3222,-17.2059,-17.2372,-17.2735,-17.2716,-17.2549,-17.2917,-17.3359,-17.2951,-17.2022,-17.09,-17.0017,-16.8596,-16.6572,-16.5343,-16.4717,-16.4468,-16.4468,-16.3591,-16.2427,-16.1916,-16.1225,-16.0343,-15.9509,-15.8775,-15.8095,-15.766,-15.7283,-15.6176,-15.5183,-15.4571,-15.3621,-15.1985,-15.1287,-15.0583,-14.8846,-14.7,-14.5465,-14.3895,-14.3008,-14.235,-14.1868,-14.1868,0.652,0.6807,0.6807,0.737,0.7931,0.7648,0.7365,0.6831,0.6404,0.5297,0.3241,0.2395,-0.1517,-0.5796,-0.5127,-0.4778,-0.4442,-0.4693,-0.5208,-0.602,-0.6823,-1.0476,-1.3322,-1.567,-1.7481,-1.9013,-1.9962,-2.0064,-2.1191,-2.8979,-3.9605,-5.1196,-6.0328,-6.5574,-7.0549,-7.5433,-8.088,-8.6284,-9.0673,-9.7994,-10.4795,-10.9558,-11.4013,-11.7544,-12.0847,-12.614,-13.1203,-13.5184,-13.9381,-14.3536,-14.5781,-14.6664,-14.838,-14.8714,-15.0566,-15.465,-15.7132,-15.8902,-16.0736,-16.0104,-16.1133,-16.4921,-16.7415,-16.8737,-16.9741,-17.0994,-17.2466,-17.3808,-17.5154,-17.5889,-17.5369,-17.5113,-17.4563,-17.3699,-17.3377,-17.3527,-17.3506,-17.3359,-17.3064,-17.3506,-17.4022,-17.2844,-17.063,-16.9669,-16.8549,-16.6642,-16.5428,-16.4717,-16.4468,-16.4468,-16.3754,-16.293,-16.2257,-16.1399,-16.0521,-15.9509,-15.8589,-15.7717,-15.7734,-15.742,-15.6373,-15.5907,-15.523,-15.4009,-15.1966,-15.0496,-14.9284,-14.7674,-14.5925,-14.4365,-14.3246,-14.253,-14.1868,-14.1868,-14.1868,0.6237,0.6807,0.6807,0.7082,0.7648,0.7087,0.6803,0.6535,0.4365,0.2058,-0.0295,-0.2716,-0.5183,-0.7925,-0.6038,-0.5099,-0.5076,-0.439,-0.4927,-0.5756,-0.6551,-1.0199,-1.3009,-1.4451,-1.6237,-1.7146,-1.8356,-1.8791,-1.8185,-2.6518,-3.8019,-5.0109,-6.0113,-6.6418,-7.1161,-7.6036,-8.1511,-8.6818,-9.1678,-9.8103,-10.5331,-10.9559,-11.4083,-11.7826,-12.1238,-12.626,-13.1627,-13.6657,-14.1041,-14.4818,-14.7773,-14.7743,-14.7871,-14.8171,-15.0833,-15.4263,-15.8069,-15.9951,-16.1563,-16.1436,-16.2998,-16.5793,-16.7793,-16.8616,-16.9585,-17.0559,-17.1753,-17.305,-17.4216,-17.4821,-17.518,-17.5069,-17.501,-17.4376,-17.382,-17.3895,-17.3875,-17.4022,-17.358,-17.3727,-17.4243,-17.3181,-17.0992,-16.9193,-16.8146,-16.683,-16.5954,-16.5391,-16.5786,-16.5648,-16.477,-16.3813,-16.287,-16.1708,-16.0343,-15.9327,-15.8403,-15.765,-15.7734,-15.7882,-15.7097,-15.6365,-15.5481,-15.4254,-15.1798,-14.9629,-14.7736,-14.5864,-14.4538,-14.3659,-14.277,-14.2109,-14.1868,-14.1868,-14.1868,0.5101,0.5387,0.5387,0.5954,0.7087,0.6803,0.7087,0.6831,0.407,0.0294,-0.2958,-0.4227,-0.5799,-0.671,-0.7296,-0.7878,-0.7488,-0.5009,-0.3796,-0.5193,-0.6273,-0.9634,-1.2438,-1.3854,-1.5041,-1.7915,-1.8555,-1.8727,-1.8757,-2.4751,-3.4355,-4.6745,-5.892,-6.625,-7.2308,-7.6598,-8.1826,-8.6818,-9.2062,-9.8211,-10.4826,-11.0254,-11.4304,-11.7991,-12.1644,-12.5365,-13.0991,-13.588,-14.0029,-14.4799,-14.7497,-14.8614,-15.0439,-15.1393,-15.2618,-15.5441,-15.8632,-16.0403,-16.2425,-16.2849,-16.4192,-16.6791,-16.7931,-16.8739,-16.939,-17.0031,-17.0915,-17.2011,-17.2981,-17.3574,-17.3755,-17.3305,-17.3043,-17.239,-17.225,-17.2642,-17.2991,-17.4022,-17.3948,-17.417,-17.4273,-17.2908,-17.1311,-16.9635,-16.8283,-16.7521,-16.6703,-16.7219,-16.7659,-16.6896,-16.6041,-16.4971,-16.3961,-16.2394,-16.101,-15.9327,-15.8216,-15.765,-15.7873,-15.8411,-15.7623,-15.6027,-15.547,-15.4351,-15.1346,-14.8467,-14.6092,-14.4538,-14.3423,-14.253,-14.235,-14.2109,-14.1868,-14.1868,-14.1868,0.4534,0.4534,0.4534,0.5387,0.652,0.652,0.6233,0.5964,0.3169,-0.0584,-0.4725,-0.6343,-0.6409,-0.7019,-0.8543,-0.9432,-0.8738,-0.5057,-0.323,-0.4643,-0.6284,-0.9362,-1.131,-1.2445,-1.3862,-1.6161,-1.6881,-1.7076,-1.9653,-2.3945,-3.1685,-4.1703,-5.4304,-6.5141,-7.1912,-7.7439,-8.1826,-8.6774,-9.1876,-9.7518,-10.4167,-10.8916,-11.3131,-11.6825,-12.0212,-12.4515,-13.0349,-13.555,-14.0367,-14.5361,-14.6761,-14.8095,-14.9646,-15.1043,-15.2421,-15.5077,-15.8235,-16.0259,-16.2656,-16.4942,-16.5827,-16.7184,-16.8382,-16.8813,-16.9191,-16.9377,-17.0136,-17.1286,-17.2079,-17.2449,-17.2664,-17.2244,-17.1872,-17.1212,-17.1002,-17.1498,-17.2052,-17.3158,-17.3895,-17.3895,-17.388,-17.2658,-17.1077,-16.9326,-16.8909,-16.8323,-16.8026,-16.8377,-16.87,-16.8006,-16.7382,-16.6406,-16.4886,-16.3147,-16.1186,-15.9144,-15.784,-15.746,-15.7614,-15.8018,-15.6958,-15.5555,-15.472,-15.378,-15.0605,-14.745,-14.5465,-14.3895,-14.253,-14.1868,-14.2109,-14.1868,-14.1868,-14.1868,-14.1868,0.4534,0.4534,0.4534,0.5101,0.5667,0.567,0.4815,0.3682,0.2275,-0.1154,-0.6204,-0.8455,-0.9158,-0.9462,-0.9163,-0.9751,-0.8776,-0.6256,-0.441,-0.4961,-0.6887,-0.8816,-1.0211,-1.1343,-1.2771,-1.2496,-1.35,-1.5708,-1.8508,-2.2809,-3.1685,-4.2003,-5.1083,-5.9713,-7.019,-7.6317,-8.1868,-8.6642,-9.0543,-9.633,-10.2056,-10.6258,-11.0879,-11.5037,-11.8785,-12.3212,-12.9135,-13.464,-14.0178,-14.4552,-14.6015,-14.7883,-14.914,-15.033,-15.201,-15.4144,-15.7324,-16.0028,-16.2433,-16.5292,-16.6722,-16.7784,-16.8332,-16.8773,-16.906,-16.955,-17.0245,-17.0462,-17.1449,-17.1859,-17.1675,-17.1513,-17.1247,-17.0911,-17.0493,-17.0613,-17.0908,-17.1646,-17.2236,-17.2531,-17.2505,-17.2328,-17.073,-16.9832,-16.9685,-16.9512,-16.9349,-16.9349,-16.9532,-16.9185,-16.87,-16.7651,-16.5886,-16.4243,-16.2352,-15.9546,-15.7783,-15.727,-15.7089,-15.6965,-15.6163,-15.4138,-15.3286,-15.2796,-14.9851,-14.6216,-14.4365,-14.3246,-14.259,-14.1868,-14.1868,-14.1868,-14.1868,-14.1868,-14.1626,0.4534,0.4534,0.4534,0.3965,0.2831,0.3116,0.3118,0.2269,0.0571,-0.3492,-0.8358,-0.9078,-0.9762,-0.9767,-0.9767,-0.9741,-0.9048,-0.748,-0.5312,-0.5538,-0.7791,-1.1202,-1.2284,-1.2554,-1.2876,-1.5077,-1.4898,-1.5266,-1.9568,-2.2287,-3.2019,-4.2534,-5.1003,-5.9591,-6.9507,-7.6781,-8.1702,-8.5156,-8.8945,-9.4253,-10.008,-10.4366,-10.8678,-11.3287,-11.8509,-12.2952,-12.6837,-13.4064,-13.9472,-14.2678,-14.5804,-14.8588,-15.0968,-15.3194,-15.481,-15.7053,-15.9479,-16.1234,-16.2884,-16.4769,-16.6074,-16.7664,-16.8356,-16.8698,-16.941,-17.0419,-17.0374,-17.0314,-17.1252,-17.2155,-17.2014,-17.0399,-16.9532,-17.0248,-16.9871,-16.9352,-16.9722,-17.0449,-17.0967,-17.1351,-17.1457,-17.1526,-17.062,-17.0852,-17.0555,-17.0173,-17.0785,-17.1762,-17.1363,-17.0781,-17.0156,-16.8521,-16.7055,-16.5338,-16.3413,-16.1173,-15.9105,-15.8523,-15.7027,-15.6568,-15.4626,-15.2241,-15.0813,-14.9788,-14.7932,-14.4782,-14.3186,-14.253,-14.235,-14.1868,-14.1868,-14.1868,-14.1868,-14.1626,-14.1383,0.2834,0.2551,0.1983,0.1132,-0.0,0.0283,-0.0,-0.0851,-0.2283,-0.5522,-0.9534,-0.9688,-0.9762,-0.9762,-0.9757,-1.0012,-0.9913,-0.8699,-0.6488,-0.6401,-0.7818,-1.1286,-1.3563,-1.3826,-1.445,-1.5214,-1.4764,-1.6038,-2.0314,-2.2746,-3.3023,-4.3612,-5.1248,-6.0575,-6.8467,-7.5532,-7.9791,-8.2855,-8.6814,-9.0799,-9.6573,-10.1026,-10.5991,-11.0784,-11.6697,-12.1239,-12.4662,-13.3185,-13.8324,-14.1931,-14.5565,-14.8165,-15.057,-15.3124,-15.5096,-15.7278,-15.9909,-16.2141,-16.4139,-16.5034,-16.592,-16.7529,-16.828,-16.8691,-16.9164,-17.0072,-17.0348,-17.0614,-17.0805,-17.0969,-17.1062,-16.9557,-16.8382,-16.8988,-16.8987,-16.8308,-16.8593,-16.962,-17.0197,-17.0613,-17.0747,-17.0683,-17.1094,-17.1517,-17.1124,-17.0972,-17.294,-17.4249,-17.3265,-17.2515,-17.1058,-16.9547,-16.812,-16.6493,-16.4026,-16.228,-16.0685,-15.8801,-15.7031,-15.5706,-15.375,-15.1074,-14.8341,-14.6629,-14.4965,-14.3605,-14.253,-14.2109,-14.1868,-14.1868,-14.1868,-14.1868,-14.1868,-14.1626,-14.1139,-0.0283,-0.085,-0.2266,-0.2832,-0.2832,-0.2549,-0.3682,-0.4815,-0.5387,-0.6915,-0.886,-0.9635,-0.9741,-0.9757,-0.9751,-1.0298,-1.1082,-1.0202,-0.797,-0.6714,-0.7581,-1.1389,-1.3695,-1.5471,-1.5549,-1.5075,-1.4502,-1.6666,-2.0106,-2.4065,-3.4614,-4.6179,-5.2132,-6.1031,-6.8902,-7.3921,-7.6996,-8.1179,-8.4343,-8.775,-9.1976,-9.7293,-10.2414,-10.6945,-11.3817,-12.0245,-12.4179,-13.3676,-13.992,-14.1466,-14.5706,-14.8977,-15.0142,-15.2616,-15.4891,-15.7278,-15.9909,-16.3233,-16.5171,-16.6002,-16.6522,-16.7467,-16.8228,-16.8681,-16.9666,-16.9722,-17.0092,-17.0994,-17.1951,-17.1437,-17.0554,-16.9229,-16.8894,-16.913,-16.8952,-16.8374,-16.8531,-16.9421,-16.9923,-16.9964,-16.9963,-16.9852,-17.0161,-17.0612,-17.0344,-17.1137,-17.3047,-17.4479,-17.3761,-17.3139,-17.1752,-17.0418,-16.9113,-16.7136,-16.4599,-16.2145,-16.0094,-15.8279,-15.5439,-15.3621,-15.2177,-14.9566,-14.6259,-14.4954,-14.3963,-14.289,-14.1868,-14.1868,-14.1868,-14.1868,-14.1868,-14.1868,-14.1868,-14.1626,-14.1139,-0.2832,-0.6799,-0.7365,-0.7365,-0.7365,-0.5664,-0.5095,-0.5667,-0.5999,-0.6372,-0.707,-0.8665,-0.9682,-0.9741,-0.9746,-1.0253,-1.0972,-1.1155,-0.8909,-0.9391,-1.1753,-1.5421,-1.6849,-1.7652,-1.7486,-1.6297,-1.6118,-1.7306,-2.1702,-2.7705,-3.6171,-4.7143,-5.2454,-6.0961,-6.879,-7.2594,-7.485,-7.9272,-8.2102,-8.5285,-8.9157,-9.471,-9.9729,-10.5412,-11.2003,-11.863,-12.2936,-13.2475,-13.8892,-14.1506,-14.5706,-14.8915,-15.0245,-15.2805,-15.5102,-15.7503,-16.0477,-16.4037,-16.6171,-16.687,-16.6669,-16.7342,-16.8012,-16.9281,-17.0649,-17.2449,-17.3262,-17.3269,-17.3849,-17.3953,-17.3397,-17.1362,-17.0232,-16.946,-16.9192,-16.8866,-16.8827,-16.9644,-17.0169,-17.0092,-16.9938,-16.956,-16.968,-17.0052,-17.0697,-17.1518,-17.2672,-17.4202,-17.4179,-17.3654,-17.2347,-17.0805,-16.9554,-16.7844,-16.5059,-16.2298,-15.9579,-15.6964,-15.3414,-15.0861,-14.9065,-14.6774,-14.4942,-14.3599,-14.259,-14.1868,-14.1868,-14.1868,-14.1868,-14.1868,-14.1868,-14.1868,-14.1868,-14.1868,-14.1383,-0.4248,-0.9068,-0.9351,-0.9351,-0.9068,-0.8492,-0.8209,-0.7936,-0.7707,-0.7809,-0.8228,-0.9196,-0.9614,-0.9725,-0.9704,-1.0191,-1.1274,-1.1699,-1.1286,-1.2228,-1.5725,-1.8934,-1.9435,-2.0292,-2.0337,-1.9339,-1.9244,-1.951,-2.2871,-2.9692,-3.7783,-4.6673,-5.2399,-6.0065,-7.0442,-7.1122,-7.3809,-7.7142,-8.0433,-8.3738,-8.7439,-9.2302,-9.7233,-10.12,-11.1158,-11.6896,-12.2439,-13.1391,-13.8388,-14.1171,-14.5769,-14.9143,-15.0721,-15.3486,-15.6008,-15.8201,-16.1451,-16.4848,-16.7766,-16.7861,-16.8145,-16.8539,-16.9658,-17.043,-17.1784,-17.2756,-17.3303,-17.479,-17.514,-17.4535,-17.3209,-17.2119,-17.0962,-17.0185,-16.9645,-16.9414,-16.9409,-17.0069,-17.0613,-17.0271,-16.9983,-17.0066,-17.0135,-17.0527,-17.105,-17.1963,-17.2989,-17.4077,-17.42,-17.371,-17.2524,-17.0804,-16.9063,-16.7437,-16.4286,-16.1307,-15.8083,-15.5693,-15.1947,-14.938,-14.696,-14.5173,-14.3835,-14.253,-14.2109,-14.1868,-14.1868,-14.1868,-14.1868,-14.1868,-14.1868,-14.1868,-14.1868,-14.1868,-14.0836,-0.5098,-0.9351,-0.9922,-0.9916,-0.9634,-1.0476,-1.1041,-1.1041,-1.0205,-1.0348,-1.0293,-1.0022,-0.9853,-1.0006,-0.9968,-1.0455,-1.1286,-1.2243,-1.3352,-1.494,-1.7681,-1.9671,-2.1332,-2.2709,-2.2133,-2.1508,-2.2097,-2.3648,-2.6032,-3.0255,-3.7924,-4.6131,-5.225,-5.9635,-7.037,-7.1189,-7.2534,-7.6278,-7.8953,-8.1992,-8.5704,-9.0589,-9.4787,-10.0356,-10.8424,-11.6168,-12.0659,-12.9595,-13.7814,-14.0296,-14.5691,-14.8515,-14.9955,-15.3913,-15.6712,-15.9379,-16.2108,-16.5402,-16.7855,-16.9125,-16.977,-16.9222,-17.1123,-17.2342,-17.2468,-17.2401,-17.3808,-17.5097,-17.4592,-17.3976,-17.3341,-17.2226,-17.0628,-16.9903,-16.9549,-16.9725,-17.008,-17.0834,-17.188,-17.172,-17.0257,-17.0253,-17.0352,-17.0871,-17.126,-17.2258,-17.3079,-17.388,-17.4079,-17.3248,-17.2109,-16.9081,-16.6821,-16.439,-16.1486,-15.8938,-15.6336,-15.4254,-15.1321,-14.8547,-14.6295,-14.407,-14.2709,-14.229,-14.2109,-14.1868,-14.1868,-14.1868,-14.1868,-14.1868,-14.1868,-14.1868,-14.1868,-14.108,-14.0346,-0.5384,-0.9922,-1.0205,-1.0482,-1.0765,-1.1041,-1.1323,-1.1323,-1.1047,-1.1209,-1.1447,-1.1492,-1.133,-1.1223,-1.0938,-1.0866,-1.1057,-1.1958,-1.3716,-1.5751,-1.7817,-1.9778,-2.152,-2.247,-2.3084,-2.2746,-2.2934,-2.4658,-2.7794,-3.2804,-3.9181,-4.5886,-5.1776,-5.998,-6.9192,-7.108,-7.4113,-7.6637,-7.8635,-7.9469,-8.3189,-8.9455,-9.5184,-9.8681,-10.6442,-11.4042,-11.9081,-12.7874,-13.4217,-13.9979,-14.4521,-14.8356,-15.1235,-15.4081,-15.6853,-16.0099,-16.3862,-16.6064,-16.8011,-16.9627,-17.0143,-16.8708,-17.0986,-17.1635,-17.1859,-17.3698,-17.575,-17.7998,-17.7886,-17.6827,-17.4306,-17.3566,-17.1633,-16.9658,-16.9232,-17.0069,-17.0834,-17.1806,-17.2905,-17.2491,-17.0632,-17.0174,-17.0331,-17.0612,-17.0401,-17.1194,-17.1957,-17.2837,-17.2481,-17.1779,-17.0318,-16.7118,-16.4359,-16.1721,-15.8809,-15.6196,-15.3883,-15.1625,-14.8808,-14.6771,-14.4843,-14.3186,-14.277,-14.2109,-14.1868,-14.1868,-14.1868,-14.1868,-14.1868,-14.1868,-14.1868,-14.1626,-14.108,-14.0346,-13.9299,-0.6233,-0.9916,-1.0482,-1.1047,-1.1895,-1.2177,-1.2459,-1.2459,-1.1902,-1.2068,-1.2284,-1.2073,-1.2229,-1.2749,-1.2508,-1.2673,-1.281,-1.3359,-1.4838,-1.6675,-1.8397,-2.0383,-2.1892,-2.3084,-2.3686,-2.4248,-2.4468,-2.6273,-2.8781,-3.354,-3.971,-4.5959,-5.0885,-5.951,-6.8623,-7.1182,-7.4071,-7.7958,-7.9746,-8.0576,-8.1909,-8.7659,-9.4026,-9.9133,-10.6418,-11.2966,-11.8816,-12.557,-13.3101,-13.9028,-14.3895,-14.774,-15.1167,-15.4455,-15.7814,-16.1957,-16.4463,-16.6234,-16.8307,-16.962,-17.036,-16.9007,-17.1884,-17.3208,-17.3692,-17.495,-17.7087,-17.7854,-17.8059,-17.7493,-17.5085,-17.4025,-17.1967,-16.9658,-16.9942,-17.0896,-17.1659,-17.2841,-17.3848,-17.4427,-17.2095,-17.0672,-17.0595,-16.9895,-16.9618,-16.9989,-17.0761,-17.0832,-17.044,-16.938,-16.812,-16.5185,-16.2502,-15.9187,-15.5165,-15.2754,-15.0507,-14.8432,-14.6048,-14.4487,-14.3008,-14.253,-14.2109,-14.1868,-14.1868,-14.1868,-14.1868,-14.1868,-14.1868,-14.1868,-14.1626,-14.108,-14.0346,-13.9547,-13.83,-0.7927,-1.0765,-1.133,-1.1895,-1.2749,-1.3306,-1.3588,-1.3588,-1.2742,-1.2928,-1.2911,-1.2654,-1.3122,-1.3967,-1.3724,-1.3861,-1.4255,-1.4805,-1.5672,-1.7495,-1.9265,-2.0685,-2.2193,-2.3398,-2.4902,-2.6117,-2.6088,-2.6673,-2.9095,-3.3559,-3.9436,-4.5494,-5.0434,-5.8786,-6.7703,-7.0988,-7.3337,-7.8951,-8.0576,-8.1361,-8.2729,-8.7174,-9.2444,-9.9224,-10.6126,-11.2327,-11.7692,-12.5087,-13.2468,-13.8326,-14.3018,-14.7098,-15.0857,-15.4133,-15.8248,-16.2436,-16.468,-16.6297,-16.8234,-16.9552,-16.9994,-17.0435,-17.2868,-17.4718,-17.5369,-17.6817,-17.7561,-17.7374,-17.7208,-17.6597,-17.4877,-17.3572,-17.1697,-17.084,-17.0857,-17.1804,-17.2401,-17.3559,-17.4901,-17.361,-17.2509,-17.1266,-17.0245,-16.9371,-16.9136,-16.9488,-16.9449,-16.8761,-16.7997,-16.6881,-16.537,-16.2779,-16.0195,-15.6044,-15.2066,-15.0217,-14.7861,-14.5696,-14.4304,-14.3008,-14.253,-14.2109,-14.1868,-14.1868,-14.1868,-14.1868,-14.1868,-14.1868,-14.1868,-14.1626,-14.1139,-14.0591,-13.9605,-13.8551,-13.7291,-1.047,-1.3024,-1.2459,-1.2749,-1.3306,-1.3588,-1.3588,-1.3588,-1.3588,-1.35,-1.378,-1.3819,-1.4013,-1.4285,-1.3724,-1.3922,-1.4366,-1.4615,-1.5777,-1.7296,-1.9049,-2.0662,-2.2193,-2.3699,-2.4902,-2.5516,-2.6102,-2.6717,-2.9095,-3.2965,-3.9056,-4.4934,-4.9829,-5.8626,-6.7881,-7.067,-7.345,-7.9464,-8.1045,-8.1909,-8.3545,-8.7174,-9.235,-9.8832,-10.5456,-11.0754,-11.6962,-12.258,-12.9143,-13.6726,-14.1513,-14.6082,-15.0165,-15.3408,-15.6937,-16.0721,-16.4606,-16.6382,-16.7713,-16.9492,-17.0603,-16.9702,-17.2811,-17.4598,-17.5188,-17.6452,-17.7636,-17.7674,-17.7341,-17.6382,-17.482,-17.342,-17.2331,-17.2144,-17.1872,-17.2329,-17.3208,-17.4261,-17.3633,-17.1949,-17.1191,-17.0788,-16.968,-16.8763,-16.8641,-16.8535,-16.7678,-16.6757,-16.5505,-16.4171,-16.2034,-15.9526,-15.6832,-15.2898,-15.067,-14.8625,-14.5757,-14.3835,-14.3186,-14.229,-14.2109,-14.1868,-14.1868,-14.1868,-14.1868,-14.1868,-14.1868,-14.1868,-14.1626,-14.1139,-14.0591,-13.9853,-13.8859,-13.7544,-13.6329,-1.2452,-1.3588,-1.3306,-1.3306,-1.3588,-1.3588,-1.3588,-1.3588,-1.3588,-1.3787,-1.4064,-1.412,-1.4318,-1.462,-1.4636,-1.4842,-1.5294,-1.5847,-1.6749,-1.7988,-1.9961,-2.1288,-2.2193,-2.4,-2.5202,-2.6102,-2.7002,-2.7601,-2.9974,-3.4705,-3.9853,-4.5227,-5.0244,-5.8883,-6.7353,-6.9564,-7.3741,-7.9172,-8.1113,-8.3001,-8.5661,-8.9021,-9.3421,-9.8337,-10.3482,-10.9724,-11.6446,-12.1227,-12.8347,-13.6023,-14.1867,-14.5973,-14.9967,-15.411,-15.7994,-16.1581,-16.5049,-16.6514,-16.7181,-16.8567,-16.9314,-16.8418,-17.1474,-17.2961,-17.3999,-17.613,-17.774,-17.8295,-17.8106,-17.738,-17.6176,-17.4328,-17.3265,-17.3318,-17.2952,-17.2547,-17.2438,-17.3434,-17.3413,-17.2217,-17.0759,-16.9975,-16.9157,-16.8003,-16.7564,-16.642,-16.5669,-16.4295,-16.3181,-16.1425,-15.8991,-15.6825,-15.3653,-15.1243,-14.9376,-14.6938,-14.3895,-14.3008,-14.229,-14.2109,-14.1868,-14.1868,-14.1868,-14.1868,-14.1868,-14.1868,-14.1323,-14.1868,-14.1626,-14.0836,-13.9853,-13.9109,-13.8049,-13.684,-13.5557,-1.4434,-1.4152,-1.387,-1.387,-1.387,-1.3588,-1.3588,-1.3588,-1.3588,-1.3755,-1.4017,-1.4104,-1.4294,-1.4572,-1.521,-1.5773,-1.6243,-1.7066,-1.7979,-1.9201,-2.0907,-2.188,-2.2796,-2.4,-2.5502,-2.6417,-2.7601,-2.8498,-3.0554,-3.5296,-4.1319,-4.5738,-5.1309,-5.8599,-6.7174,-6.9757,-7.3093,-7.9189,-8.1453,-8.4002,-8.7483,-9.0589,-9.393,-9.7246,-10.1841,-10.8408,-11.5268,-12.0829,-12.7878,-13.6024,-14.1748,-14.5619,-14.9774,-15.4478,-15.8665,-16.2095,-16.4878,-16.6946,-16.748,-16.7617,-16.7629,-16.825,-17.0352,-17.1922,-17.2811,-17.5681,-17.7335,-17.8486,-17.8485,-17.7835,-17.6989,-17.5951,-17.4778,-17.4168,-17.3733,-17.2809,-17.1867,-17.2654,-17.321,-17.2294,-17.0739,-16.9609,-16.9349,-16.7367,-16.5512,-16.4419,-16.3289,-16.2052,-16.0385,-15.8775,-15.6753,-15.4857,-15.1938,-14.9313,-14.7612,-14.6092,-14.3659,-14.253,-14.2109,-14.1868,-14.1868,-14.1868,-14.1868,-14.1868,-14.1868,-14.1323,-14.0836,-14.0836,-14.0591,-13.9853,-13.9109,-13.7797,-13.6783,-13.5815,-13.4519,-1.6686,-1.6396,-1.527,-1.4707,-1.4426,-1.387,-1.3588,-1.3588,-1.3588,-1.3707,-1.3898,-1.4056,-1.4231,-1.4398,-1.4867,-1.5235,-1.6413,-1.6851,-1.7488,-1.908,-2.0651,-2.2495,-2.3097,-2.4301,-2.5202,-2.5802,-2.5802,-2.7301,-3.057,-3.4962,-4.1004,-4.6703,-5.1969,-5.9816,-6.765,-7.009,-7.3916,-7.9337,-8.1829,-8.4414,-8.8232,-9.1366,-9.439,-9.7445,-10.1329,-10.6685,-11.3638,-12.0778,-12.7438,-13.5556,-14.0399,-14.4882,-14.9357,-15.4186,-15.8097,-16.0828,-16.465,-16.7154,-16.7559,-16.7304,-16.7716,-16.8848,-16.9464,-17.0965,-17.3625,-17.5192,-17.6733,-17.8486,-17.7526,-17.7466,-17.703,-17.5112,-17.4702,-17.5412,-17.4263,-17.2977,-17.2233,-17.2725,-17.2649,-17.0653,-16.9649,-16.8738,-16.7721,-16.5898,-16.3522,-16.2959,-16.1779,-16.0562,-15.8942,-15.7004,-15.5059,-15.3039,-15.0178,-14.7326,-14.6259,-14.5173,-14.3895,-14.277,-14.253,-14.235,-14.235,-14.1868,-14.1868,-14.1626,-14.1323,-14.0836,-14.0041,-13.9547,-13.905,-13.83,-13.7855,-13.684,-13.5557,-13.504,-13.4258,-1.7239,-1.6686,-1.5842,-1.4998,-1.4707,-1.3862,-1.3588,-1.3588,-1.3588,-1.3683,-1.3866,-1.4041,-1.4207,-1.4075,-1.4548,-1.5243,-1.6154,-1.6679,-1.7584,-1.8871,-2.0383,-2.2495,-2.4,-2.4601,-2.5816,-2.6717,-2.7301,-2.8797,-3.1182,-3.6435,-4.2013,-4.7602,-5.2677,-6.0133,-6.8839,-7.0023,-7.3416,-7.9217,-8.174,-8.514,-9.0022,-9.214,-9.4944,-9.8728,-10.0971,-10.3518,-10.8704,-11.7847,-12.6292,-13.2882,-13.9302,-14.4753,-14.9402,-15.4107,-15.7758,-16.0426,-16.4125,-16.6544,-16.6725,-16.6436,-16.69,-16.8141,-16.8325,-16.9979,-17.2643,-17.4802,-17.6484,-17.8296,-17.8356,-17.8244,-17.81,-17.7131,-17.638,-17.6193,-17.4876,-17.358,-17.2999,-17.2762,-17.1925,-17.0595,-16.8978,-16.7861,-16.6276,-16.4508,-16.2793,-16.1504,-16.0275,-15.9193,-15.7707,-15.5454,-15.318,-15.1243,-14.8876,-14.7163,-14.5864,-14.5465,-14.4365,-14.3895,-14.3659,-14.3246,-14.277,-14.1868,-14.1868,-14.1626,-14.108,-14.0287,-13.9547,-13.8801,-13.8049,-13.7037,-13.684,-13.6073,-13.5557,-13.504,-13.4258,-1.78,-1.7249,-1.6124,-1.5561,-1.4989,-1.387,-1.3588,-1.3588,-1.3588,-1.366,-1.3794,-1.3969,-1.4128,-1.4302,-1.4469,-1.4891,-1.5842,-1.6751,-1.7973,-1.9174,-2.0081,-2.2193,-2.4,-2.4902,-2.5802,-2.7016,-2.79,-2.9394,-3.148,-3.7317,-4.308,-4.8147,-5.3689,-6.0665,-6.8075,-7.05,-7.3867,-7.9144,-8.1556,-8.5412,-9.0129,-9.221,-9.5496,-9.9269,-10.1504,-10.2991,-10.4515,-11.4211,-12.3006,-12.9574,-13.7712,-14.4768,-14.9326,-15.3763,-15.7593,-16.0611,-16.3883,-16.609,-16.6256,-16.6324,-16.6469,-16.7092,-16.75,-16.859,-17.0986,-17.3155,-17.5355,-17.7124,-17.8173,-17.8428,-17.848,-17.8053,-17.7379,-17.6277,-17.5063,-17.4078,-17.3474,-17.2695,-17.179,-17.0566,-16.8953,-16.7153,-16.5442,-16.3616,-16.2019,-16.0275,-15.9193,-15.8523,-15.7137,-15.5124,-15.2769,-15.0393,-14.8657,-14.7163,-14.6092,-14.5925,-14.5696,-14.5235,-14.4538,-14.3895,-14.277,-14.2109,-14.1868,-14.1626,-14.0836,-13.9547,-13.8801,-13.7797,-13.684,-13.5815,-13.5557,-13.504,-13.478,-13.478,-13.4053,-1.8081,-1.78,-1.6405,-1.5842,-1.5561,-1.4152,-1.3588,-1.3588,-1.3588,-1.3596,-1.3644,-1.3818,-1.3977,-1.4144,-1.4326,-1.4477,-1.4907,-1.6448,-1.767,-1.8579,-1.9778,-2.0987,-2.2495,-2.3699,-2.4902,-2.5802,-2.6702,-2.8199,-3.0587,-3.6729,-4.301,-4.8973,-5.4722,-6.1999,-6.8645,-7.153,-7.4084,-7.8477,-8.1745,-8.4886,-8.8183,-9.1835,-9.5447,-9.7692,-10.1212,-10.3229,-10.4825,-11.0838,-11.7577,-12.4419,-13.5661,-14.3829,-14.8839,-15.3393,-15.7263,-16.0267,-16.4252,-16.5789,-16.6544,-16.6512,-16.6926,-16.6226,-16.692,-16.8087,-16.8798,-17.0863,-17.2807,-17.4329,-17.5976,-17.6995,-17.7097,-17.7049,-17.6871,-17.6692,-17.4643,-17.3832,-17.3128,-17.2803,-17.1773,-17.0533,-16.9085,-16.7367,-16.5031,-16.3028,-16.133,-15.9737,-15.8336,-15.7773,-15.6627,-15.4925,-15.2626,-15.0883,-14.9376,-14.8057,-14.7,-14.6836,-14.7288,-14.661,-14.5465,-14.413,-14.277,-14.2109,-14.1868,-14.108,-14.0287,-13.8801,-13.7797,-13.6528,-13.5557,-13.504,-13.4576,-13.4053,-13.3791,-13.4053,-13.3527,-1.8081,-1.8092,-1.6968,-1.6405,-1.6405,-1.4989,-1.4426,-1.4144,-1.387,-1.3588,-1.362,-1.3771,-1.389,-1.4001,-1.4239,-1.4398,-1.4769,-1.6404,-1.7073,-1.7064,-1.8881,-2.0081,-2.0685,-2.2495,-2.4301,-2.5502,-2.6402,-2.7601,-2.9991,-3.5847,-4.1341,-4.6721,-5.3601,-6.0599,-6.6361,-7.016,-7.3873,-7.728,-8.0854,-8.4556,-8.8199,-9.1653,-9.4776,-9.817,-10.1144,-10.2939,-10.4538,-10.9338,-11.4773,-12.1376,-12.9808,-13.9778,-14.8329,-15.2378,-15.589,-15.8778,-16.1658,-16.3491,-16.3377,-16.4006,-16.4207,-16.5469,-16.5372,-16.5899,-16.8124,-17.0207,-17.1641,-17.259,-17.4192,-17.5694,-17.6382,-17.6332,-17.4919,-17.337,-17.1826,-17.1964,-17.4008,-17.3473,-17.181,-16.941,-16.7647,-16.6001,-16.4212,-16.2322,-16.0453,-15.9193,-15.7962,-15.6886,-15.6433,-15.4726,-15.3039,-15.1371,-15.0242,-14.9158,-14.812,-14.812,-14.8625,-14.7288,-14.5864,-14.4365,-14.277,-14.2109,-14.1868,-14.108,-13.9794,-13.8551,-13.6783,-13.5815,-13.478,-13.4258,-13.4053,-13.3791,-13.3791,-13.3791,-13.3264,-1.8081,-1.8081,-1.7249,-1.6958,-1.6686,-1.527,-1.4707,-1.4707,-1.387,-1.3588,-1.3604,-1.3715,-1.3802,-1.3914,-1.4152,-1.4318,-1.4672,-1.5996,-1.6404,-1.6457,-1.7973,-1.9174,-1.9778,-2.1892,-2.3398,-2.4601,-2.5802,-2.7002,-2.9378,-3.4391,-3.9616,-4.4739,-5.1885,-5.8853,-6.5413,-6.9555,-7.3578,-7.7086,-8.0255,-8.3238,-8.6595,-9.0365,-9.3414,-9.6535,-9.9827,-10.2131,-10.3709,-10.85,-11.3807,-11.9596,-12.5885,-13.4907,-14.6019,-15.1895,-15.5132,-15.7479,-16.0009,-16.1678,-16.2207,-16.2354,-16.3478,-16.5201,-16.5245,-16.5556,-16.7001,-16.8877,-16.9797,-16.9625,-17.1594,-17.2836,-17.3531,-17.3377,-17.2534,-17.0392,-16.9416,-17.0397,-17.2694,-17.257,-17.0719,-16.8057,-16.6879,-16.5412,-16.3693,-16.2829,-16.0817,-15.9027,-15.7773,-15.7012,-15.6433,-15.519,-15.3514,-15.2419,-15.1371,-15.052,-14.9657,-14.9284,-14.8404,-14.6382,-14.5465,-14.413,-14.277,-14.1868,-14.1868,-14.1383,-13.9605,-13.8049,-13.6329,-13.504,-13.4258,-13.3791,-13.3791,-13.3791,-13.3791,-13.3264,-13.2943,-1.8081,-1.8081,-1.7239,-1.6968,-1.6958,-1.5552,-1.4707,-1.4707,-1.4144,-1.3588,-1.3588,-1.3596,-1.3699,-1.385,-1.4025,-1.4199,-1.4599,-1.5252,-1.5661,-1.5816,-1.7339,-1.8549,-1.9476,-2.0987,-2.2495,-2.3398,-2.4601,-2.6402,-2.8184,-3.2301,-3.7549,-4.3875,-5.0162,-5.7686,-6.6981,-7.0006,-7.3818,-7.7448,-8.0545,-8.2081,-8.2598,-8.8386,-9.1664,-9.264,-9.7329,-10.0956,-10.2604,-10.7822,-11.3695,-11.9695,-12.4192,-13.2339,-14.4355,-15.1765,-15.56,-15.675,-15.9451,-16.198,-16.3415,-16.3491,-16.3906,-16.5605,-16.6284,-16.5448,-16.4825,-16.6061,-16.6611,-16.5897,-16.7655,-16.9134,-16.793,-16.8441,-16.9039,-16.8974,-16.8453,-16.9156,-17.0504,-17.0614,-16.9479,-16.7577,-16.6797,-16.6146,-16.3716,-16.27,-16.1783,-15.9094,-15.8083,-15.7584,-15.682,-15.5847,-15.4591,-15.3514,-15.2626,-15.1646,-15.0797,-14.9937,-14.7736,-14.5696,-14.4771,-14.3659,-14.229,-14.1868,-14.1868,-14.1626,-13.9853,-13.8049,-13.6585,-13.504,-13.4053,-13.3791,-13.3791,-13.3791,-13.3207,-13.2678,-13.2147,-1.8081,-1.8081,-1.78,-1.78,-1.753,-1.6677,-1.5842,-1.5279,-1.4707,-1.4144,-1.3588,-1.3588,-1.3612,-1.3691,-1.3858,-1.3969,-1.4025,-1.4445,-1.4591,-1.5045,-1.6552,-1.7526,-1.8246,-2.0081,-2.159,-2.2495,-2.3398,-2.4902,-2.7286,-3.1149,-3.5533,-4.0782,-4.8432,-5.5716,-6.2272,-6.8163,-7.2782,-7.6266,-7.9832,-8.2724,-8.5073,-8.9501,-9.2767,-9.4523,-9.9308,-10.2667,-10.3721,-10.7252,-11.2409,-11.9075,-12.3744,-13.1329,-14.2617,-15.0167,-15.4673,-15.6198,-15.7596,-15.9151,-16.0558,-16.0804,-16.1559,-16.3191,-16.3356,-16.3297,-16.3023,-16.4354,-16.4466,-16.3782,-16.5008,-16.6517,-16.6108,-16.4522,-16.4262,-16.63,-16.5152,-16.6173,-17.0981,-16.8753,-16.7707,-16.8,-16.618,-16.3991,-16.3041,-16.1892,-16.0884,-15.9872,-15.8336,-15.7773,-15.7584,-15.682,-15.5847,-15.4591,-15.3579,-15.2066,-15.0583,-14.7897,-14.5003,-14.413,-14.3186,-14.253,-14.1626,-14.1868,-14.1868,-14.1383,-14.0346,-13.8609,-13.6783,-13.504,-13.4258,-13.3791,-13.3527,-13.2678,-13.1824,-13.1557,-13.0156,-1.8081,-1.8081,-1.8081,-1.8081,-1.8081,-1.7239,-1.6686,-1.6124,-1.527,-1.4426,-1.4144,-1.387,-1.3588,-1.3596,-1.3992,-1.4073,-1.4146,-1.4259,-1.4445,-1.4946,-1.6154,-1.7169,-1.7651,-1.9476,-2.0987,-2.1892,-2.2796,-2.4301,-2.6402,-3.0256,-3.4095,-3.9032,-4.7577,-5.516,-6.1186,-6.7636,-7.2742,-7.6307,-8.0065,-8.2913,-8.5098,-9.0595,-9.4086,-9.5951,-10.0934,-10.3996,-10.459,-10.7747,-11.2461,-11.8413,-12.364,-13.0835,-14.0237,-14.6703,-15.147,-15.496,-15.5853,-15.7273,-15.9645,-15.9142,-15.9645,-16.2324,-16.2273,-16.1993,-16.2306,-16.3035,-16.3167,-16.2089,-16.2685,-16.3258,-16.3256,-16.1262,-16.0768,-16.3242,-16.2939,-16.4475,-16.8019,-16.7143,-16.5738,-16.7058,-16.5273,-16.26,-16.2873,-16.2245,-16.124,-16.0478,-15.9077,-15.8149,-15.7773,-15.6627,-15.5453,-15.4591,-15.2898,-15.0883,-14.9221,-14.5404,-14.2948,-14.229,-14.1808,-14.1139,-14.0895,-14.0895,-14.1139,-14.065,-13.9605,-13.8107,-13.7291,-13.55,-13.3471,-13.2943,-13.2091,-13.1289,-12.9613,-12.9341,-12.8246,-1.8081,-1.8081,-1.8081,-1.8081,-1.8081,-1.7249,-1.6968,-1.6686,-1.5552,-1.4707,-1.4707,-1.387,-1.3588,-1.387,-1.4442,-1.4535,-1.44,-1.4712,-1.5206,-1.5515,-1.6452,-1.716,-1.8266,-1.9778,-2.0987,-2.1892,-2.2796,-2.3699,-2.5502,-2.9378,-3.3208,-3.7569,-4.7006,-5.5408,-6.2814,-6.8801,-7.4037,-7.8212,-8.1494,-8.3549,-8.466,-9.1624,-9.5972,-9.6917,-10.1652,-10.4714,-10.5498,-10.9357,-11.3536,-11.7331,-12.3288,-13.0186,-13.8028,-14.2187,-14.7251,-15.2912,-15.4189,-15.6542,-16.0243,-15.8773,-15.8952,-16.2762,-16.2364,-16.1959,-16.185,-16.2023,-16.1572,-15.9966,-16.1008,-16.0879,-15.9417,-15.8928,-15.9385,-16.1206,-16.2405,-16.3524,-16.5497,-16.5201,-16.4666,-16.4645,-16.394,-16.3068,-16.2832,-16.383,-16.2245,-16.0502,-15.9193,-15.8269,-15.7203,-15.5388,-15.439,-15.3514,-15.1582,-14.872,-14.5802,-14.2888,-14.0895,-14.0159,-14.0405,-13.9971,-13.9971,-13.9912,-13.9912,-13.9664,-13.8609,-13.8107,-13.7291,-13.5758,-13.3415,-13.1824,-13.0751,-12.9341,-12.7419,-12.7141,-12.6027,-1.8081,-1.8081,-1.8081,-1.8081,-1.8081,-1.78,-1.752,-1.6686,-1.5842,-1.5279,-1.4707,-1.3862,-1.4434,-1.557,-1.5561,-1.5588,-1.5661,-1.5225,-1.5128,-1.5352,-1.6388,-1.7169,-1.8256,-1.9174,-2.0383,-2.1892,-2.2193,-2.3097,-2.4601,-2.7002,-3.1132,-3.7569,-4.4928,-5.3618,-6.2745,-6.8313,-7.3905,-8.0093,-8.2867,-8.5222,-8.7925,-9.5136,-9.9302,-9.9804,-10.4521,-10.7123,-10.6892,-10.8808,-11.2105,-11.6926,-12.2034,-12.9315,-13.8961,-14.2369,-14.6383,-15.1617,-15.268,-15.4566,-15.8243,-15.7663,-15.7739,-15.9173,-16.0053,-16.0302,-16.0437,-16.0442,-16.026,-15.9727,-15.9147,-15.9257,-15.9162,-15.8843,-16.012,-16.3424,-16.1802,-16.2364,-16.53,-16.3385,-16.2166,-16.2942,-16.2105,-16.1225,-16.0521,-16.0007,-15.9362,-15.7962,-15.7071,-15.6301,-15.5519,-15.4591,-15.3168,-15.2275,-14.9376,-14.6486,-14.4538,-14.1506,-13.9853,-13.9416,-13.9664,-13.9664,-13.9109,-13.9664,-13.9971,-13.9416,-13.8609,-13.7544,-13.647,-13.4088,-13.1501,-13.0211,-12.8849,-12.7419,-12.5185,-12.4903,-12.3822,-1.8081,-1.8081,-1.8081,-1.8081,-1.8081,-1.8081,-1.78,-1.7249,-1.6124,-1.5842,-1.5552,-1.4716,-1.4998,-1.6133,-1.6124,-1.618,-1.6265,-1.6092,-1.6006,-1.6573,-1.699,-1.771,-1.8438,-1.9122,-2.0327,-2.1749,-2.1844,-2.2796,-2.4301,-2.5202,-2.9346,-3.6983,-4.4928,-5.3588,-6.2779,-6.8725,-7.4793,-8.1176,-8.397,-8.702,-9.0687,-9.68,-10.0518,-10.1703,-10.5538,-10.7678,-10.8115,-10.9121,-11.201,-11.7131,-12.2656,-12.9464,-13.7692,-14.2141,-14.621,-15.0256,-15.1503,-15.3603,-15.7098,-15.6633,-15.6557,-15.733,-15.8771,-15.9303,-15.8666,-15.9131,-15.9389,-15.9211,-15.8629,-15.8589,-15.9514,-15.9833,-16.0921,-16.3179,-16.2052,-16.1545,-16.4357,-16.1783,-16.0157,-16.0438,-16.0106,-15.9463,-15.8924,-15.8016,-15.7451,-15.6879,-15.5912,-15.5322,-15.446,-15.3104,-15.171,-15.0305,-14.7163,-14.4477,-14.2888,-14.0836,-13.9109,-13.8609,-13.8859,-13.8918,-13.8609,-13.8918,-13.9167,-13.9167,-13.7855,-13.6528,-13.5128,-13.2775,-13.0641,-12.9014,-12.7419,-12.5185,-12.2965,-12.2391,-12.1866,-1.8081,-1.8081,-1.8081,-1.8081,-1.8081,-1.8081,-1.8102,-1.7842,-1.6415,-1.6396,-1.6928,-1.6096,-1.5815,-1.6105,-1.6677,-1.6784,-1.6369,-1.6998,-1.7513,-1.787,-1.7929,-1.8544,-1.9201,-1.9349,-2.025,-2.1618,-2.2049,-2.2734,-2.4248,-2.4274,-2.8122,-3.6023,-4.5787,-5.4821,-6.2577,-6.9441,-7.5581,-8.0972,-8.481,-8.882,-9.2755,-9.7219,-10.0611,-10.261,-10.5328,-10.7445,-10.9204,-11.0525,-11.3213,-11.7889,-12.4192,-13.0073,-13.5404,-14.1387,-14.6016,-14.8681,-15.0787,-15.3136,-15.6167,-15.547,-15.5256,-15.6774,-15.8329,-15.865,-15.7073,-15.7931,-15.8618,-15.8468,-15.8574,-15.8762,-15.9284,-16.0228,-16.1313,-16.2562,-16.1635,-16.1344,-16.1635,-16.0089,-15.8448,-15.7579,-15.7879,-15.8027,-15.7282,-15.7185,-15.6938,-15.6428,-15.5059,-15.4058,-15.3384,-15.1646,-15.0,-14.8404,-14.5634,-14.2888,-14.193,-13.9735,-13.8375,-13.8049,-13.7991,-13.7932,-13.7797,-13.7855,-13.7602,-13.7602,-13.6585,-13.4983,-13.3302,-13.1446,-12.9613,-12.7365,-12.5185,-12.2965,-12.1287,-12.0757,-12.0123,-1.8081,-1.8081,-1.8081,-1.8081,-1.8081,-1.8081,-1.8187,-1.8335,-1.7037,-1.6869,-1.7294,-1.671,-1.671,-1.7294,-1.7738,-1.7269,-1.6774,-1.693,-1.7145,-1.7681,-1.786,-1.8327,-1.937,-1.9863,-2.0782,-2.1785,-2.2263,-2.3093,-2.401,-2.4195,-2.6543,-3.2172,-4.3898,-5.3485,-5.9887,-6.8081,-7.4513,-7.9636,-8.4279,-8.9572,-9.4665,-9.798,-10.1574,-10.5218,-10.7155,-10.9151,-11.0855,-11.255,-11.5481,-11.9407,-12.437,-13.0268,-13.6731,-14.1003,-14.4541,-14.7276,-15.0215,-15.177,-15.1634,-15.2434,-15.3168,-15.3556,-15.5935,-15.7296,-15.6769,-15.6505,-15.6474,-15.6986,-15.7211,-15.7457,-15.8185,-15.8303,-15.912,-16.189,-16.0317,-15.9614,-16.0568,-15.8584,-15.649,-15.5641,-15.5429,-15.507,-15.4651,-15.4404,-15.446,-15.4325,-15.3374,-15.234,-15.1646,-15.0432,-14.8751,-14.7125,-14.5064,-14.3362,-14.235,-14.0187,-13.885,-13.8434,-13.7849,-13.7291,-13.7622,-13.684,-13.6329,-13.6073,-13.5242,-13.3359,-13.0854,-12.9014,-12.681,-12.4621,-12.2679,-12.1287,-12.0466,-12.0173,-11.8949,-1.8081,-1.8081,-1.8081,-1.8081,-1.8081,-1.8081,-1.8155,-1.825,-1.7479,-1.7253,-1.7606,-1.7038,-1.7038,-1.7616,-1.7838,-1.7655,-1.7397,-1.743,-1.7642,-1.8052,-1.8277,-1.8695,-1.9001,-1.9579,-2.0531,-2.1535,-2.2412,-2.3004,-2.3905,-2.4037,-2.6087,-3.0006,-3.848,-4.837,-5.8482,-6.755,-7.4729,-8.0211,-8.3122,-8.7371,-9.285,-9.5471,-9.86,-10.3047,-10.5395,-10.7429,-10.9123,-11.1079,-11.4147,-11.8066,-12.3201,-12.9113,-13.5657,-13.9649,-14.291,-14.5638,-14.7516,-14.8555,-14.8673,-15.0321,-15.1488,-15.2263,-15.4341,-15.4855,-15.2846,-15.4696,-15.5826,-15.5515,-15.7234,-15.8402,-15.8889,-15.9322,-16.0448,-16.2536,-16.0221,-15.8804,-15.8968,-15.6921,-15.4682,-15.3271,-15.263,-15.2225,-15.2242,-15.2152,-15.2188,-15.2898,-15.2612,-15.1774,-15.0647,-15.0064,-14.9002,-14.705,-14.5062,-14.339,-14.2219,-14.0193,-13.9227,-13.937,-13.8024,-13.7157,-13.7117,-13.6015,-13.504,-13.478,-13.3095,-13.091,-12.874,-12.6532,-12.4338,-12.2155,-12.1048,-12.0757,-12.0466,-11.9881,-11.8654,-1.8362,-1.8362,-1.8362,-1.8081,-1.8081,-1.8113,-1.8113,-1.8071,-1.7859,-1.7606,-1.7352,-1.7352,-1.7352,-1.7363,-1.7595,-1.7701,-1.7732,-1.8113,-1.8324,-1.8398,-1.8599,-1.862,-1.8504,-1.9531,-2.0212,-2.1131,-2.219,-2.3172,-2.3773,-2.38,-2.6151,-3.0198,-3.312,-4.2161,-5.6764,-6.6448,-7.427,-8.0603,-8.155,-8.4962,-9.1196,-9.3141,-9.6065,-10.0095,-10.3504,-10.5735,-10.6806,-10.98,-11.271,-11.5937,-12.1362,-12.698,-13.2618,-13.6447,-14.0091,-14.311,-14.3747,-14.4644,-14.6238,-14.7897,-14.9363,-15.0557,-15.2524,-15.1941,-14.8118,-15.2543,-15.5148,-15.4191,-15.7001,-15.9554,-16.0258,-16.0924,-16.1565,-16.2377,-16.0295,-15.8316,-15.7302,-15.5478,-15.3333,-15.0987,-14.9938,-14.9752,-14.9871,-15.023,-15.1067,-15.1968,-15.2419,-15.1985,-15.0925,-15.028,-14.9494,-14.7429,-14.5235,-14.3377,-14.1355,-13.9652,-13.8515,-13.9134,-13.7273,-13.5721,-13.6157,-13.4723,-13.3415,-13.3151,-13.1186,-12.8684,-12.6586,-12.4443,-12.2886,-12.0997,-12.0757,-12.0466,-12.0173,-11.9243,-11.8062,-1.9472,-1.9461,-1.9203,-1.8642,-1.8081,-1.8282,-1.8271,-1.8071,-1.7859,0.0,0.0,-1.7109,-1.7109,-1.713,-1.7083,-1.7197,-1.7468,-1.727,-1.7509,-1.8145,-1.8187,-1.8398,-1.8715,-1.9443,-2.033,-2.1108,-2.1806,-2.258,-2.3167,-2.3404,-2.6687,-3.1856,-3.3857,-3.9696,-4.996,-6.1458,-7.0101,-7.5685,-8.0247,-8.7409,-9.6749,-9.8521,-10.0755,-10.4388,-10.8131,-10.9713,-10.9158,-11.4886,-11.7395,-11.5879,-11.9356,-12.3275,-12.731,-12.9317,-13.2802,-13.8072,-13.9857,-14.0777,-14.1216,-14.2778,-14.3791,-14.3979,-14.8681,-14.9812,-14.5685,-14.87,-15.1441,-15.322,-15.4107,-15.6001,-15.9212,-15.7975,-15.7867,-16.07,-15.867,-15.676,-15.5918,-15.4118,-15.1876,-14.9827,-14.8603,-14.7811,-14.7339,-14.9006,-15.0616,-15.0938,-15.184,-15.2195,-15.1774,-15.1223,-15.0224,-14.7798,-14.618,-14.4195,-14.083,-13.7907,-13.6261,-13.5994,-13.3719,-13.2647,-13.3522,-13.2887,-13.1557,-13.0371,-12.9611,-12.7441,-12.4368,-12.3588,-12.3134,-12.091,-12.0466,-12.0466,-11.9537,-11.7766,-11.5926,-1.9962,-2.0146,-1.9985,-1.9472,0.0,-1.8762,-1.8901,-1.8822,-1.8032,-1.746,-1.6866,-1.6866,-1.6866,-1.6876,-1.6843,-1.6885,-1.7056,-1.702,-1.7249,-1.7743,-1.7859,-1.8049,-1.8271,-1.9394,-2.0301,-2.0716,-2.1856,-2.2711,-2.3008,-2.3153,-2.5398,-2.944,-3.1233,-3.6357,-4.4184,-5.2509,-6.2322,-7.3776,-7.9188,-8.6091,-9.4776,-9.6117,-9.8205,-10.1813,-10.6565,0.0,0.0,0.0,0.0,0.0,0.0,0.0,0.0,-12.7887,0.0,-13.0666,-12.7709,-12.623,-12.7201,-12.7834,-13.0423,-13.5399,-13.8285,-13.8279,-13.4497,-14.1443,-14.5453,-14.4405,-14.8678,-15.2759,-15.5903,-15.6107,-15.6706,-15.8203,-15.7168,-15.5735,-15.4441,-15.2625,-15.0567,-14.8495,-14.7507,-14.7029,-14.6964,-14.819,-14.9217,-15.0638,-15.1337,-15.1568,-15.1728,-15.0766,-14.9997,-14.9034,-14.6988,-14.3971,-14.0567,-13.7507,-13.5637,-13.5166,-13.3244,-13.2323,-13.2926,-13.0965,-12.9068,-12.8246,-12.6733,-12.541,-12.3121,-12.2567,-12.1953,-12.091,-12.0173,-11.9143,-11.6429,-11.5143,-11.4091,-2.0578,-2.0383,-2.0351,-2.0169,-1.9868,-1.951,-1.9481,-1.9846,-1.8574,-1.7585,-1.7397,-1.6934,-1.6697,-1.6707,-1.6625,-1.6614,-1.6718,-1.6822,-1.702,-1.7341,-1.7532,-1.7648,-1.7975,-1.9256,-2.0205,-2.0543,-2.1875,-2.2554,-2.2837,-2.289,-2.4164,-2.6609,-2.9516,-3.4038,-4.0237,0.0,0.0,0.0,-7.8417,-8.5117,-9.1977,-9.3308,-9.533,-9.8192,-10.4277,0.0,-10.8781,-11.5464,-12.0084,-12.1963,-12.5933,0.0,-13.2894,0.0,0.0,0.0,0.0,0.0,0.0,0.0,0.0,0.0,-12.4466,-12.3569,-12.3058,-13.2249,-13.6793,-13.3486,-14.2046,-14.8573,-15.0171,-15.2622,-15.4402,-15.4976,-15.454,-15.3578,-15.2125,-15.0663,-14.8864,-14.668,-14.5942,-14.597,-14.6638,-14.6902,-14.7677,-14.9878,-15.0315,-15.0346,-15.0959,-14.9639,-14.8674,-14.9163,-14.6421,-14.305,-13.9824,-13.6896,-13.4608,-13.4157,-13.2795,-13.1645,-13.0845,-12.8796,-12.7141,-12.6307,-12.4338,-12.2679,-12.1846,-12.098,-12.0059,-11.9565,-11.8881,-11.7216,-11.3615,-11.2718,-11.2501,-2.1369,-2.0883,-2.0616,-2.0458,-2.0421,-1.9687,-2.0343,-2.1559,-1.8749,-1.8193,-1.9412,-1.7621,-1.6697,-1.6697,-1.6728,-1.6718,-1.6697,-1.676,-1.6898,-1.7098,-1.7119,-1.7514,-1.8248,-1.8563,-1.9493,-2.0817,-2.1129,-2.1693,-2.2257,-2.2507,-2.4411,-2.7931,-3.1872,-3.5595,-3.9469,-4.7683,-5.6838,-6.6593,-7.8276,-8.7346,-9.3888,-9.6487,-9.8023,-9.8365,-10.5168,-10.8283,-10.694,-11.6871,-12.1071,-11.7993,-12.1643,-12.4579,-12.6262,-12.2938,-11.9997,0.0,-11.4042,0.0,0.0,0.0,0.0,0.0,0.0,0.0,0.0,-12.1525,-12.3365,-12.3937,-13.4746,-14.1306,-14.034,-14.3533,-14.6731,-14.9165,-14.8714,-14.8023,-14.7823,-14.7189,-14.5851,-14.3779,-14.3056,-14.303,-14.3905,-14.4759,-14.5734,-14.7547,-14.7919,-14.7699,-14.8481,-14.8095,-14.7227,-14.6368,-14.4886,-14.1758,-13.6973,-13.4016,-13.1897,-12.9487,-12.8808,-12.7812,-12.6784,-12.6665,-12.6253,-12.3717,-12.281,-12.1691,-11.9721,-11.8992,-11.8111,-11.6439,-11.5612,-11.465,-11.2333,-11.1897,-11.1837,-2.1304,-2.0806,-2.0835,-2.0484,-2.0137,-2.0943,-2.2504,-2.3859,-2.113,-2.0134,-2.0383,-1.8017,-1.6559,-1.6316,-1.6306,-1.6306,-1.6327,-1.6454,-1.6633,-1.6855,-1.7509,-1.7894,-1.8272,-1.9212,-2.0066,-2.0578,-2.1282,-2.163,-2.1901,-2.2033,-2.2754,-2.4324,-3.0572,-3.5583,-3.9809,-5.0339,-6.0191,-6.8989,-7.9141,-8.8013,-9.5349,-9.7507,-9.9031,-10.0055,-10.5773,-10.9811,-11.1692,-11.8749,-12.3126,-12.4088,-12.636,-12.7641,-12.7629,-11.8202,-11.3122,0.0,0.0,0.0,0.0,0.0,0.0,0.0,0.0,0.0,0.0,0.0,-11.2264,-11.6616,-12.9501,-13.6534,-13.4053,-13.6368,-13.8802,-14.0653,-13.8462,-13.8492,-14.2164,-14.129,-14.0332,-14.0505,-14.046,-14.1136,-14.294,-14.3767,-14.4889,-14.7161,-14.2465,-13.9056,-13.9119,-14.0504,-14.17,-14.1824,-14.1441,-13.9859,-13.6023,-13.1996,-12.8815,-12.7163,-12.607,-12.5323,-12.4782,-12.3517,-12.2447,-12.1097,-12.0248,-11.924,-11.7976,-11.7251,-11.6289,-11.4824,-11.3125,-11.1089,-10.9679,-10.9859,-11.0492,-2.1277,-2.0908,-2.0402,-2.0078,-2.0203,-2.1687,-2.3477,-2.5058,-2.266,-2.1501,-2.1331,-1.8904,-1.7118,-1.6465,-1.6047,-1.5864,-1.5851,-1.5841,-1.5907,-1.6784,-1.7485,-1.8094,-1.8366,-1.9602,-2.0152,-2.0288,-2.1018,-2.1426,-2.1492,-2.1492,-2.1202,-2.1442,-2.9793,-3.6762,-4.196,-5.3819,-6.4326,-7.3267,-8.109,-8.8609,-9.5848,-9.7525,-9.9451,-10.1813,-10.625,-11.0899,-11.5473,-12.0321,-12.4798,-12.8792,-12.8573,-12.7688,-12.6176,-11.2382,0.0,0.0,0.0,0.0,0.0,0.0,0.0,0.0,0.0,-9.6247,-8.3442,0.0,-10.3111,0.0,-12.3013,-13.0573,-12.892,-12.9464,0.0,0.0,-12.7757,-12.7507,-13.3039,-13.3208,-13.3594,-13.566,-13.6752,-13.8439,-14.0986,-14.09,-14.1656,-14.3987,-13.7294,-13.1937,-13.1629,-13.3933,-13.6059,-13.6405,-13.7226,-13.6839,-13.3948,-13.0149,-12.6943,-12.4817,-12.4188,-12.3221,-12.2146,-12.0282,-11.9261,-11.8702,-11.7705,-11.6655,-11.6089,-11.4984,-11.3878,-11.2425,-10.9782,-10.7498,-10.707,-10.8268,-10.953,-2.1102,-2.0396,-1.8704,-1.9439,-2.1395,-2.0797,-2.2033,-2.4226,-2.175,-2.1679,-2.3353,-2.0834,-1.922,-1.816,-1.6331,0.0,-1.5755,-1.4192,-1.4745,-1.6799,-1.7071,-1.758,-1.8813,-1.8838,-1.9462,-2.0464,-2.049,-2.0635,-2.0899,-2.0394,-2.0213,-2.1228,-3.1806,-4.0541,-4.7432,-5.8449,-6.894,-7.8654,-8.4935,-9.0054,-9.3896,-9.6366,-9.9428,-10.3098,-10.6303,-10.9931,-11.456,-12.1281,-12.5498,-12.6408,-12.2329,-11.8717,-11.5748,0.0,0.0,0.0,0.0,0.0,0.0,0.0,0.0,0.0,0.0,0.0,0.0,0.0,0.0,-10.2685,-11.3467,0.0,-12.49,-12.2604,0.0,0.0,0.0,-11.5913,-11.8135,-12.2308,-12.5806,-12.7742,0.0,0.0,-13.658,-13.4483,-13.3223,-13.4911,-13.4572,-13.367,-13.169,-13.2946,-13.3425,-13.0902,-13.2175,-13.2178,-12.9508,-12.8456,-12.6467,-12.1855,-12.2522,-12.1826,-11.7707,-11.7655,-11.8547,-11.7372,-11.6198,-11.5206,-11.3748,-11.2334,-11.025,-10.5637,-10.4986,-10.5054,-10.5089,-10.724,-10.9203,-2.0337,-2.0319,-1.8739,-1.9825,-2.2469,-2.171,-2.3047,-2.5963,-2.3355,-2.2305,-2.202,-1.9695,-1.7718,-1.5862,-1.4975,0.0,0.0,0.0,-1.4273,-1.6342,-1.7344,-1.8561,-1.991,-1.9716,-1.9872,-2.0385,-2.0398,-2.1305,-2.262,-2.2877,-2.2406,-2.1532,0.0,-3.6972,-4.4733,-5.8048,-6.9265,-7.8449,-8.6692,-9.2027,-9.4604,-9.7717,-10.1395,-10.5679,-10.7703,-11.1714,-11.7854,-12.1562,-12.259,-12.0354,-11.6199,-11.0144,0.0,0.0,0.0,0.0,0.0,0.0,0.0,0.0,0.0,0.0,0.0,-7.9835,-7.2747,0.0,0.0,0.0,-9.7896,-10.5005,-11.1342,-11.3538,0.0,0.0,0.0,0.0,0.0,0.0,0.0,-11.8767,-12.301,-12.7082,-13.0603,-12.7269,-12.5195,-12.7118,-12.5309,-12.3467,-12.2295,0.0,-12.6198,-12.6635,-12.7493,-12.7848,-12.6208,-12.3968,-12.1589,-11.8528,-11.7569,-11.6091,-11.4193,-11.3742,-11.3816,-11.2997,-11.182,-11.0969,-11.0418,-10.8409,-10.5821,-10.3185,-10.3507,-10.4575,-10.4622,-10.6585,-10.8315,-1.9384,0.0,0.0,0.0,0.0,-2.1396,-2.2758,-2.5012,-2.3168,-2.1643,-2.0242,-1.8469,0.0,0.0,0.0,0.0,0.0,0.0,-1.3733,-1.6254,-1.7723,-1.924,-2.1259,-2.0804,-2.0673,-2.0867,-2.0784,-2.1689,-2.3297,-2.423,-2.3962,-2.3232,0.0,0.0,0.0,0.0,-6.9569,-7.8041,-8.8383,-9.4876,-9.6897,-9.9589,-10.2842,-10.64,-10.8947,-11.3296,-11.9578,-11.9805,-11.8024,-11.3846,-10.6855,0.0,0.0,0.0,0.0,0.0,0.0,0.0,0.0,0.0,0.0,0.0,0.0,0.0,0.0,0.0,0.0,0.0,0.0,0.0,-10.0354,-10.5062,-10.5951,0.0,0.0,0.0,0.0,0.0,0.0,0.0,0.0,0.0,-12.1934,-11.9858,-11.949,0.0,0.0,-11.8003,-11.695,-11.8965,-12.0881,-12.1655,-12.2236,0.0,-12.1123,-11.8376,-11.6068,-11.5204,-11.2832,-11.0665,-10.9166,-10.8852,-10.8322,-10.7401,-10.7255,-10.6804,-10.5177,-10.2521,-10.0253,-9.9368,-10.041,-10.168,-10.2197,-10.4265,-10.6004,0.0,0.0,0.0,0.0,-2.0099,0.0,0.0,0.0,-2.0085,-1.9719,0.0,-1.8296,0.0,0.0,0.0,0.0,-1.3062,-1.1288,0.0,0.0,-1.7671,-1.9336,-2.1895,-2.2125,-2.2156,-2.2156,-2.1571,-2.1547,-2.1741,-2.3001,-2.4798,0.0,0.0,0.0,0.0,0.0,-7.0575,-7.8361,-9.0494,-9.8193,-10.0691,-10.1468,-10.2693,-10.4756,-10.9532,-11.4229,-11.8136,-11.5324,-11.1752,-10.7546,-9.3371,0.0,0.0,0.0,0.0,0.0,0.0,0.0,0.0,0.0,0.0,0.0,0.0,0.0,0.0,0.0,0.0,0.0,0.0,0.0,0.0,-9.7712,0.0,0.0,0.0,0.0,0.0,0.0,0.0,0.0,0.0,-11.0771,-10.9596,-11.2816,-11.7169,-12.1574,0.0,0.0,0.0,0.0,-11.951,-11.6243,-11.5621,-11.5053,-11.3322,-11.2682,-11.2324,-11.1653,0.0,0.0,-10.1403,-10.248,-10.2991,-10.0472,-10.2683,-10.3405,-9.7575,-9.4043,-9.2433,-9.2942,-9.3787,-9.4788,-9.598,-9.9173,-10.1937,0.0,0.0,0.0,0.0,0.0,0.0,0.0,0.0,0.0,-1.9271,-1.7995,-1.7675,0.0,0.0,0.0,0.0,0.0,0.0,0.0,0.0,-1.6629,-1.8075,-1.9506,-2.0585,-2.0872,-2.0211,-1.9836,-2.0137,0.0,0.0,0.0,0.0,0.0,0.0,0.0,0.0,-6.8687,-7.5544,-8.9124,-9.7512,-9.977,-10.265,-10.4532,-10.477,-10.9547,-11.1088,-10.9019,-10.8064,-10.4365,0.0,0.0,0.0,0.0,0.0,0.0,0.0,0.0,0.0,0.0,0.0,0.0,0.0,0.0,0.0,0.0,0.0,0.0,0.0,0.0,0.0,0.0,0.0,-9.6815,0.0,0.0,0.0,0.0,0.0,0.0,0.0,0.0,0.0,-9.9524,-10.5262,-11.1578,-11.764,-11.9064,-11.9154,-11.7873,0.0,0.0,0.0,0.0,0.0,0.0,0.0,-10.5898,-10.3752,-9.8702,-9.4807,-9.3893,-9.5671,-9.6706,-9.5428,0.0,0.0,-8.5684,-8.3632,-8.3753,-8.5526,-8.6782,-8.8259,-8.9355,-9.1786,-9.3232,0.0,0.0,0.0,0.0,0.0,0.0,0.0,0.0,0.0,-1.8261,-1.7227,0.0,0.0,0.0,0.0,0.0,0.0,0.0,0.0,0.0,0.0,0.0,-1.84,-1.9626,0.0,0.0,0.0,0.0,0.0,0.0,0.0,0.0,0.0,0.0,0.0,0.0,-6.7997,-7.3874,-8.8545,-9.7444,-9.9772,-10.2743,-10.4657,-10.5766,-10.9062,-10.8165,-10.239,0.0,0.0,0.0,-7.4423,0.0,0.0,0.0,0.0,0.0,0.0,0.0,0.0,0.0,0.0,0.0,0.0,0.0,0.0,0.0,0.0,0.0,0.0,0.0,0.0,0.0,-9.0555,0.0,0.0,0.0,0.0,0.0,0.0,0.0,0.0,0.0,0.0,-9.794,-10.5092,-11.3526,-11.6778,-11.7935,-11.7007,-11.84,-11.8501,0.0,0.0,0.0,0.0,0.0,0.0,0.0,0.0,0.0,0.0,0.0,0.0,0.0,-8.7463,-8.5932,-7.678,-7.5601,-7.6311,-7.7891,0.0,0.0,0.0,0.0,0.0,0.0,0.0,0.0,0.0,0.0,0.0,0.0,0.0,0.0,0.0,-1.6856,0.0,0.0,-1.3517,0.0,0.0,0.0,0.0,0.0,0.0,0.0,0.0,0.0,0.0,0.0,0.0,0.0,0.0,0.0,0.0,0.0,0.0,0.0,0.0,0.0,0.0,-6.8425,-7.3161,-8.8752,-9.831,-10.1378,-10.1284,-10.3076,-10.7075,-10.8334,-10.5795,-9.9012,0.0,0.0,0.0,0.0,0.0,0.0,0.0,0.0,0.0,0.0,0.0,0.0,0.0,0.0,0.0,0.0,0.0,0.0,0.0,0.0,0.0,0.0,0.0,0.0,0.0,0.0,-8.1213,-8.4146,-8.5641,0.0,0.0,0.0,0.0,0.0,0.0,0.0,0.0,0.0,-10.9264,-11.4994,-11.7619,-11.6481,-11.8072,-11.7746,-11.2581,-10.9788,-10.7458,-10.6395,-10.3089,-9.8833,0.0,0.0,0.0,0.0,0.0,0.0,0.0,0.0,0.0,0.0,0.0,0.0,0.0,0.0,0.0,0.0,0.0,0.0,0.0,0.0,0.0,0.0,0.0,0.0,0.0,0.0,0.0,0.0,-1.8586,-1.6892,0.0,0.0,0.0,0.0,0.0,0.0,0.0,0.0,0.0,0.0,0.0,0.0,0.0,0.0,0.0,0.0,0.0,0.0,0.0,0.0,0.0,0.0,0.0,0.0,-6.7647,-7.304,-8.947,-9.8794,-10.062,-10.1789,-10.3221,-10.493,-10.5726,-10.2779,-9.586,0.0,0.0,0.0,0.0,0.0,0.0,0.0,0.0,0.0,0.0,0.0,0.0,0.0,0.0,0.0,0.0,0.0,0.0,0.0,0.0,0.0,0.0,0.0,0.0,0.0,0.0,0.0,-8.8282,-8.7712,-8.2934,0.0,0.0,0.0,0.0,0.0,0.0,0.0,0.0,0.0,0.0,-11.5474,-11.7071,-11.8053,-11.7221,-11.3695,-11.0894,-10.8115,-10.5648,-10.2169,-9.7454,-9.0747,0.0,0.0,0.0,0.0,0.0,0.0,0.0,0.0,0.0,0.0,0.0,0.0,0.0,0.0,0.0,0.0,0.0,0.0,0.0,0.0,0.0,0.0,0.0,0.0,0.0,-2.0179,-1.9924,-1.9838,-1.8614,0.0,0.0,0.0,0.0,0.0,0.0,0.0,0.0,0.0,0.0,0.0,0.0,0.0,0.0,0.0,0.0,0.0,0.0,0.0,0.0,0.0,0.0,0.0,0.0,-6.7385,-7.2807,-8.9385,-9.8683,-9.991,-10.1509,-10.2885,-10.3864,-10.4292,-9.9994,0.0,0.0,0.0,0.0,0.0,0.0,0.0,0.0,0.0,0.0,0.0,0.0,0.0,0.0,0.0,0.0,0.0,0.0,0.0,0.0,0.0,0.0,0.0,0.0,0.0,0.0,0.0,0.0,-8.1637,-8.2344,-7.9173,0.0,0.0,0.0,0.0,0.0,0.0,0.0,0.0,0.0,0.0,-11.2254,-11.3825,-11.5219,0.0,0.0,-10.9075,-10.5916,-10.4561,-10.1439,-9.5886,-8.6842,-8.2106,0.0,0.0,0.0,0.0,0.0,0.0,0.0,0.0,0.0,0.0,0.0,0.0,0.0,0.0,0.0,0.0,0.0,0.0,0.0,0.0,0.0,0.0,0.0,0.0,0.0,0.0,-2.0824,-2.0129,0.0,0.0,0.0,0.0,0.0,0.0,0.0,0.0,0.0,0.0,0.0,0.0,0.0,0.0,0.0,0.0,0.0,0.0,0.0,0.0,0.0,0.0,0.0,0.0,-6.7543,-7.2575,-8.8851,-9.8194,-9.9432,-10.0837,-10.2089,-10.348,-10.366,-9.7384,0.0,0.0,0.0,0.0,0.0,0.0,0.0,0.0,0.0,0.0,0.0,0.0,0.0,0.0,0.0,0.0,0.0,0.0,0.0,0.0,0.0,0.0,0.0,0.0,0.0,0.0,0.0,0.0,0.0,0.0,0.0,0.0,0.0,0.0,0.0,0.0,0.0,0.0,0.0,0.0,0.0,-10.8286,-10.8167,-11.0243,-11.1599,0.0,-10.5049,-10.1321,-10.2102,-9.9683,-9.373,-8.1992,0.0,0.0,0.0,0.0,0.0,0.0,0.0,0.0,0.0,0.0,0.0,0.0,0.0,0.0,0.0,0.0,0.0,0.0,0.0,0.0,0.0,0.0,0.0,0.0,0.0,0.0,0.0,0.0,0.0,0.0,0.0,0.0,0.0,0.0,0.0,0.0,0.0,0.0,0.0,0.0,0.0,0.0,0.0,0.0,0.0,0.0,0.0,0.0,0.0,0.0,0.0,0.0,0.0,0.0,-7.2773,-8.984,-9.8728,-9.9045,-10.0773,-10.1913,-10.2543,-10.1509,0.0,0.0,0.0,0.0,0.0,0.0,0.0,0.0,0.0,0.0,0.0,0.0,0.0,0.0,0.0,0.0,0.0,0.0,0.0,0.0,0.0,0.0,0.0,0.0,0.0,0.0,0.0,-5.8718,0.0,0.0,0.0,0.0,0.0,0.0,0.0,0.0,0.0,0.0,0.0,0.0,0.0,0.0,-10.5384,-10.849,-10.7228,-10.5829,0.0,0.0,-9.6773,-9.395,-9.3717,-9.0466,0.0,0.0,0.0,0.0,0.0,0.0,0.0,0.0,0.0,0.0,0.0,0.0,0.0,0.0,0.0,0.0,0.0,0.0,0.0,0.0,0.0,0.0,0.0,0.0,0.0,0.0,0.0,0.0,0.0,0.0,0.0,0.0,0.0,0.0,0.0,0.0,0.0,0.0,0.0,0.0,0.0,0.0,0.0,0.0,0.0,0.0,0.0,0.0,0.0,0.0,0.0,0.0,0.0,0.0,-6.5643,-7.2963,-8.6352,-9.5222,-9.9015,-10.0325,-10.1186,-10.166,-10.0063,-9.4538,0.0,0.0,0.0,0.0,0.0,0.0,0.0,0.0,0.0,0.0,0.0,0.0,0.0,0.0,0.0,0.0,0.0,0.0,0.0,0.0,0.0,0.0,0.0,0.0,0.0,0.0,0.0,0.0,0.0,0.0,0.0,0.0,0.0,0.0,0.0,0.0,0.0,0.0,0.0,0.0,0.0,0.0,-10.4511,-10.1486,0.0,0.0,0.0,-9.184,-9.0379,0.0,0.0,0.0,0.0,0.0,0.0,0.0,0.0,0.0,0.0,0.0,0.0,0.0,0.0,0.0,0.0,0.0,0.0,0.0,0.0,0.0,0.0,0.0,0.0,0.0,0.0,0.0,0.0,0.0,0.0,0.0,0.0,0.0,0.0,0.0,0.0,0.0,0.0,0.0,0.0,0.0,0.0,0.0,0.0,0.0,0.0,0.0,0.0,0.0,0.0,0.0,0.0,0.0,0.0,0.0,0.0,0.0,-7.2708,-8.1842,-9.0682,-9.8651,-9.9832,-10.023,-10.0819,-9.9365,-9.4168,0.0,0.0,0.0,0.0,0.0,0.0,0.0,0.0,0.0,0.0,0.0,0.0,0.0,0.0,0.0,0.0,0.0,0.0,0.0,0.0,0.0,0.0,0.0,0.0,0.0,0.0,0.0,0.0,0.0,0.0,0.0,0.0,0.0,0.0,0.0,0.0,0.0,0.0,0.0,0.0,0.0,-9.9375,-9.8775,-9.47,-9.2246,0.0,0.0,-8.6388,-8.8031,-8.6172,0.0,0.0,0.0,0.0,0.0,0.0,0.0,0.0,0.0,0.0,0.0,0.0,0.0,0.0,0.0,0.0,0.0,0.0,0.0,0.0,0.0,0.0,0.0,0.0,0.0,0.0,0.0,0.0,0.0,0.0,0.0,0.0,0.0,0.0,0.0,0.0,0.0,0.0,0.0,0.0,0.0,0.0,0.0,0.0,0.0,0.0,0.0,0.0,0.0,0.0,0.0,0.0,0.0,0.0,0.0,0.0,-7.267,-8.497,-9.337,-9.7235,-9.8857,-9.9827,-10.0138,-9.9756,-9.4916,0.0,0.0,0.0,0.0,0.0,0.0,0.0,0.0,0.0,0.0,0.0,0.0,0.0,0.0,0.0,0.0,0.0,0.0,0.0,0.0,0.0,0.0,0.0,0.0,0.0,0.0,0.0,0.0,0.0,0.0,0.0,0.0,0.0,0.0,0.0,0.0,0.0,0.0,0.0,0.0,0.0,-9.4286,-9.5846,-9.203,0.0,0.0,0.0,0.0,-7.8421,-7.6904,0.0,0.0,0.0,0.0,0.0,0.0,0.0,0.0,0.0,0.0,0.0,0.0,0.0,0.0,0.0,0.0,0.0,0.0,0.0,0.0,0.0,0.0,0.0,0.0,0.0,0.0,0.0,0.0,0.0,0.0,0.0,0.0,0.0,0.0,0.0,0.0,0.0,0.0,0.0,0.0,0.0,0.0,0.0,0.0,0.0,0.0,0.0,0.0,0.0,0.0,0.0,0.0,0.0,0.0,0.0,0.0,-7.5331,-8.2547,-8.9395,-9.6323,-9.7613,-9.8506,-9.8988,-9.7921,-9.3069,0.0,0.0,0.0,0.0,0.0,0.0,0.0,0.0,0.0,0.0,0.0,0.0,0.0,0.0,0.0,0.0,0.0,0.0,0.0,0.0,0.0,0.0,0.0,0.0,0.0,0.0,0.0,0.0,0.0,0.0,0.0,0.0,0.0,0.0,0.0,0.0,0.0,0.0,0.0,0.0,-8.7116,-8.8413,-9.1275,0.0,0.0,0.0,0.0,0.0,0.0,-7.1313,-6.8103,0.0,0.0,0.0,0.0,0.0,0.0,0.0,0.0,0.0,0.0,0.0,0.0,0.0,0.0,0.0,0.0,0.0,0.0,0.0,0.0,0.0,0.0,0.0,0.0,0.0,0.0,0.0,0.0,0.0,0.0,0.0,0.0,0.0,0.0,0.0,0.0,0.0,0.0,0.0,0.0,0.0,0.0,0.0,0.0,0.0,0.0,0.0,0.0,0.0,0.0,0.0,0.0,0.0,0.0,0.0,-7.709,-7.863,-8.4552,-9.529,-9.6246,-9.6984,-9.7609,-9.5944,-9.1045,-8.2857,0.0,0.0,0.0,0.0,0.0,0.0,0.0,0.0,0.0,0.0,0.0,0.0,0.0,0.0,0.0,0.0,0.0,0.0,0.0,0.0,0.0,0.0,0.0,0.0,0.0,0.0,0.0,0.0,0.0,0.0,0.0,0.0,0.0,0.0,0.0,0.0,0.0,0.0,0.0,-8.1716,-8.2522,0.0,0.0,0.0,0.0,0.0,0.0,0.0,0.0,-6.3507,0.0,0.0,0.0,0.0,0.0,0.0,0.0,0.0,0.0,0.0,0.0,0.0,0.0,0.0,0.0,0.0,0.0,0.0,0.0,0.0,0.0,0.0,0.0,0.0,0.0,0.0,0.0,0.0,0.0,0.0,0.0,0.0,0.0,0.0,0.0,0.0,0.0,0.0,0.0,0.0,0.0,0.0,0.0,0.0,0.0,0.0,0.0,0.0,0.0,0.0,0.0,0.0,0.0,0.0,0.0,0.0,-7.7852,-8.5502,-9.2056,-9.4889,-9.6128,-9.5714,-9.6158,-9.1731,-8.1739,0.0,0.0,0.0,0.0,0.0,0.0,0.0,0.0,0.0,0.0,0.0,0.0,0.0,0.0,0.0,0.0,0.0,0.0,0.0,0.0,0.0,0.0,0.0,0.0,0.0,0.0,0.0,0.0,0.0,0.0,0.0,0.0,0.0,0.0,0.0,0.0,0.0,0.0,-6.8738,-7.3072,0.0,0.0,0.0,0.0,0.0,0.0,0.0,0.0,-6.3066,0.0,0.0,0.0,0.0,0.0,0.0,0.0,0.0,0.0,0.0,0.0,0.0,0.0,0.0,0.0,0.0,0.0,0.0,0.0,0.0,0.0,0.0,0.0,0.0,0.0,0.0,0.0,0.0,0.0,0.0,0.0,0.0,0.0,0.0,0.0,0.0,0.0,0.0,0.0,0.0,0.0,0.0,0.0,0.0,0.0,0.0,0.0,0.0,0.0,0.0,0.0,0.0,0.0,0.0,0.0,0.0,0.0,0.0,-8.3858,-9.061,-9.427,-9.6224,-9.6313,-9.2753,-8.7541,0.0,0.0,0.0,0.0,0.0,0.0,0.0,0.0,0.0,0.0,0.0,0.0,0.0,0.0,0.0,0.0,0.0,0.0,0.0,0.0,0.0,0.0,0.0,0.0,0.0,0.0,0.0,0.0,0.0,0.0,0.0,0.0,0.0,0.0,0.0,0.0,0.0,0.0,0.0,0.0,0.0,0.0,0.0,0.0,0.0,0.0,0.0,0.0,0.0,0.0,0.0,0.0,0.0,0.0,0.0,0.0,0.0,0.0,0.0,0.0,0.0,0.0,0.0,0.0,0.0,0.0,0.0,0.0,0.0,0.0,0.0,0.0,0.0,0.0,0.0,0.0,0.0,0.0,0.0,0.0,0.0,0.0,0.0,0.0,0.0,0.0,0.0,0.0,0.0,0.0,0.0,0.0,0.0,0.0,0.0,0.0,0.0,0.0,0.0,0.0,0.0,0.0,0.0,0.0,0.0,0.0,0.0,0.0,-8.2529,-8.9763,-9.4026,-9.6698,-9.718,-8.9649,-8.3321,0.0,0.0,0.0,0.0,0.0,0.0,0.0,0.0,0.0,0.0,0.0,0.0,0.0,0.0,0.0,0.0,0.0,0.0,0.0,0.0,0.0,0.0,0.0,0.0,0.0,0.0,0.0,0.0,0.0,0.0,0.0,0.0,0.0,0.0,0.0,0.0,0.0,0.0,0.0,0.0,0.0,0.0,0.0,0.0,0.0,0.0,0.0,0.0,-5.7288,0.0,0.0,0.0,0.0,0.0,0.0,0.0,0.0,0.0,0.0,0.0,0.0,0.0,0.0,0.0,0.0,0.0,0.0,0.0,0.0,0.0,0.0,0.0,0.0,0.0,0.0,0.0,0.0,0.0,0.0,0.0,0.0,0.0,0.0,0.0,0.0,0.0,0.0,0.0,0.0,0.0,0.0,0.0,0.0,0.0,0.0,0.0,0.0,0.0,0.0,0.0,0.0,0.0,0.0,0.0,0.0,0.0,0.0,0.0,-8.3643,-8.9305,-9.4622,-9.7045,-9.6705,-8.9668,-8.2368,0.0,0.0,0.0,0.0,0.0,0.0,0.0,0.0,0.0,0.0,0.0,0.0,0.0,0.0,0.0,0.0,0.0,0.0,0.0,0.0,0.0,0.0,0.0,0.0,0.0,0.0,0.0,0.0,0.0,0.0,0.0,0.0,0.0,0.0,0.0,0.0,0.0,0.0,0.0,0.0,0.0,0.0,0.0,0.0,0.0,0.0,0.0,0.0,0.0,0.0,0.0,0.0,0.0,0.0,0.0,0.0,0.0,0.0,0.0,0.0,0.0,0.0,0.0,0.0,0.0,0.0,0.0,0.0,0.0,0.0,0.0,0.0,0.0,0.0,0.0,0.0,0.0,0.0,0.0,0.0,0.0,0.0,0.0,0.0,0.0,0.0,0.0,0.0,0.0,0.0,0.0,0.0,0.0,0.0,0.0,0.0,0.0,0.0,0.0,0.0,0.0,0.0,0.0,0.0,0.0,0.0,0.0,0.0,-7.8166,-8.4979,-9.1494,-9.4116,-9.2356,-8.2616,-7.6238,0.0,0.0,0.0,0.0,0.0,0.0,0.0,0.0,0.0,0.0,0.0,0.0,0.0,0.0,0.0,0.0,0.0,0.0,0.0,0.0,0.0,0.0,0.0,0.0,0.0,0.0,0.0,0.0,0.0,0.0,0.0,0.0,0.0,0.0,0.0,0.0,0.0,0.0,0.0,0.0,0.0,0.0,0.0,0.0,0.0,0.0,0.0,0.0,0.0,0.0,0.0,0.0,0.0,0.0,0.0,0.0,0.0,0.0,0.0,0.0,0.0,0.0,0.0,0.0,0.0,0.0,0.0,0.0,0.0,0.0,0.0,0.0,0.0,0.0,0.0,0.0,0.0,0.0,0.0,0.0,0.0,0.0,0.0,0.0,0.0,0.0,0.0,0.0,0.0,0.0,0.0,0.0,0.0,0.0,0.0,0.0,0.0,0.0,0.0,0.0,0.0,0.0,0.0,0.0,0.0,0.0,0.0,0.0,0.0,-8.0374,-8.7225,-8.9163,-8.551,-7.6532,-7.1361,0.0,0.0,0.0,0.0,0.0,0.0,0.0,0.0,0.0,0.0,0.0,0.0,0.0,0.0,0.0,0.0,0.0,0.0,0.0,0.0,0.0,0.0,0.0,0.0,0.0,0.0,0.0,0.0,0.0,0.0,0.0,0.0,0.0,0.0,0.0,0.0,0.0,0.0,0.0,0.0,0.0,0.0,0.0,0.0,0.0,0.0,0.0,0.0,0.0,0.0,0.0,0.0,0.0,0.0,0.0,0.0,0.0,0.0,0.0,0.0,0.0,0.0,0.0,0.0,0.0,0.0,0.0,0.0,0.0,0.0,0.0,0.0,0.0,0.0,0.0,0.0,0.0,0.0,0.0,0.0,0.0,0.0,0.0,0.0,0.0,0.0,0.0,0.0,0.0,0.0,0.0,0.0,0.0,0.0,0.0,0.0,0.0,0.0,0.0,0.0,0.0,0.0,0.0,0.0,0.0,0.0,0.0,0.0,0.0,-7.6803,-8.2084,-8.2098,-7.6745,-7.4147,-6.9569,0.0,0.0,0.0,0.0,0.0,0.0,0.0,0.0,0.0,0.0,0.0,0.0,0.0,0.0,0.0,0.0,0.0,0.0,0.0,0.0,0.0,0.0,0.0,0.0,0.0,0.0,0.0,0.0,0.0,0.0,0.0,0.0,0.0,0.0,0.0,0.0,0.0,0.0,0.0,0.0,0.0,0.0,0.0,0.0,0.0,0.0,0.0,0.0,0.0,0.0,0.0,0.0,0.0,0.0,0.0,0.0,0.0,0.0,0.0,0.0,0.0,0.0,0.0,0.0,0.0,0.0,0.0,0.0,0.0,0.0,0.0,0.0,0.0,0.0,0.0,0.0,0.0,0.0,0.0,0.0,0.0,0.0,0.0,0.0,0.0,0.0,0.0,0.0,0.0,0.0,0.0,0.0,0.0,0.0,0.0,0.0,0.0,0.0,0.0,0.0,0.0,0.0,0.0,0.0,0.0,0.0,0.0,0.0,0.0,-6.31,-6.6891,-7.0124,-7.219,-6.5907,-6.3501,-6.573,0.0,0.0,0.0,0.0,0.0,0.0,0.0,0.0,0.0,0.0,0.0,0.0,0.0,0.0,0.0,0.0,0.0,0.0,0.0,0.0,0.0,0.0,0.0,0.0,0.0,0.0,0.0,0.0,0.0,0.0,0.0,0.0,0.0,0.0,0.0,0.0,0.0,0.0,0.0,0.0,0.0,0.0,0.0,0.0,0.0,0.0,0.0,0.0,0.0,0.0,0.0,0.0,0.0,0.0,0.0,0.0,0.0,0.0,0.0,0.0,0.0,0.0,0.0,0.0,0.0,0.0,0.0,0.0,0.0,0.0,0.0,0.0,0.0,0.0,0.0,0.0,0.0,0.0,0.0,0.0,0.0,0.0,0.0,0.0,0.0,0.0,0.0,0.0,0.0,0.0,0.0,0.0,0.0,0.0,0.0,0.0,0.0,0.0,0.0,0.0,0.0,0.0,0.0,0.0,0.0,0.0,0.0,0.0,-5.5968,-6.0744,-6.4726,-6.7376,-6.2126,-6.0511,0.0,0.0,0.0,0.0,0.0,0.0,0.0,0.0,0.0,0.0,0.0,0.0,0.0,0.0,0.0,0.0,0.0,0.0,0.0,0.0,0.0,0.0,0.0,0.0,0.0,0.0,0.0,0.0,0.0,0.0,0.0,0.0,0.0,0.0,0.0,0.0,0.0,0.0,0.0,0.0,0.0,0.0,0.0,0.0,0.0,0.0,0.0,0.0,0.0,0.0,0.0,0.0,0.0,0.0,0.0,0.0,0.0,0.0,0.0,0.0,0.0,0.0,0.0,0.0,0.0,0.0,0.0,0.0,0.0,0.0,0.0,0.0,0.0,0.0,0.0,0.0,0.0,0.0,0.0,0.0,0.0,0.0,0.0,0.0,0.0,0.0,0.0,0.0,0.0,0.0,0.0,0.0,0.0,0.0,0.0,0.0,0.0,0.0,0.0,0.0,0.0,0.0,0.0,0.0,0.0,0.0,0.0,0.0,-4.9829,-5.8295,-6.5839,-6.7278,-6.2853,-6.4059,-6.1115,0.0,0.0,0.0,0.0,0.0,0.0,0.0,0.0,0.0,0.0,0.0,0.0,0.0,0.0,0.0,0.0,0.0,0.0,0.0,0.0,0.0,0.0,0.0,0.0,0.0,0.0,0.0,0.0,0.0,0.0,0.0,0.0,0.0,0.0,0.0,0.0,0.0,0.0,0.0,0.0,0.0,0.0,0.0,0.0,0.0,0.0,0.0,0.0,0.0,0.0,0.0,0.0,0.0,0.0,0.0,0.0,0.0,0.0,0.0,0.0,0.0,0.0,0.0,0.0,0.0,0.0,0.0,0.0,0.0,0.0,0.0,0.0,0.0,0.0,0.0,0.0,0.0,0.0,0.0,0.0,0.0,0.0,0.0,0.0,0.0,0.0,0.0,0.0,0.0,0.0,0.0,0.0,0.0,0.0,0.0,0.0,0.0,0.0,0.0,0.0,0.0,0.0,0.0,0.0,0.0,0.0,0.0,0.0,0.0,-5.1488,-5.5837,-6.112,-6.6861,-6.088,-5.8759,0.0,0.0,0.0,0.0,0.0,0.0,0.0,0.0,0.0,0.0,0.0,0.0,0.0,0.0,0.0,0.0,0.0,0.0,0.0,0.0,0.0,0.0,0.0,0.0,0.0,0.0,0.0,0.0,0.0,0.0,0.0,0.0,0.0,0.0,0.0,0.0,0.0,0.0,0.0,0.0,0.0,0.0,0.0,0.0,0.0,0.0,0.0,0.0,0.0,0.0,0.0,0.0,0.0,0.0,0.0,0.0,0.0,0.0,0.0,0.0,0.0,0.0,0.0,0.0,0.0,0.0,0.0,0.0,0.0,0.0,0.0,0.0,0.0,0.0,0.0,0.0,0.0,0.0,0.0,0.0,0.0,0.0,0.0,0.0,0.0,0.0,0.0,0.0,0.0,0.0,0.0,0.0,0.0,0.0,0.0,0.0,0.0,0.0,0.0,0.0,0.0,0.0,0.0,0.0,0.0,0.0,0.0,0.0,0.0,-5.2016,-5.2645,-5.7254,-6.5902,-6.031,-5.8908,0.0,0.0,0.0,0.0,0.0,0.0,0.0,0.0,0.0,0.0,0.0,0.0,0.0,0.0,0.0,0.0,0.0,0.0,0.0,0.0,0.0,0.0,0.0,0.0,0.0,0.0,0.0,0.0,0.0,0.0,0.0,0.0,0.0,0.0,0.0,0.0,0.0,0.0,0.0,0.0,0.0,0.0,0.0,0.0,0.0,0.0,0.0,0.0,0.0,0.0,0.0,0.0,0.0,0.0,0.0,0.0,0.0,0.0,0.0,0.0,0.0,0.0,0.0,0.0,0.0,0.0,0.0,0.0,0.0,0.0,0.0,0.0,0.0,0.0,0.0,0.0,0.0,0.0,0.0,0.0,0.0,0.0,0.0,0.0,0.0,0.0,0.0,0.0,0.0,0.0,0.0,0.0,0.0,0.0,0.0,0.0,0.0,0.0,0.0,0.0,0.0,0.0,0.0,0.0,0.0,0.0,0.0,0.0,0.0,-5.8462,-5.5855,-5.6123,-6.0127,-6.2018,-6.1221,0.0,0.0,0.0,0.0,0.0,0.0,0.0,0.0,0.0,0.0,0.0,0.0,0.0,0.0,0.0,0.0,0.0,0.0,0.0,0.0,0.0,0.0,0.0,0.0,0.0,0.0,0.0,0.0,0.0,0.0,0.0,0.0,0.0,0.0,0.0,0.0,0.0,0.0,0.0,0.0,0.0,0.0,0.0,0.0,0.0,0.0,0.0,0.0,0.0,0.0,0.0,0.0,0.0,0.0,0.0,0.0,0.0,0.0,0.0,0.0,0.0,0.0,0.0,0.0,0.0,0.0,0.0,0.0,0.0,0.0,0.0,0.0,0.0,0.0,0.0,0.0,0.0,0.0,0.0,0.0,0.0,0.0,0.0,0.0,0.0,0.0,0.0,0.0,0.0,0.0,0.0,0.0,0.0,0.0,0.0,0.0,0.0,0.0,0.0,0.0,0.0,0.0,0.0,0.0,0.0,0.0,0.0,0.0,0.0,0.0,-5.326,-5.487,-5.6238,-5.7242,-5.806,-5.8778,0.0,0.0,0.0,0.0,0.0,0.0,0.0,0.0,0.0,0.0,0.0,0.0,0.0,0.0,0.0,0.0,0.0,0.0,0.0,0.0,0.0,0.0,0.0,0.0,0.0,0.0,0.0,0.0,0.0,0.0,0.0,0.0,0.0,0.0,0.0,0.0,0.0,0.0,0.0,0.0,0.0,0.0,0.0,0.0,0.0,0.0,0.0,0.0,0.0,0.0,0.0,0.0,0.0,0.0,0.0,0.0,0.0,0.0,0.0,0.0,0.0,0.0,0.0,0.0,0.0,0.0,0.0,0.0,0.0,0.0,0.0,0.0,0.0,0.0,0.0,0.0,0.0,0.0,0.0,0.0,0.0,0.0,0.0,0.0,0.0,0.0,0.0,0.0,0.0,0.0,0.0,0.0,0.0,0.0,0.0,0.0,0.0,0.0,0.0,0.0,0.0,0.0,0.0,0.0,0.0,0.0,0.0,0.0,0.0,0.0,-5.3219,-5.4895,-5.5448,-5.6573,0.0,0.0,0.0,0.0,0.0,0.0,0.0,0.0,0.0,0.0,0.0,0.0,0.0,0.0,0.0,0.0,0.0,0.0,0.0,0.0,0.0,0.0,0.0,0.0,0.0,0.0,0.0,0.0,0.0,0.0,0.0,0.0,0.0,0.0,0.0,0.0,0.0,0.0,0.0,0.0,0.0,0.0,0.0,0.0,0.0,0.0,0.0,0.0,0.0,0.0,0.0,0.0,0.0,0.0,0.0,0.0,0.0,0.0,0.0,0.0,0.0,0.0,0.0,0.0,0.0,0.0,0.0,0.0,0.0,0.0,0.0,0.0,0.0,0.0,0.0,0.0,0.0,0.0,0.0,0.0,0.0,0.0,0.0,0.0,0.0,0.0,0.0,0.0,0.0,0.0,0.0,0.0,0.0,0.0,0.0,0.0,0.0,0.0,0.0,0.0,0.0,0.0,0.0,0.0,0.0,0.0,0.0,0.0,0.0,0.0,0.0,-5.1987,-5.5122,-5.5625,0.0,-5.6804,0.0,0.0,0.0,0.0,0.0,0.0,0.0,0.0,0.0,0.0,0.0,0.0,0.0,0.0,0.0,0.0,0.0,0.0,0.0,0.0,0.0,0.0,0.0,0.0,0.0,0.0,0.0,0.0,0.0,0.0,0.0,0.0,0.0,0.0,0.0,0.0,0.0,0.0,0.0,0.0,0.0,0.0,0.0,0.0,0.0,0.0,0.0,0.0,0.0,0.0,0.0,0.0,0.0,0.0,0.0,0.0,0.0,0.0,0.0,0.0,0.0,0.0,0.0,0.0,0.0,0.0,0.0,0.0,0.0,0.0,0.0,0.0,0.0,0.0,0.0,0.0,0.0,0.0,0.0,0.0,0.0,0.0,0.0,0.0,0.0,0.0,0.0,0.0,0.0,0.0,0.0,0.0,0.0,0.0,0.0,0.0,0.0,0.0,0.0,0.0,0.0,0.0,0.0,0.0,0.0,0.0,0.0,0.0,0.0,0.0,0.0,0.0,-5.5383,-5.5151,-5.2827,0.0,0.0,0.0,0.0,0.0,0.0,0.0,0.0,0.0,0.0,0.0,0.0,0.0,0.0,0.0,0.0,0.0,0.0,0.0,0.0,0.0,0.0,0.0,0.0,0.0,0.0,0.0,0.0,0.0,0.0,0.0,0.0,0.0,0.0,0.0,0.0,0.0,0.0,0.0,0.0,0.0,0.0,0.0,0.0,0.0,0.0,0.0,0.0,0.0,0.0,0.0,0.0,0.0,0.0,0.0,0.0,0.0,0.0,0.0,0.0,0.0,0.0,0.0,0.0,0.0,0.0,0.0,0.0,0.0,0.0,0.0,0.0,0.0,0.0,0.0,0.0,0.0,0.0,0.0,0.0,0.0,0.0,0.0,0.0,0.0,0.0,0.0,0.0,0.0,0.0,0.0,0.0,0.0,0.0,0.0,0.0,0.0,0.0,0.0,0.0,0.0,0.0,0.0,0.0,0.0,0.0,0.0,0.0,0.0,0.0,-5.6229,-5.4962,-5.5823,-5.5261,-5.2872,0.0,0.0,0.0,0.0,0.0,0.0,0.0,0.0,0.0,0.0,0.0,0.0,0.0,0.0,0.0,0.0,0.0,0.0,0.0,0.0,0.0,0.0,0.0,0.0,0.0,0.0,0.0,0.0,0.0,0.0,0.0,0.0,0.0,0.0,0.0,0.0,0.0,0.0,0.0,0.0,0.0,0.0,0.0,0.0,0.0,0.0,0.0,0.0,0.0,0.0,0.0,0.0,0.0,0.0,0.0,0.0,0.0,0.0,0.0,0.0,0.0,0.0,0.0,0.0,0.0,0.0,0.0,0.0,0.0,0.0,0.0,0.0,0.0,0.0,0.0,0.0,0.0,0.0,0.0,0.0,0.0,0.0,0.0,0.0,0.0,0.0,0.0,0.0,0.0,0.0,0.0,0.0,0.0,0.0,0.0,0.0,0.0,0.0,0.0,0.0,0.0,0.0,0.0,0.0,0.0,0.0,0.0,0.0,0.0,0.0,-5.7937,0.0,0.0,0.0,-5.4233,0.0,0.0,0.0,0.0,0.0,0.0,0.0,0.0,0.0,0.0,0.0,0.0,0.0,0.0,0.0,0.0,0.0,0.0,0.0,0.0,0.0,0.0,0.0,0.0,0.0,0.0,0.0,0.0,0.0,0.0,0.0,0.0,0.0,0.0,0.0,0.0,0.0,0.0,0.0,0.0,0.0,0.0,0.0,0.0,0.0,0.0,0.0,0.0,0.0,0.0,0.0,0.0,0.0,0.0,0.0,0.0,0.0,0.0,0.0,0.0,0.0,0.0,0.0,0.0,0.0,0.0,0.0,0.0,0.0,0.0,0.0,0.0,0.0,0.0,0.0,0.0,0.0,0.0,0.0,0.0,0.0,0.0,0.0,0.0,0.0,0.0,0.0,0.0,0.0,0.0,0.0,0.0,0.0,0.0,0.0,0.0,0.0,0.0,0.0,0.0,0.0,0.0,0.0,0.0,0.0,0.0,0.0,0.0,0.0,0.0,0.0,0.0,0.0,0.0,0.0,0.0,0.0,0.0,0.0,0.0,0.0,0.0,0.0,0.0,0.0,0.0,0.0,0.0,0.0,0.0,0.0,0.0,0.0,0.0,0.0,0.0,0.0,0.0,0.0,0.0,0.0,0.0,0.0,0.0,0.0,0.0,0.0,0.0,0.0,0.0,0.0,0.0,0.0,0.0,0.0,0.0,0.0,0.0,0.0,0.0,0.0,0.0,0.0,0.0,0.0,0.0,0.0,0.0,0.0,0.0,0.0,0.0,0.0,0.0,0.0,0.0,0.0,0.0,0.0,0.0,0.0,0.0,0.0,0.0,0.0,0.0,0.0,0.0,0.0,0.0,0.0,0.0,0.0,0.0,0.0,0.0,0.0,0.0,0.0,0.0,0.0,0.0,0.0,0.0,0.0,0.0,0.0,0.0,0.0,0.0,0.0,0.0,0.0,0.0,0.0,0.0,0.0,0.0,0.0,0.0,0.0,0.0,0.0,0.0,0.0,0.0,0.0,0.0,0.0,0.0,0.0,0.0,0.0,0.0,0.0,0.0,0.0,0.0,0.0,0.0,0.0,0.0,0.0,0.0,0.0,0.0,0.0,0.0,0.0,0.0,0.0,0.0,0.0,0.0,0.0,0.0,0.0,0.0,0.0,0.0,0.0,0.0,0.0,0.0,0.0,0.0,0.0,0.0,0.0,0.0,0.0,0.0,0.0,0.0,0.0,0.0,0.0,0.0,0.0,0.0,0.0,0.0,0.0,0.0,0.0,0.0,0.0,0.0,0.0,0.0,0.0,0.0,0.0,0.0,0.0,0.0,0.0,0.0,0.0,0.0,0.0,0.0,0.0,0.0,0.0,0.0,0.0,0.0,0.0,0.0,0.0,0.0,0.0,0.0,0.0,0.0,0.0,0.0,0.0,0.0,0.0,0.0,0.0,0.0,0.0,0.0,0.0,0.0,0.0,0.0,0.0,0.0,0.0,0.0,0.0,0.0,0.0,0.0,0.0,0.0,0.0,0.0,0.0,0.0,0.0,0.0,0.0,0.0,0.0,0.0,0.0,0.0,0.0,0.0,0.0,0.0,0.0,0.0,0.0,0.0,0.0,0.0,0.0,0.0,0.0,0.0,0.0,0.0,0.0,0.0,0.0,0.0,0.0,0.0,0.0,0.0,0.0,0.0,0.0,0.0,0.0,0.0,0.0,0.0,0.0,0.0,0.0,0.0,0.0,0.0,0.0,0.0,0.0,0.0,0.0,0.0,0.0,0.0,0.0,0.0,0.0,0.0,0.0,0.0,0.0,0.0,0.0,0.0,0.0,0.0,0.0,0.0,0.0,0.0,0.0,0.0,0.0,0.0,0.0,0.0,0.0,0.0,0.0,0.0,0.0,0.0,0.0,0.0,0.0,0.0,0.0,0.0,0.0,0.0,0.0,0.0,0.0,0.0,0.0,0.0,0.0,0.0,0.0,0.0,0.0,0.0,0.0,0.0,0.0,0.0,0.0,0.0,0.0,0.0,0.0,0.0,0.0,0.0,0.0,0.0,0.0,0.0,0.0,0.0,0.0,0.0,0.0,0.0,0.0,0.0,0.0,0.0,0.0,0.0,0.0,0.0,0.0,0.0,0.0,0.0,0.0,0.0,0.0,0.0,0.0,0.0,0.0,0.0,0.0,0.0,0.0,0.0,0.0,0.0,0.0,0.0,0.0,0.0,0.0,0.0,0.0,0.0,0.0,0.0,0.0,0.0,0.0,0.0,0.0,0.0,0.0,0.0,0.0,0.0,0.0,0.0,0.0,0.0,0.0,0.0,0.0,0.0,0.0,0.0,0.0,0.0,0.0,0.0,0.0,0.0,0.0,0.0,0.0,0.0,0.0,0.0,0.0,0.0,0.0,0.0,0.0,0.0,0.0,0.0,0.0,0.0,0.0,0.0,0.0,0.0,0.0,0.0,0.0,0.0,0.0,0.0,0.0,0.0,0.0,0.0,0.0,0.0,0.0,0.0,0.0,0.0,0.0,0.0,0.0,0.0,0.0,0.0,0.0,0.0,0.0,0.0,0.0,0.0,0.0,0.0,0.0,0.0,0.0,0.0,0.0,0.0,0.0,0.0,0.0,0.0,0.0,0.0,0.0,0.0,0.0,0.0,0.0,0.0,0.0,0.0,0.0,0.0,0.0,0.0,0.0,0.0,0.0,0.0,0.0,0.0,0.0,0.0,0.0,0.0,0.0,0.0,0.0,0.0,0.0,0.0,0.0,0.0,0.0,0.0,0.0,0.0,0.0,0.0,0.0,0.0,0.0,0.0,0.0,0.0,0.0,0.0,0.0,0.0,0.0,0.0,0.0,0.0,0.0,0.0,0.0,0.0,0.0,0.0,0.0,0.0,0.0,0.0,0.0,0.0,0.0,0.0,0.0,0.0,0.0,0.0,0.0,0.0,0.0,0.0,0.0,0.0,0.0,0.0,0.0,0.0,0.0,0.0,0.0,0.0,0.0,0.0,0.0,0.0,0.0,0.0,0.0,0.0,0.0,0.0,0.0,0.0,0.0,0.0,0.0,0.0,0.0,0.0,0.0,0.0,0.0,0.0,0.0,0.0,0.0,0.0,0.0,0.0,0.0,0.0,0.0,0.0,0.0,0.0,0.0,0.0,0.0,0.0,0.0,0.0,0.0,0.0,0.0,0.0,0.0,0.0,0.0,0.0,0.0,0.0,0.0,0.0,0.0,0.0,0.0,0.0,0.0,0.0,0.0,0.0,0.0,0.0,0.0,0.0,0.0,0.0,0.0,0.0,0.0,0.0,0.0,0.0,0.0,0.0,0.0,0.0,0.0,0.0,0.0,0.0,0.0,0.0,0.0,0.0,0.0,0.0,0.0,0.0,0.0,0.0,0.0,0.0,0.0,0.0,0.0,0.0,0.0,0.0,0.0,0.0,0.0,0.0,0.0,0.0,0.0,0.0,0.0,0.0,0.0,0.0,0.0,0.0,0.0,0.0,0.0,0.0,0.0,0.0,0.0,0.0,0.0,0.0,0.0,0.0,0.0,0.0,0.0,0.0,0.0,0.0,0.0,0.0,0.0,0.0,0.0,0.0,0.0,0.0,0.0,0.0,0.0,0.0,0.0,0.0,0.0,0.0,0.0,0.0,0.0,0.0,0.0,0.0,0.0,0.0,0.0,0.0,0.0,0.0,0.0,0.0,0.0,0.0,0.0,0.0,0.0,0.0,0.0,0.0,0.0,0.0,0.0,0.0,0.0,0.0,0.0,0.0,0.0,0.0,0.0,0.0,0.0,0.0,0.0,0.0,0.0,0.0,0.0,0.0,0.0,0.0,0.0,0.0,0.0,0.0,0.0,0.0,0.0,0.0,0.0,0.0,0.0,0.0,0.0,0.0,0.0,0.0,0.0,0.0,0.0,0.0,0.0,0.0,0.0,0.0,0.0,0.0,0.0,0.0,0.0,0.0,0.0,0.0,0.0,0.0,0.0,0.0,0.0,0.0,0.0,0.0,0.0,0.0,0.0,0.0,0.0,0.0,0.0,0.0,0.0,0.0,0.0,0.0,0.0,0.0,0.0,0.0,0.0,0.0,0.0,0.0,0.0,0.0,0.0,0.0,0.0,0.0,0.0,0.0,0.0,0.0,0.0,0.0,0.0,0.0,0.0,0.0,0.0,0.0,0.0,0.0,0.0,0.0,0.0,0.0,0.0,0.0,0.0,0.0,0.0,0.0,0.0,0.0,0.0,0.0,0.0,0.0,0.0,0.0,0.0,0.0,0.0,0.0,0.0,0.0,0.0,0.0,0.0,0.0,0.0,0.0,0.0,0.0,0.0,0.0,0.0,0.0,0.0,0.0,0.0,0.0,0.0,0.0,0.0,0.0]}],[{"header":{"parameterUnit":"kt","parameterCategory":2,"dx":1,"dy":1,"la1":29.587661999999998,"la2":31.0,"lo1":-88.76705300000003,"lo2":-86.6583820000003,"nx":115,"ny":88,"refTime":"2022-10-30T00:00:00:Z","depth":0,"parameterNumber":2,"parameterNumberName":"V-component_of_WINDS"},"data":[-12.9678,-12.9678,-12.964,-12.9693,-13.0044,-13.121,-13.14,-13.1291,-13.505,-13.6568,-13.6655,-13.849,-13.9335,-13.7959,-13.7731,-13.6127,-13.3839,-13.2637,-13.2438,-13.1983,-13.0095,-13.0583,-13.1593,-13.268,-13.4905,-13.6124,-13.6651,-13.6566,-13.6492,-13.6242,-13.5524,-13.4101,-13.419,-13.2713,-13.0605,-12.6984,-12.3592,-12.2029,-11.8393,-11.4025,-11.2281,-11.0518,-10.6492,-10.2809,-9.8654,-9.4634,-9.0532,-8.7594,-8.0905,-7.2549,-6.4552,-6.0359,-5.8449,-5.7361,-5.6481,-5.414,-5.0411,-4.4199,-3.8314,-3.2303,-2.5065,-1.7318,-0.8739,-0.147,0.48,1.1453,1.9246,2.6264,2.9759,3.1598,3.3651,3.5837,3.6961,3.571,3.5789,3.6907,3.8141,3.9697,4.1443,4.3385,4.6732,4.9749,5.2487,5.7377,6.2278,6.6502,7.0489,7.3054,7.5948,7.8338,8.0765,8.1737,8.3095,8.3826,8.452,8.452,8.452,8.4903,8.5595,8.7625,8.9335,9.0016,9.1374,9.3396,9.3732,9.3692,9.4027,9.4696,9.694,9.9852,10.208,10.3874,10.6184,10.7686,10.8657,-12.9678,-12.9678,-12.9678,-12.9734,-12.9892,-13.0119,-13.0857,-13.2201,-13.429,-13.5878,-13.7085,-13.8953,-13.9773,-13.9126,-13.8197,-13.6365,-13.462,-13.2951,-13.2409,-13.1791,-13.024,-13.0653,-13.1758,-13.2984,-13.3598,-13.4495,-13.5992,-13.6733,-13.7386,-13.6144,-13.5457,-13.4828,-13.3847,-13.2781,-13.0181,-12.6682,-12.3529,-12.2259,-11.9071,-11.4887,-11.3586,-11.3316,-10.903,-10.5875,-10.2518,-9.7516,-9.1635,-8.6722,-8.1827,-7.3663,-6.4887,-6.0493,-5.8311,-5.679,-5.6031,-5.5012,-5.1295,-4.5639,-3.9821,-3.429,-2.7007,-1.901,-0.9406,-0.1826,0.4054,1.1464,1.9684,2.5746,2.9743,3.2033,3.3656,3.539,3.5773,3.5852,3.6588,3.7707,3.8728,4.0115,4.0943,4.1754,4.5648,4.9762,5.3822,5.8354,6.2988,6.669,7.0253,7.2405,7.493,7.6941,7.8988,8.0375,8.2014,8.3478,8.452,8.452,8.452,8.4903,8.5904,8.7968,8.9979,9.1335,9.2685,9.4362,9.4696,9.4696,9.503,9.5655,9.8544,10.1757,10.3366,10.4918,10.7349,10.9213,10.9924,-12.9678,-12.9678,-12.9678,-12.964,-12.9709,-12.9801,-13.0224,-13.1412,-13.3804,-13.5339,-13.6188,-13.766,-13.8573,-13.8259,-13.6773,-13.4924,-13.3482,-13.2647,-13.2485,-13.1843,-13.083,-13.0729,-13.1682,-13.3059,-13.3115,-13.4094,-13.6064,-13.7689,-13.8807,-13.7208,-13.5916,-13.6374,-13.5149,-13.3605,-13.0737,-12.7264,-12.4331,-12.3186,-11.9283,-11.5667,-11.2738,-11.0709,-10.7757,-10.3985,-9.9831,-9.4957,-9.0067,-8.697,-8.1024,-7.2385,-6.6818,-6.2364,-5.7985,-5.6295,-5.5909,-5.5217,-5.209,-4.7059,-4.1162,-3.4986,-2.8646,-2.0456,-1.1253,-0.4023,0.2211,1.0067,1.8715,2.3999,2.7987,3.109,3.2377,3.524,3.5979,3.6412,3.7183,3.8375,3.9743,4.068,4.1229,4.1789,4.4031,4.802,5.3173,5.7723,6.1703,6.5728,6.9568,7.2259,7.3399,7.5123,7.7269,7.9391,8.093,8.2398,8.4173,8.452,8.4867,8.5559,8.6249,8.7968,8.9676,9.2011,9.3692,9.4696,9.5363,9.5363,9.636,9.7311,9.9526,10.2402,10.4325,10.6004,10.8522,11.039,11.0652,-12.9678,-12.9678,-12.9678,-12.9697,-12.9676,-12.9785,-12.9831,-13.0161,-13.346,-13.4951,-13.5289,-13.7048,-13.8192,-13.8194,-13.6713,-13.5075,-13.3406,-13.2875,-13.2474,-13.1817,-13.051,-13.038,-13.1712,-13.2456,-13.3131,-13.4285,-13.5761,-13.7367,-13.7942,-13.7129,-13.6182,-13.7022,-13.6178,-13.409,-13.1253,-12.7712,-12.4809,-12.3273,-12.0155,-11.7427,-11.3588,-10.9907,-10.6641,-10.2649,-9.9953,-9.5324,-8.9472,-8.7013,-8.1334,-7.3173,-6.9654,-6.4434,-5.7985,-5.59,-5.5784,-5.5836,-5.2163,-4.7005,-4.1564,-3.5862,-2.964,-2.1457,-1.3035,-0.6585,0.074,0.8997,1.5855,2.1154,2.5348,2.8399,3.1022,3.3952,3.6539,3.7007,3.7832,3.9118,4.0411,4.1159,4.1515,4.1997,4.2572,4.642,5.1272,5.6011,5.9989,6.4897,6.9245,7.1744,7.3392,7.3966,7.6183,7.8755,8.0263,8.1699,8.3826,8.452,8.4867,8.5559,8.663,8.7968,8.9335,9.1374,9.3732,9.4696,9.5363,9.5363,9.6028,9.797,10.0178,10.2402,10.4688,10.6952,10.9239,11.0839,11.0839,-12.964,-12.9678,-12.9678,-12.9716,-12.9676,-12.9676,-12.9725,-13.025,-13.3423,-13.4924,-13.5505,-13.8223,-13.9389,-13.9027,-13.7624,-13.5986,-13.4468,-13.3178,-13.2701,-13.2209,-13.0434,-13.0153,-13.1019,-13.1588,-13.2303,-13.3158,-13.4305,-13.5471,-13.5747,-13.6148,-13.6147,-13.6303,-13.5951,-13.4439,-13.1658,-12.8322,-12.5338,-12.3279,-12.1044,-11.8469,-11.4828,-11.2587,-11.0411,-10.4475,-10.1768,-9.8351,-9.0489,-8.691,-8.5244,-7.7028,-7.0766,-6.6843,-6.1422,-5.7824,-5.5449,-5.3998,-5.1873,-4.718,-4.2026,-3.6812,-3.0295,-2.2056,-1.2922,-0.6913,-0.1481,0.5261,1.2119,1.7837,2.2183,2.5289,2.9416,3.2745,3.6047,3.7574,3.9202,4.0873,4.173,4.2087,4.2481,4.2626,4.3527,4.6855,5.171,5.588,5.9905,6.71,7.1394,7.2437,7.3398,7.3398,7.5665,7.8149,7.9241,8.0648,8.2781,8.4173,8.4867,8.5941,8.6667,8.8042,8.9752,9.1751,9.3396,9.4696,9.6028,9.5695,9.665,9.9241,10.18,10.373,10.5959,10.7941,10.9239,11.053,11.0839,-12.9785,-12.9769,-12.9769,-12.9752,-12.9676,-12.9676,-12.9709,-13.0437,-13.3471,-13.4877,-13.5246,-13.7447,-13.9014,-13.9535,-13.8206,-13.6593,-13.4999,-13.3937,-13.2625,-13.1602,-13.0104,-13.0101,-13.0264,-13.0723,-13.1401,-13.2053,-13.2789,-13.351,-13.46,-13.5484,-13.7208,-13.8036,-13.6028,-13.4446,-13.1989,-12.8886,-12.5919,-12.3467,-12.098,-11.8235,-11.5113,-11.213,-10.9359,-10.5268,-10.346,-9.7064,-8.9101,-8.889,-8.4664,-7.666,-7.2267,-6.8287,-6.3963,-5.9622,-5.6667,-5.4537,-5.175,-4.7142,-4.2337,-3.695,-3.0493,-2.3006,-1.5285,-0.9152,-0.3339,0.1877,0.8317,1.4487,1.8469,2.2856,2.7006,3.1142,3.4456,3.8145,4.0192,4.2268,4.2663,4.3021,4.3113,4.3223,4.5131,4.7706,5.1842,5.5652,6.0948,6.7299,7.1037,7.2477,7.3226,7.3226,7.4984,7.7474,7.8535,7.9945,8.1699,8.3478,8.4867,8.6286,8.7392,8.8534,9.0168,9.1867,9.3335,9.4601,9.636,9.7311,9.8258,10.0871,10.3409,10.5687,10.7941,10.9239,11.0219,11.0839,11.0839,-12.9831,-12.9892,-12.9892,-12.9785,-12.9676,-12.9693,-12.9709,-13.0347,-13.3333,-13.4826,-13.5043,-13.7187,-13.9022,-13.9745,-13.8176,-13.6821,-13.5692,-13.4392,-13.255,-13.1299,-13.0195,-12.9495,-12.9463,-12.9964,-13.0576,-13.1129,-13.1602,-13.2278,-13.3794,-13.4889,-13.6989,-13.8772,-13.6299,-13.4446,-13.1989,-12.9348,-12.5743,-12.2656,-12.0874,-11.7304,-11.3864,-11.1002,-10.8194,-10.5373,-10.3213,-9.7668,-9.1019,-8.9476,-8.4995,-7.7933,-7.348,-6.9955,-6.5676,-6.122,-5.7797,-5.5525,-5.1814,-4.7446,-4.2318,-3.6963,-3.0592,-2.3545,-1.8335,-1.2169,-0.6298,-0.1119,0.414,1.025,1.5709,2.0429,2.5037,3.009,3.4723,3.8111,4.1224,4.2863,4.326,4.3223,4.315,4.326,4.3389,4.6718,5.2982,5.7182,6.2181,6.7328,7.0646,7.2477,7.3226,7.3226,7.4627,7.6409,7.7828,7.9593,8.1349,8.3478,8.5213,8.6975,8.7884,8.9064,9.0738,9.1836,9.3271,9.484,9.6813,9.8669,10.022,10.2445,10.5051,10.7313,10.8927,10.9862,11.0839,11.0839,11.0839,-12.9845,-12.9892,-12.9892,-12.9725,-12.9693,-12.9801,-12.9816,-13.0134,-13.334,-13.4762,-13.5157,-13.832,-13.9693,-13.9565,-13.8291,-13.7417,-13.681,-13.4099,-13.2788,-13.1843,-13.0437,-12.9594,-12.9189,-12.9341,-12.9895,-13.0237,-13.0609,-13.1621,-13.3622,-13.4853,-13.594,-13.6744,-13.5813,-13.3946,-13.1746,-12.9083,-12.5516,-12.2278,-12.0018,-11.6915,-11.2953,-11.0038,-10.7789,-10.5627,-10.2636,-9.7761,-9.3456,-8.9171,-8.4746,-7.9861,-7.408,-7.0866,-6.6999,-6.2133,-5.9415,-5.6147,-5.2123,-4.738,-4.2159,-3.727,-3.0946,-2.4408,-2.0974,-1.5494,-0.963,-0.4466,0.1124,0.7177,1.2182,1.7604,2.3063,2.8512,3.3622,3.7861,4.133,4.2954,4.3352,4.3389,4.3278,4.3315,4.3444,4.7214,5.3095,5.9499,6.4545,6.8677,7.1729,7.3205,7.3813,7.3751,7.4224,7.5953,7.7249,7.9308,8.1699,8.3826,8.5559,8.6938,8.7884,8.9326,9.07,9.2106,9.3885,9.5455,9.764,9.9979,10.2488,10.5007,10.6952,10.8255,10.9551,11.053,11.0839,11.0839,11.0839,-12.9818,-12.9883,-12.9883,-12.9858,-12.9801,-12.9816,-12.9801,-13.0347,-13.3197,-13.4778,-13.5581,-13.8358,-13.9821,-13.9704,-13.9219,-13.8731,-13.7155,-13.4989,-13.3813,-13.217,-13.0603,-12.9637,-12.9169,-12.9101,-12.9503,-12.9521,-12.9967,-13.117,-13.3466,-13.5189,-13.652,-13.6727,-13.5507,-13.3605,-13.112,-12.875,-12.5401,-12.2278,-11.9437,-11.6527,-11.2905,-10.9774,-10.7997,-10.6239,-10.2979,-9.9274,-9.4734,-8.9937,-8.539,-8.0677,-7.5966,-7.1683,-6.7768,-6.3873,-6.0888,-5.7345,-5.3078,-4.904,-4.2763,-3.7223,-3.1173,-2.4927,-2.2854,-1.7363,-1.036,-0.6681,-0.1492,0.4129,0.8687,1.3661,1.9029,2.5514,3.0902,3.625,3.9371,4.2645,4.3131,4.3389,4.337,4.3425,4.426,4.8765,5.3604,6.0071,6.6288,6.939,7.2484,7.3578,7.4647,7.4307,7.4361,7.5617,7.6892,7.8767,8.0716,8.3826,8.5904,8.6938,8.8413,8.9625,9.1004,9.2826,9.4342,9.6449,9.8756,10.1562,10.4688,10.6952,10.8568,10.9862,11.0219,11.053,11.0839,11.0839,11.0839,-12.9839,-12.9839,-12.9839,-12.9883,-12.9831,-12.9831,-12.9769,-13.0085,-13.2006,-13.379,-13.5303,-13.8353,-13.9794,-13.9765,-13.968,-13.9243,-13.7918,-13.6279,-13.4587,-13.2951,-13.0831,-12.9809,-12.9273,-12.9245,-12.9177,-12.9292,-13.0425,-13.1931,-13.3491,-13.5796,-13.7242,-13.7476,-13.6115,-13.3559,-13.1078,-12.8246,-12.5401,-12.2216,-11.9196,-11.6217,-11.2687,-10.9393,-10.7358,-10.752,-10.2671,-9.9488,-9.6894,-9.0571,-8.6439,-8.3081,-7.7215,-7.3435,-7.0578,-6.4503,-6.1582,-5.8753,-5.4485,-5.0529,-4.5109,-3.6567,-3.1108,-2.6853,-2.2916,-1.8115,-1.1089,-0.7765,-0.297,0.2242,0.6761,1.1303,1.6246,2.2676,2.8762,3.4056,3.8694,4.1569,4.2499,4.2772,4.2954,4.2954,4.5779,4.9917,5.5586,6.2048,6.7388,7.1016,7.306,7.4527,7.511,7.4801,7.4523,7.5398,7.6887,7.8255,8.0364,8.4173,8.6594,8.7282,8.872,9.0315,9.1995,9.3467,9.5278,9.7498,10.0157,10.2767,10.5687,10.7941,10.9862,11.0839,11.053,11.0839,11.0839,11.0839,11.0839,-12.9839,-12.9839,-12.9839,-12.9818,-12.9795,-12.9871,-12.9753,-12.979,-13.0354,-13.2191,-13.5319,-13.824,-13.9717,-13.9697,-13.9793,-13.9449,-13.8525,-13.6457,-13.4706,-13.3699,-13.1409,-13.0152,-12.9745,-12.9651,-12.9671,-12.9774,-13.12,-13.2713,-13.3808,-13.63,-13.7242,-13.7385,-13.6627,-13.491,-13.2008,-12.8917,-12.5465,-12.203,-11.907,-11.5824,-11.2355,-10.8602,-10.7075,-10.5875,-10.2351,-9.9775,-9.6869,-9.1244,-8.6745,-8.3878,-7.8456,-7.4539,-7.2338,-6.6147,-6.2189,-6.0331,-5.5711,-5.1996,-4.8887,-3.7781,-3.1276,-2.695,-2.3283,-1.8484,-1.2934,-0.8886,-0.483,0.1116,0.5238,0.9759,1.5397,2.1819,2.7889,3.3222,3.8188,4.1354,4.1426,4.1605,4.1748,4.1819,4.6223,5.1046,5.7125,6.2654,6.7697,7.1518,7.3635,7.4957,7.5481,7.5326,7.511,7.5962,7.7795,7.878,8.0063,8.4386,8.7011,8.7625,8.8877,9.0624,9.2447,9.4919,9.6717,9.8754,10.1552,10.4777,10.7313,10.8927,10.9908,11.0839,11.0839,11.0839,11.0839,11.0839,11.1149,-12.9839,-12.9839,-12.9839,-12.9782,-12.9736,-12.9805,-12.9881,-12.9974,-13.0904,-13.3365,-13.6649,-13.8505,-13.96,-13.9676,-13.9676,-13.9297,-13.8051,-13.7004,-13.5205,-13.3524,-13.2119,-13.134,-13.0557,-13.0378,-13.0729,-13.2327,-13.3341,-13.3987,-13.4961,-13.6848,-13.7321,-13.6982,-13.6413,-13.4632,-13.2112,-12.9701,-12.702,-12.3902,-12.1305,-11.8492,-11.4119,-11.0944,-10.963,-10.5641,-10.3018,-10.0456,-9.6886,-9.1281,-8.6729,-8.3625,-7.9165,-7.4488,-7.0799,-6.6611,-6.2155,-5.911,-5.5302,-5.1224,-4.7091,-4.0319,-3.4922,-2.7682,-2.3661,-1.8475,-1.3333,-0.9677,-0.5577,0.0,0.4111,0.6764,0.8262,1.8286,2.6094,2.9254,3.4561,3.9098,3.9183,3.9743,3.9864,4.1533,4.5141,4.9184,5.5027,6.0502,6.5897,7.0923,7.3375,7.513,7.5848,7.6036,7.5759,7.68,7.8343,7.9305,8.0143,8.3901,8.7288,8.7871,8.9294,9.1308,9.383,9.6522,9.8877,10.151,10.4065,10.7133,10.8881,10.9862,11.0219,11.0839,11.0839,11.0839,11.0839,11.1149,11.1457,-12.9887,-12.9893,-12.9827,-12.9762,-12.9767,-12.9842,-12.9842,-12.9992,-13.081,-13.3145,-13.6343,-13.854,-13.96,-13.96,-13.9525,-13.8821,-13.7458,-13.7312,-13.5078,-13.3258,-13.2573,-13.2323,-13.1804,-13.1548,-13.1939,-13.3534,-13.4807,-13.5503,-13.5926,-13.7772,-13.7551,-13.6244,-13.5266,-13.3692,-13.2227,-13.0169,-12.7692,-12.518,-12.2839,-12.0494,-11.6116,-11.3689,-11.0237,-10.6517,-10.4156,-10.0387,-9.7835,-9.0683,-8.7276,-8.444,-7.9447,-7.5494,-7.1818,-6.658,-6.2663,-5.9587,-5.5452,-5.1123,-4.6292,-4.1148,-3.5646,-2.8035,-2.365,-1.922,-1.2571,-1.0402,-0.6321,-0.1117,0.3727,0.597,0.7469,1.5207,2.2916,2.5633,2.9417,3.4243,3.622,3.7216,3.8122,4.1354,4.4556,4.854,5.3535,5.9058,6.4833,7.0382,7.2964,7.5314,7.6239,7.6809,7.616,7.6375,7.929,8.0755,8.0444,8.358,8.7245,8.8933,9.0206,9.2176,9.468,9.7641,10.1476,10.459,10.7268,10.8706,10.9862,11.053,11.0839,11.0839,11.0839,11.0839,11.0839,11.1149,11.1766,-12.9842,-12.984,-12.9823,-12.9812,-12.9812,-12.9817,-12.979,-12.9753,-12.9883,-13.1939,-13.5171,-13.7782,-13.9297,-13.9525,-13.9449,-13.8572,-13.6988,-13.7285,-13.5151,-13.3698,-13.35,-13.3534,-13.3088,-13.3199,-13.3878,-13.4926,-13.5141,-13.5733,-13.6571,-13.8242,-13.7551,-13.6038,-13.4928,-13.315,-13.1658,-13.0654,-12.8778,-12.6814,-12.4457,-12.1892,-11.8255,-11.4419,-11.0791,-10.8354,-10.3384,-9.9564,-9.9664,-9.1445,-8.6585,-8.7115,-8.0766,-7.5907,-7.3229,-6.755,-6.3368,-5.9587,-5.5452,-4.9128,-4.4257,-3.9088,-3.3501,-2.84,-2.4017,-1.9965,-1.2981,-1.1124,-0.7055,-0.1119,0.3377,0.5612,0.8565,1.369,2.0738,2.4146,2.8273,3.2347,3.4671,3.524,3.6894,4.0805,4.5144,4.9507,5.4469,5.958,6.5389,6.9579,7.2121,7.3613,7.5103,7.7087,7.6469,7.7215,8.021,8.1518,8.1171,8.351,8.7377,8.955,9.2477,9.4601,9.6481,9.9937,10.4325,10.6772,10.8484,10.9643,11.0839,11.0839,11.0839,11.0839,11.0839,11.0839,11.0839,11.1149,11.1766,-12.9812,-12.974,-12.9709,-12.9709,-12.9709,-12.9719,-12.9666,-12.9795,-13.0844,-13.2651,-13.4897,-13.6782,-13.8464,-13.9297,-13.9373,-13.7966,-13.5626,-13.7896,-13.5929,-13.4298,-13.4341,-13.5345,-13.4792,-13.4077,-13.5094,-13.7689,-13.6181,-13.6035,-13.7018,-13.7714,-13.7386,-13.5948,-13.4885,-13.3767,-13.2144,-13.0962,-13.0299,-12.8729,-12.7033,-12.409,-12.0489,-11.6957,-11.372,-10.9635,-10.4902,-10.0428,-9.8666,-9.1048,-8.6369,-8.5446,-8.0766,-7.752,-7.4909,-6.8433,-6.3454,-6.0066,-5.3306,-4.665,-4.0662,-3.6994,-3.3153,-2.9131,-2.5484,-2.1911,-1.493,-1.1303,-0.7565,-0.1512,0.3414,0.5315,0.795,1.4616,1.9772,2.3439,2.6797,3.0536,3.3199,3.2976,3.4235,3.9269,4.4345,4.9422,5.4724,5.9801,6.4246,6.8429,7.0642,7.1712,7.3934,7.6862,7.7185,7.8742,8.0873,8.2317,8.3649,8.5842,8.8001,9.1081,9.4936,9.797,10.0546,10.373,10.6276,10.8209,10.9908,11.0839,11.0839,11.0839,11.0839,11.0839,11.0839,11.0839,11.0839,11.0839,11.1457,-12.9773,-12.9678,-12.9658,-12.9658,-12.9678,-12.9564,-12.9583,-12.9752,-13.0678,-13.2422,-13.4527,-13.5758,-13.748,-13.907,-13.8767,-13.7133,-13.5677,-13.7165,-13.5828,-13.3078,-13.5386,-13.6892,-13.6131,-13.5776,-13.6076,-13.7602,-13.6925,-13.6657,-13.6674,-13.6755,-13.6242,-13.5548,-13.4743,-13.3339,-13.1788,-13.099,-13.0456,-12.9663,-12.8096,-12.5322,-12.2021,-11.8674,-11.5365,-11.1902,-10.5025,-10.1169,-9.7829,-9.1149,-8.7316,-8.4824,-8.2053,-7.8884,-7.5147,-6.914,-6.2636,-5.9937,-5.1293,-4.3401,-3.6809,-3.4533,-3.1923,-2.9339,-2.7251,-2.4711,-1.9572,-1.4355,-0.8324,-0.1144,0.3439,0.6095,0.8699,1.468,1.8723,2.2028,2.5354,2.873,3.178,3.1137,3.3164,3.8138,4.3565,4.8766,5.4052,5.9134,6.3953,6.7305,6.9454,7.1217,7.3495,7.5982,7.7716,7.9647,8.1546,8.3481,8.5978,8.8955,9.1269,9.3088,9.7267,10.0758,10.3861,10.5959,10.7896,10.9862,11.053,11.0839,11.0839,11.0839,11.0839,11.0839,11.0839,11.0839,11.0839,11.0839,11.2026,-12.9742,-12.9658,-12.9691,-12.9616,-12.9637,-12.9495,-12.9448,-12.9448,-12.9669,-13.1486,-13.4537,-13.4862,-13.6625,-13.8746,-13.8216,-13.6657,-13.5828,-13.6508,-13.5565,-13.3718,-13.66,-13.7785,-13.6615,-13.7548,-13.7795,-13.7741,-13.7571,-13.7621,-13.7112,-13.5076,-13.4468,-13.4931,-13.3497,-13.1617,-13.0965,-13.0435,-12.9518,-12.8851,-12.7587,-12.5656,-12.2969,-11.913,-11.6014,-11.1946,-10.6548,-10.1429,-9.8582,-9.3295,-8.822,-8.5973,-8.3269,-8.0218,-7.5994,-6.8929,-6.2918,-5.6048,-4.9175,-4.1239,-3.5679,-3.3258,-3.1082,-2.9838,-2.8636,-2.7296,-2.3855,-1.812,-1.025,-0.0382,0.4191,0.6836,0.9084,1.4311,1.7557,2.1238,2.4961,2.9164,3.1907,3.282,3.4969,3.9645,4.5222,5.0028,5.4121,5.8836,6.3606,6.6124,6.8614,7.0694,7.2998,7.533,7.7529,7.9744,8.1815,8.5121,8.768,9.1763,9.3936,9.5455,9.921,10.3051,10.5317,10.7582,10.9505,11.0173,11.053,11.0839,11.0839,11.0839,11.0839,11.0839,11.0839,11.0839,11.0839,11.1718,11.2639,-12.9807,-12.9691,-12.9669,-12.9571,-12.9548,-12.9448,-12.9424,-12.9424,-12.9524,-13.1415,-13.4215,-13.4744,-13.6358,-13.8729,-13.898,-13.8072,-13.6685,-13.6686,-13.6215,-13.5613,-13.7654,-13.8537,-13.7816,-13.7972,-13.7947,-13.7772,-13.7049,-13.6363,-13.6611,-13.5339,-13.4424,-13.4212,-13.4007,-13.2378,-13.0131,-13.0235,-12.9671,-12.8815,-12.7694,-12.7177,-12.4501,-11.9794,-11.5983,-11.5031,-10.8316,-10.3135,-10.0365,-9.4622,-9.0105,-8.62,-8.3019,-7.9714,-7.5816,-7.0219,-6.2975,-5.3957,-4.6987,-3.9485,-3.4182,-3.1439,-3.115,-3.0127,-2.8997,-2.8337,-2.6452,-2.2097,-1.499,-0.4661,0.2717,0.772,0.9516,1.5567,1.9555,2.1959,2.6047,3.1137,3.282,3.4954,3.6752,4.1014,4.732,5.1622,5.4933,5.958,6.2864,6.5715,6.7736,6.9831,7.3658,7.6032,7.7618,8.0159,8.2844,8.6442,9.0308,9.4316,9.6624,9.8467,10.2273,10.5175,10.7178,10.8881,10.9551,11.053,11.0839,11.0839,11.0839,11.0839,11.0839,11.0839,11.0839,11.1149,11.1718,11.2639,11.3812,-12.9769,-12.9616,-12.9571,-12.9524,-12.9449,-12.9423,-12.9396,-12.9396,-12.9525,-13.1339,-13.3683,-13.4617,-13.6357,-13.8749,-13.9457,-13.7918,-13.6151,-13.564,-13.5486,-13.5808,-13.7424,-13.8449,-13.8218,-13.7947,-13.7845,-13.7516,-13.7014,-13.6757,-13.6872,-13.5784,-13.5139,-13.4428,-13.256,-13.1341,-13.0432,-12.9747,-12.8295,-12.7842,-12.7003,-12.6479,-12.5528,-12.1208,-11.6631,-11.4039,-10.8765,-10.4424,-10.1031,-9.5918,-9.1478,-8.7297,-8.3497,-8.0216,-7.5782,-6.9577,-6.137,-5.1454,-4.4838,-3.876,-3.3478,-3.1055,-3.0806,-3.0181,-2.9149,-2.8597,-2.751,-2.4199,-1.7832,-0.8543,0.0,0.8138,0.9176,1.6374,1.9973,2.1959,2.6916,3.1674,3.4145,3.5951,3.8143,4.1072,4.7726,5.2587,5.5841,5.933,6.2575,6.4828,6.6834,7.0325,7.4552,7.6745,7.8396,8.1013,8.4143,8.8239,9.3232,9.6847,9.9618,10.2015,10.514,10.7403,10.9239,10.9862,11.053,11.0839,11.0839,11.0839,11.0839,11.0839,11.0839,11.0839,11.1149,11.1718,11.2639,11.3508,11.5023,-12.96,-12.9548,-12.95,-12.9449,-12.9444,-12.9312,-12.9282,-12.9282,-12.9368,-13.1257,-13.4082,-13.4488,-13.6274,-13.8708,-13.9343,-13.7651,-13.5625,-13.5185,-13.4934,-13.5169,-13.7076,-13.8404,-13.817,-13.7971,-13.7708,-13.756,-13.7411,-13.7221,-13.6883,-13.5858,-13.5298,-13.4987,-13.2245,-13.0501,-13.0056,-12.8727,-12.7666,-12.6963,-12.6479,-12.5885,-12.499,-12.1651,-11.7793,-11.2647,-10.9896,-10.5666,-10.141,-9.729,-9.3186,-8.8123,-8.4244,-8.0283,-7.5214,-6.8624,-5.9166,-4.9662,-4.3741,-3.9158,-3.3846,-3.1425,-3.1123,-3.082,-2.9704,-2.9238,-2.8561,-2.5637,-1.9838,-1.1626,-0.232,0.5781,0.8782,1.6331,2.0322,2.2871,2.7443,3.3006,3.5075,3.7683,4.0379,4.4091,4.9059,5.4,5.7376,6.0811,6.408,6.6336,6.8892,7.2506,7.6118,7.7818,7.9765,8.294,8.6076,9.1002,9.5947,9.8956,10.2575,10.5369,10.7267,10.9239,10.9862,11.053,11.0839,11.0839,11.0839,11.0839,11.0839,11.0839,11.0839,11.1149,11.1766,11.2333,11.3555,11.4721,11.6226,-12.942,-12.934,-12.9396,-12.9444,-12.9312,-12.9282,-12.9282,-12.9282,-12.9282,-13.12,-13.3919,-13.4297,-13.6185,-13.8829,-13.9343,-13.8255,-13.6683,-13.6198,-13.5839,-13.596,-13.7719,-13.8254,-13.817,-13.792,-13.7708,-13.7673,-13.7485,-13.7445,-13.6883,-13.6003,-13.5092,-13.4294,-13.2393,-13.0906,-12.9707,-12.8815,-12.7863,-12.6553,-12.5998,-12.5528,-12.4446,-12.1651,-11.7673,-11.3193,-11.0643,-10.7422,-10.1673,-9.8381,-9.4692,-8.7524,-8.3358,-7.8492,-7.2835,-6.6306,-5.7897,-4.7989,-4.3721,-3.8795,-3.4122,-3.2562,-3.2005,-3.1452,-3.0471,-3.0394,-3.0103,-2.7553,-2.1811,-1.4764,-0.8131,-0.1539,0.8397,1.6317,2.0778,2.3428,2.8762,3.3888,3.6422,3.9431,4.3694,4.7686,5.193,5.5492,5.9255,6.226,6.5581,6.852,7.1175,7.4245,7.7176,7.9628,8.2561,8.5716,8.9637,9.4616,9.7846,10.1195,10.5414,10.7896,10.8881,11.0173,11.053,11.0839,11.0839,11.0839,11.0839,11.0839,11.0839,11.0839,11.1149,11.1766,11.2333,11.3251,11.4467,11.5926,11.7469,-12.932,-12.9282,-12.9312,-12.9312,-12.9282,-12.9282,-12.9282,-12.9282,-12.9282,-13.117,-13.3813,-13.4342,-13.623,-13.9099,-13.925,-13.8312,-13.6888,-13.6442,-13.6411,-13.6636,-13.7667,-13.8313,-13.817,-13.7868,-13.7653,-13.7485,-13.7312,-13.7192,-13.6616,-13.5413,-13.4542,-13.4195,-13.1749,-12.9957,-12.8697,-12.8121,-12.7082,-12.548,-12.5502,-12.4809,-12.2906,-12.0306,-11.6922,-11.3623,-11.1458,-10.7826,-10.1225,-9.8606,-9.4108,-8.8335,-8.1084,-7.4778,-6.9533,-6.2265,-5.4016,-4.5571,-4.0769,-3.5774,-3.2118,-3.0482,-3.0617,-3.0455,-3.0621,-3.0498,-3.029,-2.9079,-2.34,-1.6383,-1.0893,-0.5032,0.6922,1.6402,2.1274,2.4358,3.0107,3.5497,3.7834,4.1638,4.6061,4.8976,5.384,5.7699,6.0734,6.407,6.7275,7.0641,7.3328,7.6176,7.8709,8.225,8.5429,8.8727,9.3239,9.6817,9.981,10.3366,10.7941,10.9239,11.0173,11.053,11.0839,11.0839,11.0839,11.0839,11.0839,11.0839,11.141,11.0839,11.1149,11.2026,11.3251,11.4164,11.5324,11.6873,11.8358,-12.919,-12.9222,-12.9252,-12.9252,-12.9252,-12.9282,-12.9282,-12.9282,-12.9282,-13.0868,-13.336,-13.4191,-13.6003,-13.8646,-13.8883,-13.8438,-13.7237,-13.6525,-13.6561,-13.6624,-13.7833,-13.8143,-13.8072,-13.7868,-13.7598,-13.7503,-13.7192,-13.7009,-13.641,-13.526,-13.41,-13.3781,-13.1093,-12.8585,-12.7677,-12.7151,-12.5965,-12.4301,-12.4829,-12.3954,-12.1522,-11.913,-11.6513,-11.386,-11.1627,-10.6998,-10.1533,-9.7409,-9.3335,-8.7494,-7.8977,-7.1417,-6.5902,-5.7757,-4.9267,-4.1921,-3.5798,-3.1318,-2.8778,-2.8426,-2.8804,-2.9667,-3.0421,-3.0701,-3.0471,-2.9005,-2.4134,-1.7579,-1.209,-0.5045,0.5408,1.6168,2.2622,2.6418,3.22,3.7916,3.9679,4.3848,4.6817,4.9811,5.4654,5.923,5.997,6.5506,7.0255,7.2775,7.5277,7.7729,8.128,8.4867,8.8236,9.1673,9.5866,9.9768,10.2402,10.4688,10.8255,10.9862,11.053,11.0839,11.0839,11.0839,11.0839,11.0839,11.0839,11.141,11.2026,11.2026,11.2333,11.3251,11.4164,11.5625,11.6823,11.8062,11.9537,-12.8919,-12.888,-12.9018,-12.9083,-12.9115,-12.9252,-12.9282,-12.9282,-12.9282,-13.0415,-13.2227,-13.3738,-13.5399,-13.6985,-13.8538,-13.911,-13.867,-13.724,-13.7467,-13.7945,-13.8179,-13.8122,-13.8022,-13.7815,-13.7653,-13.7542,-13.7542,-13.7252,-13.6484,-13.519,-13.4117,-13.2804,-13.0261,-12.8275,-12.6565,-12.6446,-12.5484,-12.3936,-12.4219,-12.3398,-12.0886,-11.8535,-11.6043,-11.359,-11.1066,-10.6685,-10.1426,-9.6502,-9.1742,-8.5116,-7.6231,-6.9105,-6.2248,-5.2715,-4.4216,-3.787,-3.2005,-2.7972,-2.6914,-2.7997,-2.9196,-2.9772,-3.0644,-3.1301,-3.0224,-2.7748,-2.4052,-1.7579,-1.1636,-0.4647,0.3863,1.532,2.3776,3.0141,3.5059,3.9935,4.3342,4.6282,4.8286,5.055,5.6764,6.0999,6.4382,6.9142,7.4952,7.5989,7.8469,8.093,8.4067,8.7477,9.0881,9.4242,9.8461,10.268,10.4325,10.5959,10.7941,10.9551,10.9862,11.0219,11.0219,11.0839,11.0839,11.1149,11.141,11.2026,11.2898,11.3508,11.4115,11.5023,11.5674,11.6873,11.8358,11.8949,11.983,-12.877,-12.8919,-12.9025,-12.9126,-12.9083,-12.9177,-12.9282,-12.9282,-12.9282,-13.0188,-13.1925,-13.3587,-13.5172,-13.6789,-13.842,-13.9185,-13.9082,-13.8332,-13.822,-13.8663,-13.8449,-13.8122,-13.7868,-13.7762,-13.7617,-13.7445,-13.7252,-13.6946,-13.6423,-13.48,-13.3247,-13.1677,-12.9566,-12.6783,-12.4189,-12.4397,-12.4016,-12.2569,-12.2912,-12.2159,-11.9464,-11.7934,-11.5689,-11.2578,-11.0674,-10.861,-10.4517,-9.7578,-9.0083,-8.223,-7.329,-6.5968,-6.0742,-5.0072,-4.0799,-3.4832,-2.8571,-2.4519,-2.3803,-2.5245,-2.7181,-2.8514,-2.968,-3.0354,-2.9666,-2.7295,-2.3626,-1.7953,-1.0518,-0.3889,0.3497,1.3941,2.4396,3.2258,3.8769,4.3278,4.5547,4.8724,5.1335,5.4608,5.9424,6.4016,6.8025,7.2385,7.6344,7.9207,8.1664,8.3755,8.6521,9.0204,9.3869,9.6817,10.0418,10.3045,10.5007,10.5687,10.7313,10.7941,10.8255,10.8927,10.9551,11.0839,11.0839,11.1149,11.1718,11.2592,11.3508,11.4418,11.5324,11.6525,11.6873,11.7766,11.8358,11.8949,11.983,-12.8693,-12.8845,-12.899,-12.906,-12.9051,-12.9252,-12.9282,-12.9282,-12.9282,-12.9962,-13.1246,-13.2907,-13.4417,-13.6079,-13.7664,-13.8765,-13.9042,-13.8935,-13.8859,-13.8622,-13.8493,-13.817,-13.7868,-13.7708,-13.7542,-13.7386,-13.7132,-13.6819,-13.6355,-13.4559,-13.2587,-13.0508,-12.8821,-12.5771,-12.2181,-12.2728,-12.2331,-12.0714,-12.1483,-12.0855,-11.8526,-11.7494,-11.5332,-11.2203,-11.0288,-10.9005,-10.7757,-9.9282,-9.0605,-8.3345,-7.2071,-6.2947,-5.6574,-4.5547,-3.6021,-3.0493,-2.4858,-2.1129,-2.0414,-2.2266,-2.4508,-2.6465,-2.7279,-2.8591,-2.8997,-2.5492,-2.2308,-1.8226,-0.9727,-0.1946,0.3505,1.4795,2.4929,3.3467,4.0014,4.502,4.7294,5.0336,5.3342,5.6657,6.1077,6.5843,7.0226,7.4564,7.8149,8.1664,8.3755,8.5177,8.7551,9.092,9.4536,9.8133,10.0743,10.3045,10.4688,10.5051,10.5369,10.6004,10.6952,10.7941,10.9551,11.053,11.0839,11.1149,11.2026,11.3508,11.4418,11.5625,11.6873,11.8062,11.8358,11.8949,11.9243,11.9243,12.0173,-12.8654,-12.8693,-12.8955,-12.9025,-12.906,-12.9222,-12.9282,-12.9282,-12.9282,-12.9358,-12.9811,-13.1472,-13.2982,-13.4568,-13.6305,-13.774,-13.8916,-13.8971,-13.8898,-13.8779,-13.8537,-13.8359,-13.8122,-13.792,-13.7708,-13.7542,-13.737,-13.7071,-13.6558,-13.4721,-13.237,-13.0119,-12.8138,-12.5034,-12.1949,-12.2042,-12.1488,-11.9698,-12.0623,-12.0111,-11.8091,-11.7016,-11.5274,-11.3378,-11.0453,-10.878,-10.7137,-10.0678,-9.4788,-8.9569,-7.3658,-6.0313,-4.908,-3.8245,-3.0213,-2.5384,-2.0531,-1.8523,-1.8607,-2.0814,-2.2347,-2.2992,-2.4574,-2.5496,-2.4851,-2.2115,-1.9307,-1.7938,-0.8068,-0.0386,0.4251,1.6658,2.6828,3.0758,3.9117,4.5361,4.8827,5.0777,5.416,5.7473,6.0708,6.5506,7.1758,7.6021,7.9559,8.2712,8.5523,8.6557,8.8615,9.1258,9.4909,9.7517,9.981,10.1757,10.3409,10.3774,10.3132,10.4094,10.5687,10.7627,10.9551,11.053,11.0839,11.1718,11.2592,11.4418,11.5625,11.7122,11.8358,11.8949,11.9587,12.0173,12.0466,12.0173,12.0757,-12.8654,-12.8729,-12.8882,-12.8955,-12.8955,-12.9051,-12.9115,-12.9146,-12.9252,-12.9282,-12.9584,-13.1019,-13.2152,-13.3209,-13.5474,-13.6985,-13.7632,-13.8594,-13.9049,-13.8974,-13.8738,-13.8493,-13.8404,-13.8122,-13.7815,-13.7598,-13.7428,-13.7192,-13.669,-13.4958,-13.3139,-13.1026,-12.8611,-12.5635,-12.2861,-12.1522,-12.055,-11.9571,-11.8749,-11.7455,-11.5987,-11.5224,-11.3956,-11.145,-10.9897,-10.895,-10.7311,-10.063,-9.5456,-9.0636,-7.9546,-6.3701,-4.8195,-3.7287,-2.8892,-2.4084,-1.9849,-1.7184,-1.7532,-1.9411,-2.089,-2.1784,-2.2506,-2.2578,-2.1388,-1.8641,-1.5772,-1.3583,-0.4942,0.1917,0.5389,1.7756,2.8487,3.3307,4.0855,4.648,4.9896,5.3036,5.7487,6.2919,6.6038,7.0463,7.5269,7.9608,8.1314,8.3755,8.6213,8.831,8.8957,9.1596,9.4242,9.6899,9.8503,10.0136,10.18,10.18,10.1195,10.3132,10.5007,10.7313,10.9551,11.053,11.0839,11.1718,11.3203,11.4721,11.6823,11.8062,11.9243,11.983,12.0173,12.0466,12.0466,12.0466,12.1048,-12.8654,-12.8654,-12.8845,-12.8807,-12.8919,-12.9018,-12.9083,-12.9083,-12.9252,-12.9282,-12.9433,-13.049,-13.1321,-13.2378,-13.4644,-13.623,-13.6727,-13.7725,-13.8594,-13.9047,-13.8859,-13.8622,-13.8537,-13.8218,-13.7971,-13.7762,-13.7542,-13.7312,-13.6745,-13.5415,-13.3742,-13.1796,-12.9231,-12.6211,-12.3024,-12.1082,-11.9483,-11.8702,-11.7319,-11.6158,-11.4915,-11.4114,-11.2817,-11.0562,-10.8942,-10.7624,-10.5997,-9.9858,-9.5073,-9.1355,-8.1361,-6.6529,-4.7444,-3.437,-2.6657,-2.2483,-1.8938,-1.6993,-1.7049,-1.8498,-1.9349,-2.0284,-1.9924,-1.9229,-1.7921,-1.5146,-1.2246,-0.889,-0.1872,0.4526,0.8335,1.8988,2.8485,3.4667,4.1456,4.6456,4.9519,5.4411,6.0874,6.7473,6.955,7.2783,7.764,8.0298,8.194,8.4556,8.6557,8.7931,8.8957,9.0958,9.3613,9.5242,9.6899,9.8216,9.9526,10.022,10.1519,10.4413,10.5687,10.7627,10.9551,11.0839,11.0839,11.1457,11.3555,11.5324,11.7469,11.8949,11.983,12.0466,12.0466,12.0466,12.0466,12.1048,12.1287,-12.8654,-12.8654,-12.877,-12.8882,-12.8807,-12.8984,-12.9083,-12.9083,-12.9146,-12.9282,-12.9282,-12.9358,-13.0339,-13.1774,-13.3436,-13.5097,-13.6047,-13.651,-13.7457,-13.8815,-13.871,-13.8553,-13.8579,-13.8359,-13.8122,-13.7971,-13.7762,-13.7428,-13.6996,-13.585,-13.4258,-13.2086,-12.9828,-12.6581,-12.2091,-12.0646,-11.8709,-11.7012,-11.6105,-11.6142,-11.6334,-11.364,-11.2192,-11.1387,-10.7622,-10.4543,-10.2604,-9.8801,-9.414,-8.857,-7.9501,-6.3477,-4.4134,-2.9844,-2.2214,-1.9941,-1.7815,-1.7025,-1.7176,-1.7184,-1.7589,-1.7406,-1.6744,-1.5931,-1.442,-1.1248,-0.8367,-0.5431,0.0732,0.6276,1.1743,2.0682,2.8667,3.2845,3.9278,4.493,4.8891,5.3794,5.96,6.601,6.9944,7.2242,7.6342,7.9354,8.1545,8.4592,8.5832,8.6901,8.8273,8.9979,9.1972,9.3613,9.4909,9.6609,9.7929,9.9241,10.2488,10.5369,10.6637,10.8255,11.0173,11.0839,11.0839,11.1149,11.3251,11.5324,11.7171,11.8949,12.0173,12.0466,12.0466,12.0466,12.0997,12.1577,12.2155,-12.8654,-12.8654,-12.8693,-12.8693,-12.8807,-12.8844,-12.9025,-12.9093,-12.9083,-12.9146,-12.9282,-12.9282,-12.9509,-13.0264,-13.185,-13.2907,-13.3436,-13.4613,-13.5972,-13.7373,-13.7277,-13.7768,-13.8594,-13.8493,-13.8266,-13.8122,-13.7971,-13.7708,-13.7178,-13.6275,-13.4963,-13.3391,-13.0403,-12.7378,-12.4219,-12.0477,-11.819,-11.688,-11.4011,-11.2307,-11.1877,-11.0525,-10.9098,-10.7782,-10.4649,-10.222,-10.1041,-9.7849,-9.3905,-8.8514,-7.9214,-6.6555,-5.0154,-3.1235,-2.002,-1.8833,-1.5869,-1.3924,-1.44,-1.5838,-1.5912,-1.3919,-1.4651,-1.3569,-0.9971,-0.7894,-0.5025,-0.0715,0.4681,0.8727,1.2708,2.0201,2.8225,3.4212,4.0031,4.4915,4.9432,5.7284,6.2703,6.6177,7.1397,7.647,7.952,8.1158,8.1975,8.2781,8.5523,8.6557,8.6901,8.8273,8.9979,9.1972,9.3653,9.5947,9.8258,10.2123,10.6321,10.7627,10.8881,10.9862,11.1149,11.0839,11.0839,11.1457,11.2639,11.4769,11.6823,11.8949,11.983,12.0466,12.0757,12.1577,12.2391,12.2679,12.4054,-12.8654,-12.8654,-12.8654,-12.8654,-12.8654,-12.877,-12.8919,-12.899,-12.9018,-12.9115,-12.9146,-12.9252,-12.9282,-12.9358,-13.0385,-13.114,-13.1819,-13.2876,-13.4613,-13.6468,-13.6483,-13.7354,-13.8747,-13.8579,-13.8359,-13.8218,-13.8072,-13.7815,-13.7428,-13.6476,-13.5489,-13.3913,-13.0717,-12.762,-12.4758,-12.0773,-11.8125,-11.6944,-11.329,-11.1033,-11.0902,-10.8446,-10.6345,-10.4254,-10.1375,-9.9554,-9.8819,-9.6167,-9.2294,-8.7621,-7.8389,-6.7024,-5.3131,-3.5559,-2.3652,-1.7655,-1.3293,-1.0653,-1.0464,-1.2175,-1.2564,-1.1351,-1.2059,-1.0618,-0.7796,-0.4625,-0.178,0.2829,0.7814,1.2132,1.572,2.3382,3.0886,3.5816,4.1381,4.6774,5.2171,5.9599,6.5704,6.792,7.2722,7.7992,7.8999,8.0451,8.1272,8.1768,8.4138,8.5868,8.6557,8.8615,9.0658,9.1972,9.4616,9.7517,10.0178,10.5642,10.9193,11.0173,11.0793,11.1766,11.2073,11.2073,11.1766,11.238,11.3555,11.5373,11.6226,11.8309,12.0706,12.1287,12.2103,12.2965,12.4621,12.4903,12.6027,-12.8654,-12.8654,-12.8654,-12.8654,-12.8654,-12.8845,-12.8882,-12.8919,-12.8984,-12.9083,-12.9083,-12.9252,-12.9282,-12.9252,-12.9266,-13.0096,-13.1486,-13.1681,-13.3459,-13.6175,-13.6447,-13.7278,-13.8744,-13.8537,-13.8359,-13.8218,-13.8072,-13.792,-13.7598,-13.6745,-13.571,-13.4331,-13.0923,-12.7429,-12.3946,-12.0988,-11.8484,-11.5954,-11.3203,-11.1885,-11.1333,-10.7278,-10.3821,-10.1684,-9.8594,-9.6796,-9.5828,-9.34,-8.9504,-8.4078,-7.6665,-6.5619,-5.0579,-4.2118,-2.9959,-1.5397,-1.0106,-0.7519,-0.6296,-0.6932,-0.7983,-0.9242,-0.8154,-0.7071,-0.6005,-0.2121,0.1763,0.5586,1.0553,1.5845,2.0634,2.8739,3.497,3.7588,4.3137,4.9215,5.4573,6.0946,6.6948,7.0737,7.3849,7.6473,7.6796,7.7705,8.0451,8.2222,8.3755,8.5487,8.7588,9.0619,9.2309,9.3613,9.6568,10.0786,10.4962,10.9147,11.2073,11.2993,11.2687,11.3346,11.3346,11.3298,11.3298,11.3603,11.4769,11.5373,11.6226,11.8013,12.0655,12.2391,12.3537,12.4903,12.6864,12.7141,12.8246,-12.8654,-12.8654,-12.8654,-12.8654,-12.8654,-12.8693,-12.8732,-12.8919,-12.9025,-12.9093,-12.9083,-12.9177,-12.919,-12.9135,-12.906,-12.9286,-12.9889,-13.1087,-13.278,-13.4741,-13.592,-13.7354,-13.8669,-13.8622,-13.8449,-13.8218,-13.817,-13.8022,-13.7762,-13.7312,-13.6201,-13.4331,-13.141,-12.7864,-12.3811,-12.013,-11.7132,-11.4384,-11.0973,-10.9079,-10.8578,-10.4279,-10.1492,-10.0678,-9.7895,-9.5611,-9.4155,-9.2521,-8.8376,-8.1493,-7.5517,-6.4474,-4.8187,-4.1497,-3.0781,-1.4599,-0.867,-0.5735,-0.4835,-0.6195,-0.6198,-0.4168,-0.524,-0.4548,-0.14,0.035,0.3147,0.7672,1.6376,2.2382,2.5565,3.1236,3.5864,3.8105,4.4492,4.964,5.3709,6.1901,6.8418,7.0849,7.6022,7.9945,8.1349,8.2851,8.4734,8.6213,8.7514,8.8882,9.0242,9.1972,9.4322,9.5615,9.981,10.4006,10.6952,11.1055,11.3251,11.3908,11.3603,11.3603,11.4164,11.3603,11.3346,11.3908,11.4769,11.5926,11.7072,11.9678,12.2627,12.4106,12.5519,12.6864,12.9068,12.9341,13.0481,-12.8654,-12.8654,-12.8654,-12.8654,-12.8654,-12.8654,-12.8693,-12.8845,-12.899,-12.9025,-12.8984,-12.9159,-12.9126,-12.9066,-12.899,-12.9443,-13.0121,-13.106,-13.2753,-13.4979,-13.5922,-13.6826,-13.7726,-13.8245,-13.8073,-13.7318,-13.7918,-13.8072,-13.7815,-13.7653,-13.6597,-13.4494,-13.141,-12.7794,-12.3879,-12.0244,-11.6838,-11.3805,-11.0426,-10.7942,-10.6181,-10.2006,-9.921,-9.8214,-9.5445,-9.3603,-9.2748,-9.1563,-8.7512,-8.0126,-7.4064,-6.3144,-4.674,-4.0088,-2.9747,-1.4468,-0.9266,-0.5028,-0.1028,-0.205,-0.2049,0.0,-0.0693,0.0348,0.3116,0.5557,0.8353,1.3229,2.1941,2.7607,2.8486,3.4338,3.9749,4.2581,4.7234,5.2489,5.6994,6.3728,6.9638,7.4388,7.8089,8.1251,8.3614,8.5796,8.6828,8.7857,8.9563,9.0581,9.1894,9.4282,9.665,9.8544,10.3045,10.6907,10.9147,11.2026,11.4164,11.4769,11.4467,11.4515,11.4769,11.4515,11.4212,11.4212,11.5674,11.7122,11.8504,12.1134,12.3433,12.5132,12.6864,12.9068,13.1289,13.1824,13.2413,-12.8654,-12.8654,-12.8654,-12.8654,-12.8654,-12.8654,-12.8804,-12.8994,-12.903,-12.888,-12.8581,-12.8764,-12.8799,-12.884,-12.8844,-12.9672,-13.0949,-13.1329,-13.3023,-13.5733,-13.6185,-13.6255,-13.6624,-13.7677,-13.7548,-13.6493,-13.7271,-13.7698,-13.7516,-13.7666,-13.6699,-13.4439,-13.1113,-12.76,-12.4151,-12.0884,-11.7505,-11.4043,-11.1027,-10.7748,-10.438,-10.0235,-9.7159,-9.5268,-9.237,-9.0959,-9.1228,-8.9501,-8.57,-7.9144,-7.2064,-6.1346,-4.6623,-3.8547,-2.8383,-1.4971,-1.0875,-0.5348,0.2726,0.3392,0.271,0.2737,0.4492,0.6233,0.7545,1.2083,1.6322,2.0863,2.7248,3.086,3.0962,3.8098,4.3979,4.7383,5.0963,5.5949,6.2857,6.5902,7.0132,7.9426,8.001,8.1389,8.5397,8.6681,8.744,8.8503,9.0881,9.2567,9.3534,9.6609,9.9283,10.1519,10.5325,10.9147,11.039,11.3155,11.4576,11.5324,11.5276,11.5227,11.5625,11.5674,11.5975,11.5975,11.7171,11.8899,12.0553,12.2575,12.4621,12.681,12.9068,13.1289,13.2943,13.3527,13.3997,-12.8654,-12.8654,-12.8654,-12.8654,-12.8654,-12.8654,-12.9406,-13.0459,-12.9409,-12.8129,-12.7076,-12.6925,-12.6925,-12.7076,-12.8242,-12.8995,-12.9597,-13.0801,-13.2458,-13.4302,-13.5658,-13.6898,-13.7827,-13.699,-13.7007,-13.7543,-13.6698,-13.6175,-13.617,-13.7217,-13.655,-13.4007,-13.1197,-12.8331,-12.5555,-12.1568,-11.8095,-11.4795,-11.1336,-10.7222,-10.2857,-9.9705,-9.6812,-9.4324,-9.0714,-8.8784,-8.8971,-8.4813,-8.0112,-7.5705,-6.7879,-5.6305,-4.1803,-3.6138,-2.6789,-1.2885,-0.9188,-0.53,0.0331,0.3326,0.4345,0.4021,0.749,1.031,1.2338,1.8177,2.4084,2.8388,3.1271,3.3828,3.6157,4.0204,4.4502,4.9109,5.209,5.6522,6.2039,6.7724,7.2973,7.6332,8.1775,8.5956,8.7943,9.0497,9.1894,9.227,9.3988,9.5655,9.6609,9.8628,10.1281,10.3497,10.6365,10.8522,10.9723,11.1011,11.2438,11.4624,11.414,11.4692,11.5479,11.6873,11.7469,11.7766,11.8604,12.0604,12.3095,12.5132,12.7365,12.9613,13.1557,13.2943,13.3791,13.4053,13.504,-12.8654,-12.8654,-12.8654,-12.8654,-12.8654,-12.8654,-12.918,-12.9857,-12.8431,-12.6775,-12.527,-12.5196,-12.5196,-12.5346,-12.6925,-12.764,-12.7829,-13.02,-13.178,-13.2644,-13.4299,-13.5162,-13.5196,-13.5036,-13.5356,-13.5968,-13.575,-13.5651,-13.5572,-13.632,-13.5788,-13.3964,-13.2018,-12.9372,-12.6132,-12.1864,-11.7868,-11.4023,-11.0307,-10.599,-10.1328,-9.8863,-9.5633,-9.1168,-8.9619,-8.7773,-8.6026,-8.1447,-7.6271,-7.0941,-6.1762,-5.0534,-3.7621,-3.0321,-2.1358,-1.0503,-0.7086,-0.3566,0.0324,0.2624,0.4628,0.6315,1.0116,1.4229,1.809,2.4156,2.9232,3.1993,3.4498,3.657,3.8146,4.2318,4.6766,5.1638,5.4778,5.898,6.4631,6.9456,7.378,7.8517,8.3303,8.7445,9.0574,9.2783,9.4176,9.4616,9.5363,9.6691,9.8299,9.9325,10.0503,10.2012,10.443,10.6588,10.8146,10.953,11.1243,11.3364,11.4285,11.5088,11.6078,11.7716,11.8949,11.9243,12.0895,12.3147,12.5413,12.7641,12.9885,13.2147,13.3264,13.3527,13.3791,13.4315,13.5299,-12.8614,-12.8614,-12.8614,-12.8654,-12.8654,-12.888,-12.888,-12.8579,-12.7075,-12.527,-12.3466,-12.3466,-12.3466,-12.3541,-12.5195,-12.5947,-12.6173,-12.888,-13.0383,-13.091,-13.2338,-13.2489,-13.1662,-13.2665,-13.3254,-13.3419,-13.4401,-13.4852,-13.4824,-13.4974,-13.4538,-13.3454,-13.2837,-13.0729,-12.6748,-12.2382,-11.771,-11.3001,-10.9208,-10.4919,-9.996,-9.815,-9.3992,-8.7395,-8.7623,-8.6005,-8.1955,-7.724,-7.1804,-6.4928,-5.467,-4.4033,-3.3373,-2.3752,-1.5342,-0.844,-0.4392,-0.1262,0.1276,0.2259,0.4563,0.8549,1.3009,1.7983,2.346,2.8616,3.2271,3.3126,3.5886,3.8305,3.9586,4.425,4.9395,5.433,5.7552,6.1964,6.8397,7.0446,7.3959,8.1553,8.44,8.7771,9.2291,9.3874,9.4397,9.496,9.5242,9.636,9.8012,9.8997,9.8948,9.9442,10.1695,10.4169,10.6519,10.8618,11.0674,11.3172,11.5186,11.6429,11.732,11.9193,12.0655,12.0946,12.3408,12.5906,12.7695,12.9994,13.1779,13.3207,13.3527,13.3791,13.4053,13.478,13.5815,-12.8374,-12.8299,-12.8491,-12.8574,-12.8654,-13.0083,-13.0007,-12.8579,-12.7075,0.0,0.0,-12.1736,-12.1736,-12.1887,-12.3503,-12.4331,-12.4293,-12.4857,-12.6587,-12.9105,-12.9406,-13.091,-13.3166,-13.2064,-13.2084,-13.3269,-13.2079,-13.1409,-13.1384,-13.273,-13.2652,-13.1428,-13.2103,-13.1895,-13.015,-12.4624,-11.9007,-11.3808,-11.0451,-10.5565,-9.9316,-9.7665,-9.3137,-8.4532,-8.2598,-7.9711,-7.5373,-6.7673,-6.1765,-5.8408,-4.6715,-3.564,-2.5902,-1.9327,-1.1911,-0.3616,-0.1526,0.0,0.2157,0.3739,0.5335,0.7861,1.4971,2.1388,2.6016,2.8904,3.219,3.5726,3.5933,3.7813,4.1546,4.4926,4.9019,5.455,5.7359,6.1355,6.7391,7.1049,7.5723,8.0505,8.5364,8.9253,9.1621,9.3109,9.4115,9.4317,9.488,9.6028,9.6691,9.727,9.7557,9.8755,10.0467,10.2379,10.4685,10.6779,10.8873,11.4112,11.5729,11.6841,11.9173,12.1236,12.2679,12.3717,12.6261,12.8558,13.0486,13.1954,13.3206,13.3696,13.3791,13.3791,13.4519,13.6073,13.7544,-12.7838,-12.7194,-12.7988,-12.8374,0.0,-12.94,-12.8383,-12.5938,-12.4366,-12.23,-12.0007,-12.0007,-12.0007,-12.0082,-12.1773,-12.2074,-12.136,-12.3052,-12.4707,-12.6248,-12.7075,-12.8428,-13.0007,-12.9768,-13.0013,-13.0794,-13.0608,-13.0462,-13.0487,-13.131,-13.0662,-12.8799,-13.0094,-12.8914,-12.5641,-12.4458,-12.0359,-11.3065,-10.9999,-10.5371,-9.9004,-9.7809,-9.3193,-8.4677,-8.3258,0.0,0.0,0.0,0.0,0.0,0.0,0.0,0.0,-1.5136,0.0,-0.1711,0.1393,0.3305,0.3886,0.5302,0.6835,0.8874,1.362,1.9434,2.6753,3.1357,3.4585,3.6004,3.707,3.9506,4.3602,4.6983,5.0917,5.6411,6.0725,6.4906,6.9976,7.4028,7.7963,8.2312,8.5593,8.8344,9.006,9.1256,9.2339,9.3218,9.4107,9.5171,9.6197,9.5587,9.5099,9.6322,9.9145,10.2694,10.5925,10.8402,11.181,11.5443,11.7885,11.9145,12.0742,12.3199,12.5185,12.6027,12.8403,13.0434,13.1455,13.2593,13.3672,13.3696,13.4053,13.4666,13.5721,13.6615,13.779,-12.6355,-12.5156,-12.67,-12.7344,-12.7238,-12.6755,-12.4762,-12.1859,-12.0676,-11.9443,-11.8166,-11.8617,-11.8804,-11.8879,-12.0194,-12.0119,-11.8954,-12.1623,-12.3052,-12.3391,-12.4744,-12.5571,-12.5908,-12.6948,-12.7569,-12.7899,-12.8988,-12.9564,-12.9515,-12.9814,-12.881,-12.6544,-12.7846,-12.5931,-12.1133,0.0,0.0,0.0,-10.7932,-10.3715,-9.8203,-9.7046,-9.2461,-8.4607,-8.4066,0.0,-7.2685,-6.4994,-5.7599,-5.0207,-3.9707,0.0,-2.1048,0.0,0.0,0.0,0.0,0.0,0.0,0.0,0.0,0.0,1.3631,1.8743,2.7281,3.328,3.6334,3.5767,3.8726,4.1902,4.4839,4.8488,5.2788,5.7943,6.3224,6.8377,7.2968,7.594,7.9569,8.3834,8.5111,8.6413,8.8109,8.9142,9.0496,9.1845,9.3018,9.4403,9.5709,9.3959,9.3354,9.4571,9.8762,10.3456,10.7776,11.1351,11.4459,11.7653,12.0095,12.1691,12.255,12.4921,12.7141,12.7971,12.9885,13.1557,13.1812,13.2607,13.3339,13.3375,13.3782,13.4841,13.6607,13.7348,13.831,-12.2757,-12.1531,-12.3194,-12.3913,-12.3688,-12.0884,-11.8388,-11.632,-11.6729,-11.6509,-11.6004,-11.7903,-11.8804,-11.8804,-11.9029,-11.8954,-11.8804,-11.9255,-12.0232,-12.1661,-12.1812,-12.2676,-12.3951,-12.4211,-12.4837,-12.6085,-12.6264,-12.6246,-12.6225,-12.7646,-12.7063,-12.4702,-12.6653,-12.621,-12.33,-12.028,-11.4626,-10.6571,-10.3405,-10.0038,-9.6379,-9.3994,-8.9038,-8.2173,-7.9972,-7.4769,-6.5854,-5.7952,-5.0769,-4.4116,-3.661,-2.8475,-1.9716,-1.6731,-1.1026,0.0,0.1244,0.0,0.0,0.0,0.0,0.0,0.0,0.0,0.0,3.1995,3.3923,3.5538,4.0234,4.3201,4.3241,4.6983,5.196,5.7633,6.122,6.6291,7.33,7.5401,7.7959,8.2176,8.3428,8.4672,8.6467,8.7842,8.9306,9.0417,9.1982,9.3191,9.3232,9.299,9.3794,9.5963,9.8187,10.2521,10.8953,11.2453,11.5162,11.8653,12.117,12.3426,12.459,12.6114,12.7917,13.0371,13.1123,13.1645,13.1802,13.2154,13.2332,13.2191,13.2412,13.3646,13.6878,13.8799,14.0598,-11.9299,-11.7999,-11.969,-11.9211,-11.7191,-11.5815,-11.4439,-11.3466,-11.4005,-11.4186,-11.4141,-11.5384,-11.5986,-11.6097,-11.6022,-11.6022,-11.6172,-11.7074,-11.8353,-11.9932,-12.0759,-12.1547,-12.2258,-12.3036,-12.3208,-12.2969,-12.3851,-12.4253,-12.4206,-12.4954,-12.4284,-12.2283,-12.3769,-12.0127,-11.1643,-11.2403,-11.1437,-10.8291,-10.3606,-9.9045,-9.4934,-9.2936,-8.9168,-8.3585,-8.0431,-7.4418,-6.5464,-5.7918,-5.0372,-4.3334,-3.534,-2.8005,-2.0786,-1.6612,-1.1142,0.0,0.0,0.0,0.0,0.0,0.0,0.0,0.0,0.0,0.0,0.0,3.3788,3.8172,4.1765,4.3705,4.3233,4.6623,5.1551,5.8261,6.2373,6.6801,7.3219,7.473,7.6989,8.0712,8.1095,8.1896,8.3778,8.5958,8.7921,8.93,9.2077,9.3795,9.3837,9.4771,9.5578,9.7018,9.9038,10.2549,10.917,11.4238,11.8038,12.0147,12.2277,12.3693,12.4239,12.6241,12.791,12.9294,13.0083,13.0699,13.1026,13.1369,13.202,13.209,13.2452,13.4164,13.7269,13.9356,14.079,-11.6217,-11.4201,-11.2826,-11.1033,-10.9003,-10.9027,-10.9277,-10.9627,-11.0147,-11.0612,-11.1031,-11.147,-11.122,-11.0168,-10.9001,-10.9412,-11.1025,-11.2713,-11.5004,-11.7564,-11.8767,-11.929,-11.9326,-12.036,-12.0423,-11.963,-12.0737,-12.1514,-12.1888,-12.1888,-12.0243,-11.7114,-11.731,-11.1485,-10.0064,-10.3385,-10.6005,-10.7104,-10.2862,-9.841,-9.3779,-9.2144,-8.9154,-8.4677,-8.0429,-7.3751,-6.4668,-5.6747,-4.9474,-4.2469,-3.4151,-2.7432,-2.2532,-1.6545,0.0,0.0,0.0,0.0,0.0,0.0,0.0,0.0,0.0,2.851,2.9139,0.0,3.4751,0.0,4.2958,4.4324,4.3762,4.6801,0.0,0.0,6.1966,6.6023,7.1484,7.3081,7.52,7.8323,7.8556,7.9125,8.1398,8.4243,8.6807,8.9102,9.2606,9.4981,9.4759,9.5975,9.705,9.865,10.0618,10.4055,10.944,11.5653,11.9939,12.1062,12.2573,12.376,12.3756,12.6198,12.7892,12.8411,12.9017,12.9558,13.0066,13.0538,13.1002,13.1053,13.2585,13.454,13.6429,13.8577,14.0193,-11.3856,-11.0049,-9.9705,-9.6623,-9.8541,-9.8902,-10.0422,-10.2883,-10.3434,-10.4225,-10.5341,-10.5945,-10.3702,-9.9188,-9.504,0.0,-10.2365,-10.4279,-10.8342,-11.411,-11.4223,-11.4222,-11.3949,-11.4099,-11.4764,-11.6055,-11.6205,-11.7027,-11.8523,-11.8688,-11.4634,-10.6719,-10.4851,-10.0975,-9.5135,-9.4914,-9.5763,-9.713,-9.7707,-9.6571,-9.3487,-9.1049,-8.758,-8.2745,-7.7944,-7.0371,-5.9319,-5.0857,-4.4133,-3.8949,-3.1921,-2.6863,-2.4076,0.0,0.0,0.0,0.0,0.0,0.0,0.0,0.0,0.0,0.0,0.0,0.0,0.0,0.0,3.9932,4.384,0.0,4.4229,4.737,0.0,0.0,0.0,6.034,6.752,6.9551,7.1541,7.4871,0.0,0.0,7.8855,8.2815,8.693,9.0571,9.3356,9.4906,9.4803,9.5268,9.6939,10.0445,10.3266,10.6559,11.061,11.5156,11.845,11.9747,12.1989,12.3431,12.4037,12.617,12.8243,12.9217,12.9051,12.8512,12.9704,12.9225,12.8517,12.872,13.1396,13.3861,13.4508,13.7261,13.9774,-10.1089,-9.4578,-8.8161,-8.7612,-9.0965,-9.1305,-9.4185,-9.8615,-9.9187,-9.8572,-9.7313,-9.6803,-9.3323,-8.7721,-8.6027,0.0,0.0,0.0,-9.8441,-10.4656,-10.6495,-10.9449,-11.2914,-11.3257,-11.4154,-11.5606,-11.5681,-11.6367,-11.7742,-11.7693,-10.6555,-8.5564,0.0,-8.4524,-7.9469,-8.4856,-8.9457,-9.2667,-9.3373,-9.4057,-9.4604,-8.9934,-8.4704,-7.8915,-7.3332,-6.4823,-5.3399,-4.6056,-3.8947,-3.1968,-2.6293,-2.1909,0.0,0.0,0.0,0.0,0.0,0.0,0.0,0.0,0.0,0.0,0.0,2.886,2.7018,0.0,0.0,0.0,3.7579,3.8738,3.9976,4.3868,0.0,0.0,0.0,0.0,0.0,0.0,0.0,6.961,7.1378,7.3741,7.8087,8.4238,8.8479,8.9838,9.3999,9.6898,9.7278,0.0,9.9934,10.2547,10.5097,10.7754,11.1169,11.3099,11.4881,11.7498,12.0163,12.1801,12.1923,12.3585,12.4753,12.5496,12.5835,12.598,12.6463,12.7493,12.8372,12.9142,13.1889,13.385,13.391,13.6423,13.8637,-8.6543,0.0,0.0,0.0,0.0,-8.1994,-8.4932,-8.9432,-9.0398,-8.9291,-8.6815,-8.5967,0.0,0.0,0.0,0.0,0.0,0.0,-9.0537,-9.7132,-10.1811,-10.64,-11.0658,-11.0899,-11.1542,-11.2587,-11.2139,-11.1581,-11.0791,-10.8179,-9.4349,-7.0453,0.0,0.0,0.0,0.0,-8.2178,-8.6673,-8.9547,-9.162,-9.3572,-8.8887,-8.4026,-7.9092,-7.0077,-5.9608,-4.8009,-4.0377,-3.3008,-2.6022,-2.0529,0.0,0.0,0.0,0.0,0.0,0.0,0.0,0.0,0.0,0.0,0.0,0.0,0.0,0.0,0.0,0.0,0.0,0.0,0.0,3.7521,4.2181,4.6344,0.0,0.0,0.0,0.0,0.0,0.0,0.0,0.0,0.0,7.5823,8.3925,8.9228,0.0,0.0,9.8578,9.9005,10.0267,10.1882,10.3903,10.5325,0.0,11.0021,11.0871,11.2086,11.4702,11.7353,11.8673,11.8096,11.9312,12.0304,11.9805,12.1764,12.2864,12.2064,12.2723,12.3802,12.5484,12.737,12.898,12.9636,13.226,13.4466,0.0,0.0,0.0,0.0,-6.7854,0.0,0.0,0.0,-7.4958,-7.4898,0.0,-7.3381,0.0,0.0,0.0,0.0,-6.9629,-7.7851,0.0,0.0,-10.1512,-10.5611,-10.5266,-10.5218,-10.5366,-10.5366,-10.3705,-10.0295,-9.5119,-8.6596,-7.6891,0.0,0.0,0.0,0.0,0.0,-7.2764,-7.7341,-8.5876,-8.9977,-8.9476,-8.8594,-8.6936,-8.4076,-6.9444,-5.5405,-4.329,-3.3341,-2.6314,-2.286,-1.4788,0.0,0.0,0.0,0.0,0.0,0.0,0.0,0.0,0.0,0.0,0.0,0.0,0.0,0.0,0.0,0.0,0.0,0.0,0.0,0.0,4.376,0.0,0.0,0.0,0.0,0.0,0.0,0.0,0.0,0.0,7.1592,7.1172,8.0471,8.7893,9.0371,0.0,0.0,0.0,0.0,10.1621,10.3296,10.365,10.4507,10.6603,10.8816,11.038,11.1167,0.0,0.0,11.2127,11.3815,11.4886,11.3064,11.7088,11.948,11.5772,11.3578,11.3132,11.4774,11.6336,11.7577,11.9055,12.3016,12.6444,0.0,0.0,0.0,0.0,0.0,0.0,0.0,0.0,0.0,-6.833,-6.6005,-6.4833,0.0,0.0,0.0,0.0,0.0,0.0,0.0,0.0,-8.4562,-8.8842,-9.0792,-9.3821,-9.4147,-9.2115,-9.041,-8.3875,0.0,0.0,0.0,0.0,0.0,0.0,0.0,0.0,-6.7794,-7.3271,-8.1667,-8.6652,-8.7882,-8.4618,-8.2406,-8.1856,-7.0126,-5.5084,-3.6477,-2.7947,-2.0996,0.0,0.0,0.0,0.0,0.0,0.0,0.0,0.0,0.0,0.0,0.0,0.0,0.0,0.0,0.0,0.0,0.0,0.0,0.0,0.0,0.0,0.0,0.0,4.2599,0.0,0.0,0.0,0.0,0.0,0.0,0.0,0.0,0.0,6.713,7.7181,8.4462,8.4689,8.891,9.2675,9.5027,0.0,0.0,0.0,0.0,0.0,0.0,0.0,10.6826,10.7438,10.5845,10.4374,10.4279,10.6254,10.7876,10.7388,0.0,0.0,10.1663,10.1003,10.2966,10.5146,10.7646,10.9479,11.0838,11.3853,11.6685,0.0,0.0,0.0,0.0,0.0,0.0,0.0,0.0,0.0,-5.881,-5.6348,0.0,0.0,0.0,0.0,0.0,0.0,0.0,0.0,0.0,0.0,0.0,-8.1317,-8.5009,0.0,0.0,0.0,0.0,0.0,0.0,0.0,0.0,0.0,0.0,0.0,0.0,-6.4246,-6.9191,-7.8338,-8.3963,-8.5214,-8.0996,-7.8507,-7.7906,-6.8481,-5.4816,-3.7267,0.0,0.0,0.0,-0.5694,0.0,0.0,0.0,0.0,0.0,0.0,0.0,0.0,0.0,0.0,0.0,0.0,0.0,0.0,0.0,0.0,0.0,0.0,0.0,0.0,0.0,3.8905,0.0,0.0,0.0,0.0,0.0,0.0,0.0,0.0,0.0,0.0,7.2142,7.9192,7.9862,8.4456,8.9274,9.3071,9.6307,9.9875,0.0,0.0,0.0,0.0,0.0,0.0,0.0,0.0,0.0,0.0,0.0,0.0,0.0,9.9733,9.8853,9.0697,9.0498,9.2573,9.4911,0.0,0.0,0.0,0.0,0.0,0.0,0.0,0.0,0.0,0.0,0.0,0.0,0.0,0.0,0.0,-4.42,0.0,0.0,-4.2871,0.0,0.0,0.0,0.0,0.0,0.0,0.0,0.0,0.0,0.0,0.0,0.0,0.0,0.0,0.0,0.0,0.0,0.0,0.0,0.0,0.0,0.0,-6.1881,-6.4443,-7.6136,-8.1764,-8.064,-7.8423,-7.5925,-7.2905,-6.4133,-5.478,-4.5123,0.0,0.0,0.0,0.0,0.0,0.0,0.0,0.0,0.0,0.0,0.0,0.0,0.0,0.0,0.0,0.0,0.0,0.0,0.0,0.0,0.0,0.0,0.0,0.0,0.0,0.0,3.961,4.6164,5.0446,0.0,0.0,0.0,0.0,0.0,0.0,0.0,0.0,0.0,7.6153,8.3165,8.944,9.3486,9.6469,9.9239,10.3161,10.1932,10.1974,10.547,10.4904,10.2793,0.0,0.0,0.0,0.0,0.0,0.0,0.0,0.0,0.0,0.0,0.0,0.0,0.0,0.0,0.0,0.0,0.0,0.0,0.0,0.0,0.0,0.0,0.0,0.0,0.0,0.0,0.0,0.0,-4.5148,-4.2883,0.0,0.0,0.0,0.0,0.0,0.0,0.0,0.0,0.0,0.0,0.0,0.0,0.0,0.0,0.0,0.0,0.0,0.0,0.0,0.0,0.0,0.0,0.0,0.0,-5.8288,-6.156,-7.0849,-7.5807,-7.6167,-7.3954,-7.1941,-7.0112,-6.2277,-5.3503,-4.3434,0.0,0.0,0.0,0.0,0.0,0.0,0.0,0.0,0.0,0.0,0.0,0.0,0.0,0.0,0.0,0.0,0.0,0.0,0.0,0.0,0.0,0.0,0.0,0.0,0.0,0.0,0.0,4.4498,4.7872,4.8608,0.0,0.0,0.0,0.0,0.0,0.0,0.0,0.0,0.0,0.0,8.2367,8.6628,9.0996,9.5348,9.8834,10.0729,10.3047,10.611,10.4423,10.1802,9.9033,0.0,0.0,0.0,0.0,0.0,0.0,0.0,0.0,0.0,0.0,0.0,0.0,0.0,0.0,0.0,0.0,0.0,0.0,0.0,0.0,0.0,0.0,0.0,0.0,0.0,-4.2785,-4.2486,-4.3279,-4.1083,0.0,0.0,0.0,0.0,0.0,0.0,0.0,0.0,0.0,0.0,0.0,0.0,0.0,0.0,0.0,0.0,0.0,0.0,0.0,0.0,0.0,0.0,0.0,0.0,-5.5056,-5.9221,-6.7357,-7.2027,-7.2922,-7.1077,-6.9071,-6.745,-5.991,-5.095,0.0,0.0,0.0,0.0,0.0,0.0,0.0,0.0,0.0,0.0,0.0,0.0,0.0,0.0,0.0,0.0,0.0,0.0,0.0,0.0,0.0,0.0,0.0,0.0,0.0,0.0,0.0,0.0,4.1149,4.4709,4.5711,0.0,0.0,0.0,0.0,0.0,0.0,0.0,0.0,0.0,0.0,7.8237,8.232,8.6823,0.0,0.0,9.8212,10.0511,10.5478,10.3225,9.9728,9.5606,9.1188,0.0,0.0,0.0,0.0,0.0,0.0,0.0,0.0,0.0,0.0,0.0,0.0,0.0,0.0,0.0,0.0,0.0,0.0,0.0,0.0,0.0,0.0,0.0,0.0,0.0,0.0,-3.958,-3.8058,0.0,0.0,0.0,0.0,0.0,0.0,0.0,0.0,0.0,0.0,0.0,0.0,0.0,0.0,0.0,0.0,0.0,0.0,0.0,0.0,0.0,0.0,0.0,0.0,-5.2297,-5.6957,-6.5148,-6.9718,-7.0597,-6.898,-6.7251,-6.4662,-5.7164,-4.8024,0.0,0.0,0.0,0.0,0.0,0.0,0.0,0.0,0.0,0.0,0.0,0.0,0.0,0.0,0.0,0.0,0.0,0.0,0.0,0.0,0.0,0.0,0.0,0.0,0.0,0.0,0.0,0.0,0.0,0.0,0.0,0.0,0.0,0.0,0.0,0.0,0.0,0.0,0.0,0.0,0.0,7.6883,8.0405,8.4211,8.877,0.0,9.4172,9.5313,10.2997,10.1438,9.706,9.0266,0.0,0.0,0.0,0.0,0.0,0.0,0.0,0.0,0.0,0.0,0.0,0.0,0.0,0.0,0.0,0.0,0.0,0.0,0.0,0.0,0.0,0.0,0.0,0.0,0.0,0.0,0.0,0.0,0.0,0.0,0.0,0.0,0.0,0.0,0.0,0.0,0.0,0.0,0.0,0.0,0.0,0.0,0.0,0.0,0.0,0.0,0.0,0.0,0.0,0.0,0.0,0.0,0.0,0.0,-5.0956,-6.0029,-6.5037,-6.5246,-6.4819,-6.4302,-6.3147,-5.5402,0.0,0.0,0.0,0.0,0.0,0.0,0.0,0.0,0.0,0.0,0.0,0.0,0.0,0.0,0.0,0.0,0.0,0.0,0.0,0.0,0.0,0.0,0.0,0.0,0.0,0.0,0.0,2.7693,0.0,0.0,0.0,0.0,0.0,0.0,0.0,0.0,0.0,0.0,0.0,0.0,0.0,0.0,7.7271,8.2125,8.3025,8.4558,0.0,0.0,9.1834,9.3541,9.4951,9.409,0.0,0.0,0.0,0.0,0.0,0.0,0.0,0.0,0.0,0.0,0.0,0.0,0.0,0.0,0.0,0.0,0.0,0.0,0.0,0.0,0.0,0.0,0.0,0.0,0.0,0.0,0.0,0.0,0.0,0.0,0.0,0.0,0.0,0.0,0.0,0.0,0.0,0.0,0.0,0.0,0.0,0.0,0.0,0.0,0.0,0.0,0.0,0.0,0.0,0.0,0.0,0.0,0.0,0.0,-4.5115,-4.8523,-5.6078,-6.0956,-6.2776,-6.269,-6.2311,-6.1386,-5.3766,-4.484,0.0,0.0,0.0,0.0,0.0,0.0,0.0,0.0,0.0,0.0,0.0,0.0,0.0,0.0,0.0,0.0,0.0,0.0,0.0,0.0,0.0,0.0,0.0,0.0,0.0,0.0,0.0,0.0,0.0,0.0,0.0,0.0,0.0,0.0,0.0,0.0,0.0,0.0,0.0,0.0,0.0,0.0,7.9832,7.9646,0.0,0.0,0.0,8.6773,8.9593,0.0,0.0,0.0,0.0,0.0,0.0,0.0,0.0,0.0,0.0,0.0,0.0,0.0,0.0,0.0,0.0,0.0,0.0,0.0,0.0,0.0,0.0,0.0,0.0,0.0,0.0,0.0,0.0,0.0,0.0,0.0,0.0,0.0,0.0,0.0,0.0,0.0,0.0,0.0,0.0,0.0,0.0,0.0,0.0,0.0,0.0,0.0,0.0,0.0,0.0,0.0,0.0,0.0,0.0,0.0,0.0,0.0,-4.7669,-5.3403,-5.8049,-6.1644,-6.1177,-6.0523,-5.9387,-5.2002,-4.3662,0.0,0.0,0.0,0.0,0.0,0.0,0.0,0.0,0.0,0.0,0.0,0.0,0.0,0.0,0.0,0.0,0.0,0.0,0.0,0.0,0.0,0.0,0.0,0.0,0.0,0.0,0.0,0.0,0.0,0.0,0.0,0.0,0.0,0.0,0.0,0.0,0.0,0.0,0.0,0.0,0.0,7.7291,7.6825,7.6345,7.7061,0.0,0.0,8.1266,8.7647,8.6928,0.0,0.0,0.0,0.0,0.0,0.0,0.0,0.0,0.0,0.0,0.0,0.0,0.0,0.0,0.0,0.0,0.0,0.0,0.0,0.0,0.0,0.0,0.0,0.0,0.0,0.0,0.0,0.0,0.0,0.0,0.0,0.0,0.0,0.0,0.0,0.0,0.0,0.0,0.0,0.0,0.0,0.0,0.0,0.0,0.0,0.0,0.0,0.0,0.0,0.0,0.0,0.0,0.0,0.0,0.0,0.0,-4.5189,-5.3872,-5.8344,-5.8136,-5.8231,-5.7926,-5.7233,-4.9736,-4.2011,0.0,0.0,0.0,0.0,0.0,0.0,0.0,0.0,0.0,0.0,0.0,0.0,0.0,0.0,0.0,0.0,0.0,0.0,0.0,0.0,0.0,0.0,0.0,0.0,0.0,0.0,0.0,0.0,0.0,0.0,0.0,0.0,0.0,0.0,0.0,0.0,0.0,0.0,0.0,0.0,0.0,7.6012,8.186,7.7909,0.0,0.0,0.0,0.0,7.9108,7.8258,0.0,0.0,0.0,0.0,0.0,0.0,0.0,0.0,0.0,0.0,0.0,0.0,0.0,0.0,0.0,0.0,0.0,0.0,0.0,0.0,0.0,0.0,0.0,0.0,0.0,0.0,0.0,0.0,0.0,0.0,0.0,0.0,0.0,0.0,0.0,0.0,0.0,0.0,0.0,0.0,0.0,0.0,0.0,0.0,0.0,0.0,0.0,0.0,0.0,0.0,0.0,0.0,0.0,0.0,0.0,0.0,-4.5937,-5.2588,-5.6677,-5.7591,-5.7499,-5.6873,-5.572,-4.8822,-4.168,0.0,0.0,0.0,0.0,0.0,0.0,0.0,0.0,0.0,0.0,0.0,0.0,0.0,0.0,0.0,0.0,0.0,0.0,0.0,0.0,0.0,0.0,0.0,0.0,0.0,0.0,0.0,0.0,0.0,0.0,0.0,0.0,0.0,0.0,0.0,0.0,0.0,0.0,0.0,0.0,7.4076,7.6181,8.0753,0.0,0.0,0.0,0.0,0.0,0.0,7.3847,7.2396,0.0,0.0,0.0,0.0,0.0,0.0,0.0,0.0,0.0,0.0,0.0,0.0,0.0,0.0,0.0,0.0,0.0,0.0,0.0,0.0,0.0,0.0,0.0,0.0,0.0,0.0,0.0,0.0,0.0,0.0,0.0,0.0,0.0,0.0,0.0,0.0,0.0,0.0,0.0,0.0,0.0,0.0,0.0,0.0,0.0,0.0,0.0,0.0,0.0,0.0,0.0,0.0,0.0,0.0,0.0,-4.655,-5.0819,-5.4386,-5.754,-5.6977,-5.5712,-5.3827,-4.836,-4.1732,-3.3898,0.0,0.0,0.0,0.0,0.0,0.0,0.0,0.0,0.0,0.0,0.0,0.0,0.0,0.0,0.0,0.0,0.0,0.0,0.0,0.0,0.0,0.0,0.0,0.0,0.0,0.0,0.0,0.0,0.0,0.0,0.0,0.0,0.0,0.0,0.0,0.0,0.0,0.0,0.0,7.3901,7.6282,0.0,0.0,0.0,0.0,0.0,0.0,0.0,0.0,6.9306,0.0,0.0,0.0,0.0,0.0,0.0,0.0,0.0,0.0,0.0,0.0,0.0,0.0,0.0,0.0,0.0,0.0,0.0,0.0,0.0,0.0,0.0,0.0,0.0,0.0,0.0,0.0,0.0,0.0,0.0,0.0,0.0,0.0,0.0,0.0,0.0,0.0,0.0,0.0,0.0,0.0,0.0,0.0,0.0,0.0,0.0,0.0,0.0,0.0,0.0,0.0,0.0,0.0,0.0,0.0,0.0,-4.8647,-5.3168,-5.6136,-5.4784,-5.2738,-5.0625,-4.742,-4.1322,-3.2198,0.0,0.0,0.0,0.0,0.0,0.0,0.0,0.0,0.0,0.0,0.0,0.0,0.0,0.0,0.0,0.0,0.0,0.0,0.0,0.0,0.0,0.0,0.0,0.0,0.0,0.0,0.0,0.0,0.0,0.0,0.0,0.0,0.0,0.0,0.0,0.0,0.0,0.0,6.523,7.0257,0.0,0.0,0.0,0.0,0.0,0.0,0.0,0.0,6.7335,0.0,0.0,0.0,0.0,0.0,0.0,0.0,0.0,0.0,0.0,0.0,0.0,0.0,0.0,0.0,0.0,0.0,0.0,0.0,0.0,0.0,0.0,0.0,0.0,0.0,0.0,0.0,0.0,0.0,0.0,0.0,0.0,0.0,0.0,0.0,0.0,0.0,0.0,0.0,0.0,0.0,0.0,0.0,0.0,0.0,0.0,0.0,0.0,0.0,0.0,0.0,0.0,0.0,0.0,0.0,0.0,0.0,0.0,-5.164,-5.4714,-5.388,-5.2245,-5.0137,-4.5741,-3.8976,0.0,0.0,0.0,0.0,0.0,0.0,0.0,0.0,0.0,0.0,0.0,0.0,0.0,0.0,0.0,0.0,0.0,0.0,0.0,0.0,0.0,0.0,0.0,0.0,0.0,0.0,0.0,0.0,0.0,0.0,0.0,0.0,0.0,0.0,0.0,0.0,0.0,0.0,0.0,0.0,0.0,0.0,0.0,0.0,0.0,0.0,0.0,0.0,0.0,0.0,0.0,0.0,0.0,0.0,0.0,0.0,0.0,0.0,0.0,0.0,0.0,0.0,0.0,0.0,0.0,0.0,0.0,0.0,0.0,0.0,0.0,0.0,0.0,0.0,0.0,0.0,0.0,0.0,0.0,0.0,0.0,0.0,0.0,0.0,0.0,0.0,0.0,0.0,0.0,0.0,0.0,0.0,0.0,0.0,0.0,0.0,0.0,0.0,0.0,0.0,0.0,0.0,0.0,0.0,0.0,0.0,0.0,0.0,-4.9588,-5.2874,-5.2927,-5.1686,-4.9783,-4.3967,-3.6879,0.0,0.0,0.0,0.0,0.0,0.0,0.0,0.0,0.0,0.0,0.0,0.0,0.0,0.0,0.0,0.0,0.0,0.0,0.0,0.0,0.0,0.0,0.0,0.0,0.0,0.0,0.0,0.0,0.0,0.0,0.0,0.0,0.0,0.0,0.0,0.0,0.0,0.0,0.0,0.0,0.0,0.0,0.0,0.0,0.0,0.0,0.0,0.0,6.5902,0.0,0.0,0.0,0.0,0.0,0.0,0.0,0.0,0.0,0.0,0.0,0.0,0.0,0.0,0.0,0.0,0.0,0.0,0.0,0.0,0.0,0.0,0.0,0.0,0.0,0.0,0.0,0.0,0.0,0.0,0.0,0.0,0.0,0.0,0.0,0.0,0.0,0.0,0.0,0.0,0.0,0.0,0.0,0.0,0.0,0.0,0.0,0.0,0.0,0.0,0.0,0.0,0.0,0.0,0.0,0.0,0.0,0.0,0.0,-4.6603,-5.0013,-5.0577,-4.9714,-4.6645,-4.2529,-3.6028,0.0,0.0,0.0,0.0,0.0,0.0,0.0,0.0,0.0,0.0,0.0,0.0,0.0,0.0,0.0,0.0,0.0,0.0,0.0,0.0,0.0,0.0,0.0,0.0,0.0,0.0,0.0,0.0,0.0,0.0,0.0,0.0,0.0,0.0,0.0,0.0,0.0,0.0,0.0,0.0,0.0,0.0,0.0,0.0,0.0,0.0,0.0,0.0,0.0,0.0,0.0,0.0,0.0,0.0,0.0,0.0,0.0,0.0,0.0,0.0,0.0,0.0,0.0,0.0,0.0,0.0,0.0,0.0,0.0,0.0,0.0,0.0,0.0,0.0,0.0,0.0,0.0,0.0,0.0,0.0,0.0,0.0,0.0,0.0,0.0,0.0,0.0,0.0,0.0,0.0,0.0,0.0,0.0,0.0,0.0,0.0,0.0,0.0,0.0,0.0,0.0,0.0,0.0,0.0,0.0,0.0,0.0,0.0,-4.222,-4.5422,-4.7883,-4.6924,-4.2333,-3.6783,-3.0416,0.0,0.0,0.0,0.0,0.0,0.0,0.0,0.0,0.0,0.0,0.0,0.0,0.0,0.0,0.0,0.0,0.0,0.0,0.0,0.0,0.0,0.0,0.0,0.0,0.0,0.0,0.0,0.0,0.0,0.0,0.0,0.0,0.0,0.0,0.0,0.0,0.0,0.0,0.0,0.0,0.0,0.0,0.0,0.0,0.0,0.0,0.0,0.0,0.0,0.0,0.0,0.0,0.0,0.0,0.0,0.0,0.0,0.0,0.0,0.0,0.0,0.0,0.0,0.0,0.0,0.0,0.0,0.0,0.0,0.0,0.0,0.0,0.0,0.0,0.0,0.0,0.0,0.0,0.0,0.0,0.0,0.0,0.0,0.0,0.0,0.0,0.0,0.0,0.0,0.0,0.0,0.0,0.0,0.0,0.0,0.0,0.0,0.0,0.0,0.0,0.0,0.0,0.0,0.0,0.0,0.0,0.0,0.0,0.0,-4.0953,-4.3727,-4.2529,-3.7181,-3.131,-2.527,0.0,0.0,0.0,0.0,0.0,0.0,0.0,0.0,0.0,0.0,0.0,0.0,0.0,0.0,0.0,0.0,0.0,0.0,0.0,0.0,0.0,0.0,0.0,0.0,0.0,0.0,0.0,0.0,0.0,0.0,0.0,0.0,0.0,0.0,0.0,0.0,0.0,0.0,0.0,0.0,0.0,0.0,0.0,0.0,0.0,0.0,0.0,0.0,0.0,0.0,0.0,0.0,0.0,0.0,0.0,0.0,0.0,0.0,0.0,0.0,0.0,0.0,0.0,0.0,0.0,0.0,0.0,0.0,0.0,0.0,0.0,0.0,0.0,0.0,0.0,0.0,0.0,0.0,0.0,0.0,0.0,0.0,0.0,0.0,0.0,0.0,0.0,0.0,0.0,0.0,0.0,0.0,0.0,0.0,0.0,0.0,0.0,0.0,0.0,0.0,0.0,0.0,0.0,0.0,0.0,0.0,0.0,0.0,0.0,-3.7045,-3.7408,-3.5697,-3.1593,-2.7171,-2.2269,0.0,0.0,0.0,0.0,0.0,0.0,0.0,0.0,0.0,0.0,0.0,0.0,0.0,0.0,0.0,0.0,0.0,0.0,0.0,0.0,0.0,0.0,0.0,0.0,0.0,0.0,0.0,0.0,0.0,0.0,0.0,0.0,0.0,0.0,0.0,0.0,0.0,0.0,0.0,0.0,0.0,0.0,0.0,0.0,0.0,0.0,0.0,0.0,0.0,0.0,0.0,0.0,0.0,0.0,0.0,0.0,0.0,0.0,0.0,0.0,0.0,0.0,0.0,0.0,0.0,0.0,0.0,0.0,0.0,0.0,0.0,0.0,0.0,0.0,0.0,0.0,0.0,0.0,0.0,0.0,0.0,0.0,0.0,0.0,0.0,0.0,0.0,0.0,0.0,0.0,0.0,0.0,0.0,0.0,0.0,0.0,0.0,0.0,0.0,0.0,0.0,0.0,0.0,0.0,0.0,0.0,0.0,0.0,0.0,-2.9257,-3.137,-3.0673,-2.6991,-2.2694,-1.8209,-1.3224,0.0,0.0,0.0,0.0,0.0,0.0,0.0,0.0,0.0,0.0,0.0,0.0,0.0,0.0,0.0,0.0,0.0,0.0,0.0,0.0,0.0,0.0,0.0,0.0,0.0,0.0,0.0,0.0,0.0,0.0,0.0,0.0,0.0,0.0,0.0,0.0,0.0,0.0,0.0,0.0,0.0,0.0,0.0,0.0,0.0,0.0,0.0,0.0,0.0,0.0,0.0,0.0,0.0,0.0,0.0,0.0,0.0,0.0,0.0,0.0,0.0,0.0,0.0,0.0,0.0,0.0,0.0,0.0,0.0,0.0,0.0,0.0,0.0,0.0,0.0,0.0,0.0,0.0,0.0,0.0,0.0,0.0,0.0,0.0,0.0,0.0,0.0,0.0,0.0,0.0,0.0,0.0,0.0,0.0,0.0,0.0,0.0,0.0,0.0,0.0,0.0,0.0,0.0,0.0,0.0,0.0,0.0,0.0,-2.3613,-2.6728,-2.648,-2.238,-1.8846,-1.4667,0.0,0.0,0.0,0.0,0.0,0.0,0.0,0.0,0.0,0.0,0.0,0.0,0.0,0.0,0.0,0.0,0.0,0.0,0.0,0.0,0.0,0.0,0.0,0.0,0.0,0.0,0.0,0.0,0.0,0.0,0.0,0.0,0.0,0.0,0.0,0.0,0.0,0.0,0.0,0.0,0.0,0.0,0.0,0.0,0.0,0.0,0.0,0.0,0.0,0.0,0.0,0.0,0.0,0.0,0.0,0.0,0.0,0.0,0.0,0.0,0.0,0.0,0.0,0.0,0.0,0.0,0.0,0.0,0.0,0.0,0.0,0.0,0.0,0.0,0.0,0.0,0.0,0.0,0.0,0.0,0.0,0.0,0.0,0.0,0.0,0.0,0.0,0.0,0.0,0.0,0.0,0.0,0.0,0.0,0.0,0.0,0.0,0.0,0.0,0.0,0.0,0.0,0.0,0.0,0.0,0.0,0.0,0.0,-1.6431,-2.1218,-2.3801,-2.2674,-1.7431,-1.5823,-1.2295,0.0,0.0,0.0,0.0,0.0,0.0,0.0,0.0,0.0,0.0,0.0,0.0,0.0,0.0,0.0,0.0,0.0,0.0,0.0,0.0,0.0,0.0,0.0,0.0,0.0,0.0,0.0,0.0,0.0,0.0,0.0,0.0,0.0,0.0,0.0,0.0,0.0,0.0,0.0,0.0,0.0,0.0,0.0,0.0,0.0,0.0,0.0,0.0,0.0,0.0,0.0,0.0,0.0,0.0,0.0,0.0,0.0,0.0,0.0,0.0,0.0,0.0,0.0,0.0,0.0,0.0,0.0,0.0,0.0,0.0,0.0,0.0,0.0,0.0,0.0,0.0,0.0,0.0,0.0,0.0,0.0,0.0,0.0,0.0,0.0,0.0,0.0,0.0,0.0,0.0,0.0,0.0,0.0,0.0,0.0,0.0,0.0,0.0,0.0,0.0,0.0,0.0,0.0,0.0,0.0,0.0,0.0,0.0,0.0,-1.6234,-1.8818,-1.9271,-1.7136,-1.4757,-1.1688,0.0,0.0,0.0,0.0,0.0,0.0,0.0,0.0,0.0,0.0,0.0,0.0,0.0,0.0,0.0,0.0,0.0,0.0,0.0,0.0,0.0,0.0,0.0,0.0,0.0,0.0,0.0,0.0,0.0,0.0,0.0,0.0,0.0,0.0,0.0,0.0,0.0,0.0,0.0,0.0,0.0,0.0,0.0,0.0,0.0,0.0,0.0,0.0,0.0,0.0,0.0,0.0,0.0,0.0,0.0,0.0,0.0,0.0,0.0,0.0,0.0,0.0,0.0,0.0,0.0,0.0,0.0,0.0,0.0,0.0,0.0,0.0,0.0,0.0,0.0,0.0,0.0,0.0,0.0,0.0,0.0,0.0,0.0,0.0,0.0,0.0,0.0,0.0,0.0,0.0,0.0,0.0,0.0,0.0,0.0,0.0,0.0,0.0,0.0,0.0,0.0,0.0,0.0,0.0,0.0,0.0,0.0,0.0,0.0,-1.5284,-1.7105,-1.7641,-1.6279,-1.4201,-1.1317,0.0,0.0,0.0,0.0,0.0,0.0,0.0,0.0,0.0,0.0,0.0,0.0,0.0,0.0,0.0,0.0,0.0,0.0,0.0,0.0,0.0,0.0,0.0,0.0,0.0,0.0,0.0,0.0,0.0,0.0,0.0,0.0,0.0,0.0,0.0,0.0,0.0,0.0,0.0,0.0,0.0,0.0,0.0,0.0,0.0,0.0,0.0,0.0,0.0,0.0,0.0,0.0,0.0,0.0,0.0,0.0,0.0,0.0,0.0,0.0,0.0,0.0,0.0,0.0,0.0,0.0,0.0,0.0,0.0,0.0,0.0,0.0,0.0,0.0,0.0,0.0,0.0,0.0,0.0,0.0,0.0,0.0,0.0,0.0,0.0,0.0,0.0,0.0,0.0,0.0,0.0,0.0,0.0,0.0,0.0,0.0,0.0,0.0,0.0,0.0,0.0,0.0,0.0,0.0,0.0,0.0,0.0,0.0,0.0,-1.7317,-1.8283,-1.7696,-1.527,-1.3891,-1.1347,0.0,0.0,0.0,0.0,0.0,0.0,0.0,0.0,0.0,0.0,0.0,0.0,0.0,0.0,0.0,0.0,0.0,0.0,0.0,0.0,0.0,0.0,0.0,0.0,0.0,0.0,0.0,0.0,0.0,0.0,0.0,0.0,0.0,0.0,0.0,0.0,0.0,0.0,0.0,0.0,0.0,0.0,0.0,0.0,0.0,0.0,0.0,0.0,0.0,0.0,0.0,0.0,0.0,0.0,0.0,0.0,0.0,0.0,0.0,0.0,0.0,0.0,0.0,0.0,0.0,0.0,0.0,0.0,0.0,0.0,0.0,0.0,0.0,0.0,0.0,0.0,0.0,0.0,0.0,0.0,0.0,0.0,0.0,0.0,0.0,0.0,0.0,0.0,0.0,0.0,0.0,0.0,0.0,0.0,0.0,0.0,0.0,0.0,0.0,0.0,0.0,0.0,0.0,0.0,0.0,0.0,0.0,0.0,0.0,0.0,-1.7177,-1.8359,-1.7328,-1.5204,-1.2076,-0.7869,0.0,0.0,0.0,0.0,0.0,0.0,0.0,0.0,0.0,0.0,0.0,0.0,0.0,0.0,0.0,0.0,0.0,0.0,0.0,0.0,0.0,0.0,0.0,0.0,0.0,0.0,0.0,0.0,0.0,0.0,0.0,0.0,0.0,0.0,0.0,0.0,0.0,0.0,0.0,0.0,0.0,0.0,0.0,0.0,0.0,0.0,0.0,0.0,0.0,0.0,0.0,0.0,0.0,0.0,0.0,0.0,0.0,0.0,0.0,0.0,0.0,0.0,0.0,0.0,0.0,0.0,0.0,0.0,0.0,0.0,0.0,0.0,0.0,0.0,0.0,0.0,0.0,0.0,0.0,0.0,0.0,0.0,0.0,0.0,0.0,0.0,0.0,0.0,0.0,0.0,0.0,0.0,0.0,0.0,0.0,0.0,0.0,0.0,0.0,0.0,0.0,0.0,0.0,0.0,0.0,0.0,0.0,0.0,0.0,0.0,-1.7549,-1.7045,-1.4857,-1.1767,0.0,0.0,0.0,0.0,0.0,0.0,0.0,0.0,0.0,0.0,0.0,0.0,0.0,0.0,0.0,0.0,0.0,0.0,0.0,0.0,0.0,0.0,0.0,0.0,0.0,0.0,0.0,0.0,0.0,0.0,0.0,0.0,0.0,0.0,0.0,0.0,0.0,0.0,0.0,0.0,0.0,0.0,0.0,0.0,0.0,0.0,0.0,0.0,0.0,0.0,0.0,0.0,0.0,0.0,0.0,0.0,0.0,0.0,0.0,0.0,0.0,0.0,0.0,0.0,0.0,0.0,0.0,0.0,0.0,0.0,0.0,0.0,0.0,0.0,0.0,0.0,0.0,0.0,0.0,0.0,0.0,0.0,0.0,0.0,0.0,0.0,0.0,0.0,0.0,0.0,0.0,0.0,0.0,0.0,0.0,0.0,0.0,0.0,0.0,0.0,0.0,0.0,0.0,0.0,0.0,0.0,0.0,0.0,0.0,0.0,0.0,-1.5646,-1.4899,-1.3226,0.0,-0.7731,0.0,0.0,0.0,0.0,0.0,0.0,0.0,0.0,0.0,0.0,0.0,0.0,0.0,0.0,0.0,0.0,0.0,0.0,0.0,0.0,0.0,0.0,0.0,0.0,0.0,0.0,0.0,0.0,0.0,0.0,0.0,0.0,0.0,0.0,0.0,0.0,0.0,0.0,0.0,0.0,0.0,0.0,0.0,0.0,0.0,0.0,0.0,0.0,0.0,0.0,0.0,0.0,0.0,0.0,0.0,0.0,0.0,0.0,0.0,0.0,0.0,0.0,0.0,0.0,0.0,0.0,0.0,0.0,0.0,0.0,0.0,0.0,0.0,0.0,0.0,0.0,0.0,0.0,0.0,0.0,0.0,0.0,0.0,0.0,0.0,0.0,0.0,0.0,0.0,0.0,0.0,0.0,0.0,0.0,0.0,0.0,0.0,0.0,0.0,0.0,0.0,0.0,0.0,0.0,0.0,0.0,0.0,0.0,0.0,0.0,0.0,0.0,-1.152,-1.0346,-0.9553,0.0,0.0,0.0,0.0,0.0,0.0,0.0,0.0,0.0,0.0,0.0,0.0,0.0,0.0,0.0,0.0,0.0,0.0,0.0,0.0,0.0,0.0,0.0,0.0,0.0,0.0,0.0,0.0,0.0,0.0,0.0,0.0,0.0,0.0,0.0,0.0,0.0,0.0,0.0,0.0,0.0,0.0,0.0,0.0,0.0,0.0,0.0,0.0,0.0,0.0,0.0,0.0,0.0,0.0,0.0,0.0,0.0,0.0,0.0,0.0,0.0,0.0,0.0,0.0,0.0,0.0,0.0,0.0,0.0,0.0,0.0,0.0,0.0,0.0,0.0,0.0,0.0,0.0,0.0,0.0,0.0,0.0,0.0,0.0,0.0,0.0,0.0,0.0,0.0,0.0,0.0,0.0,0.0,0.0,0.0,0.0,0.0,0.0,0.0,0.0,0.0,0.0,0.0,0.0,0.0,0.0,0.0,0.0,0.0,0.0,-1.2981,-1.1307,-1.0472,-0.9744,-0.8848,0.0,0.0,0.0,0.0,0.0,0.0,0.0,0.0,0.0,0.0,0.0,0.0,0.0,0.0,0.0,0.0,0.0,0.0,0.0,0.0,0.0,0.0,0.0,0.0,0.0,0.0,0.0,0.0,0.0,0.0,0.0,0.0,0.0,0.0,0.0,0.0,0.0,0.0,0.0,0.0,0.0,0.0,0.0,0.0,0.0,0.0,0.0,0.0,0.0,0.0,0.0,0.0,0.0,0.0,0.0,0.0,0.0,0.0,0.0,0.0,0.0,0.0,0.0,0.0,0.0,0.0,0.0,0.0,0.0,0.0,0.0,0.0,0.0,0.0,0.0,0.0,0.0,0.0,0.0,0.0,0.0,0.0,0.0,0.0,0.0,0.0,0.0,0.0,0.0,0.0,0.0,0.0,0.0,0.0,0.0,0.0,0.0,0.0,0.0,0.0,0.0,0.0,0.0,0.0,0.0,0.0,0.0,0.0,0.0,0.0,-1.1919,0.0,0.0,0.0,-0.6899,0.0,0.0,0.0,0.0,0.0,0.0,0.0,0.0,0.0,0.0,0.0,0.0,0.0,0.0,0.0,0.0,0.0,0.0,0.0,0.0,0.0,0.0,0.0,0.0,0.0,0.0,0.0,0.0,0.0,0.0,0.0,0.0,0.0,0.0,0.0,0.0,0.0,0.0,0.0,0.0,0.0,0.0,0.0,0.0,0.0,0.0,0.0,0.0,0.0,0.0,0.0,0.0,0.0,0.0,0.0,0.0,0.0,0.0,0.0,0.0,0.0,0.0,0.0,0.0,0.0,0.0,0.0,0.0,0.0,0.0,0.0,0.0,0.0,0.0,0.0,0.0,0.0,0.0,0.0,0.0,0.0,0.0,0.0,0.0,0.0,0.0,0.0,0.0,0.0,0.0,0.0,0.0,0.0,0.0,0.0,0.0,0.0,0.0,0.0,0.0,0.0,0.0,0.0,0.0,0.0,0.0,0.0,0.0,0.0,0.0,0.0,0.0,0.0,0.0,0.0,0.0,0.0,0.0,0.0,0.0,0.0,0.0,0.0,0.0,0.0,0.0,0.0,0.0,0.0,0.0,0.0,0.0,0.0,0.0,0.0,0.0,0.0,0.0,0.0,0.0,0.0,0.0,0.0,0.0,0.0,0.0,0.0,0.0,0.0,0.0,0.0,0.0,0.0,0.0,0.0,0.0,0.0,0.0,0.0,0.0,0.0,0.0,0.0,0.0,0.0,0.0,0.0,0.0,0.0,0.0,0.0,0.0,0.0,0.0,0.0,0.0,0.0,0.0,0.0,0.0,0.0,0.0,0.0,0.0,0.0,0.0,0.0,0.0,0.0,0.0,0.0,0.0,0.0,0.0,0.0,0.0,0.0,0.0,0.0,0.0,0.0,0.0,0.0,0.0,0.0,0.0,0.0,0.0,0.0,0.0,0.0,0.0,0.0,0.0,0.0,0.0,0.0,0.0,0.0,0.0,0.0,0.0,0.0,0.0,0.0,0.0,0.0,0.0,0.0,0.0,0.0,0.0,0.0,0.0,0.0,0.0,0.0,0.0,0.0,0.0,0.0,0.0,0.0,0.0,0.0,0.0,0.0,0.0,0.0,0.0,0.0,0.0,0.0,0.0,0.0,0.0,0.0,0.0,0.0,0.0,0.0,0.0,0.0,0.0,0.0,0.0,0.0,0.0,0.0,0.0,0.0,0.0,0.0,0.0,0.0,0.0,0.0,0.0,0.0,0.0,0.0,0.0,0.0,0.0,0.0,0.0,0.0,0.0,0.0,0.0,0.0,0.0,0.0,0.0,0.0,0.0,0.0,0.0,0.0,0.0,0.0,0.0,0.0,0.0,0.0,0.0,0.0,0.0,0.0,0.0,0.0,0.0,0.0,0.0,0.0,0.0,0.0,0.0,0.0,0.0,0.0,0.0,0.0,0.0,0.0,0.0,0.0,0.0,0.0,0.0,0.0,0.0,0.0,0.0,0.0,0.0,0.0,0.0,0.0,0.0,0.0,0.0,0.0,0.0,0.0,0.0,0.0,0.0,0.0,0.0,0.0,0.0,0.0,0.0,0.0,0.0,0.0,0.0,0.0,0.0,0.0,0.0,0.0,0.0,0.0,0.0,0.0,0.0,0.0,0.0,0.0,0.0,0.0,0.0,0.0,0.0,0.0,0.0,0.0,0.0,0.0,0.0,0.0,0.0,0.0,0.0,0.0,0.0,0.0,0.0,0.0,0.0,0.0,0.0,0.0,0.0,0.0,0.0,0.0,0.0,0.0,0.0,0.0,0.0,0.0,0.0,0.0,0.0,0.0,0.0,0.0,0.0,0.0,0.0,0.0,0.0,0.0,0.0,0.0,0.0,0.0,0.0,0.0,0.0,0.0,0.0,0.0,0.0,0.0,0.0,0.0,0.0,0.0,0.0,0.0,0.0,0.0,0.0,0.0,0.0,0.0,0.0,0.0,0.0,0.0,0.0,0.0,0.0,0.0,0.0,0.0,0.0,0.0,0.0,0.0,0.0,0.0,0.0,0.0,0.0,0.0,0.0,0.0,0.0,0.0,0.0,0.0,0.0,0.0,0.0,0.0,0.0,0.0,0.0,0.0,0.0,0.0,0.0,0.0,0.0,0.0,0.0,0.0,0.0,0.0,0.0,0.0,0.0,0.0,0.0,0.0,0.0,0.0,0.0,0.0,0.0,0.0,0.0,0.0,0.0,0.0,0.0,0.0,0.0,0.0,0.0,0.0,0.0,0.0,0.0,0.0,0.0,0.0,0.0,0.0,0.0,0.0,0.0,0.0,0.0,0.0,0.0,0.0,0.0,0.0,0.0,0.0,0.0,0.0,0.0,0.0,0.0,0.0,0.0,0.0,0.0,0.0,0.0,0.0,0.0,0.0,0.0,0.0,0.0,0.0,0.0,0.0,0.0,0.0,0.0,0.0,0.0,0.0,0.0,0.0,0.0,0.0,0.0,0.0,0.0,0.0,0.0,0.0,0.0,0.0,0.0,0.0,0.0,0.0,0.0,0.0,0.0,0.0,0.0,0.0,0.0,0.0,0.0,0.0,0.0,0.0,0.0,0.0,0.0,0.0,0.0,0.0,0.0,0.0,0.0,0.0,0.0,0.0,0.0,0.0,0.0,0.0,0.0,0.0,0.0,0.0,0.0,0.0,0.0,0.0,0.0,0.0,0.0,0.0,0.0,0.0,0.0,0.0,0.0,0.0,0.0,0.0,0.0,0.0,0.0,0.0,0.0,0.0,0.0,0.0,0.0,0.0,0.0,0.0,0.0,0.0,0.0,0.0,0.0,0.0,0.0,0.0,0.0,0.0,0.0,0.0,0.0,0.0,0.0,0.0,0.0,0.0,0.0,0.0,0.0,0.0,0.0,0.0,0.0,0.0,0.0,0.0,0.0,0.0,0.0,0.0,0.0,0.0,0.0,0.0,0.0,0.0,0.0,0.0,0.0,0.0,0.0,0.0,0.0,0.0,0.0,0.0,0.0,0.0,0.0,0.0,0.0,0.0,0.0,0.0,0.0,0.0,0.0,0.0,0.0,0.0,0.0,0.0,0.0,0.0,0.0,0.0,0.0,0.0,0.0,0.0,0.0,0.0,0.0,0.0,0.0,0.0,0.0,0.0,0.0,0.0,0.0,0.0,0.0,0.0,0.0,0.0,0.0,0.0,0.0,0.0,0.0,0.0,0.0,0.0,0.0,0.0,0.0,0.0,0.0,0.0,0.0,0.0,0.0,0.0,0.0,0.0,0.0,0.0,0.0,0.0,0.0,0.0,0.0,0.0,0.0,0.0,0.0,0.0,0.0,0.0,0.0,0.0,0.0,0.0,0.0,0.0,0.0,0.0,0.0,0.0,0.0,0.0,0.0,0.0,0.0,0.0,0.0,0.0,0.0,0.0,0.0,0.0,0.0,0.0,0.0,0.0,0.0,0.0,0.0,0.0,0.0,0.0,0.0,0.0,0.0,0.0,0.0,0.0,0.0,0.0,0.0,0.0,0.0,0.0,0.0,0.0,0.0,0.0,0.0,0.0,0.0,0.0,0.0,0.0,0.0,0.0,0.0,0.0,0.0,0.0,0.0,0.0,0.0,0.0,0.0,0.0,0.0,0.0,0.0,0.0,0.0,0.0,0.0,0.0,0.0,0.0,0.0,0.0,0.0,0.0,0.0,0.0,0.0,0.0,0.0,0.0,0.0,0.0,0.0,0.0,0.0,0.0,0.0,0.0,0.0,0.0,0.0,0.0,0.0,0.0,0.0,0.0,0.0,0.0,0.0,0.0,0.0,0.0,0.0,0.0,0.0,0.0,0.0,0.0,0.0,0.0,0.0,0.0,0.0,0.0,0.0,0.0,0.0,0.0,0.0,0.0,0.0,0.0,0.0,0.0,0.0,0.0,0.0,0.0,0.0,0.0,0.0,0.0,0.0,0.0,0.0,0.0,0.0,0.0,0.0,0.0,0.0,0.0,0.0,0.0,0.0,0.0,0.0,0.0,0.0,0.0,0.0,0.0,0.0,0.0,0.0,0.0,0.0,0.0,0.0,0.0,0.0,0.0,0.0,0.0,0.0,0.0,0.0,0.0,0.0,0.0,0.0,0.0,0.0,0.0,0.0,0.0,0.0,0.0,0.0,0.0,0.0,0.0,0.0,0.0,0.0,0.0,0.0,0.0,0.0,0.0,0.0,0.0,0.0,0.0,0.0,0.0,0.0,0.0,0.0,0.0,0.0,0.0,0.0,0.0,0.0,0.0,0.0,0.0,0.0,0.0,0.0,0.0,0.0,0.0,0.0,0.0,0.0,0.0,0.0,0.0,0.0,0.0,0.0,0.0,0.0,0.0,0.0,0.0,0.0,0.0,0.0]}]]]